GFSCGP_250_rhum_000.txt.gz
RH
25 29 28 34 34 33 33 33 32 29 45 44 40 45 50 53 58 54 56 59 62 71 75 79 67 63 84 59 73 79 94 100 100 94 82 56 47 36 32 26 25 24 34 58
33 32 37 41 42 41 38 38 40 50 41 42 80 52 51 57 57 62 61 71 61 61 64 72 79 75 72 67 66 76 71 73 77 95 97 100 94 57 46 41 30 31 26 29
31 32 36 43 46 53 53 51 48 47 46 73 45 56 56 62 62 69 81 84 83 89 75 69 84 82 87 94 100 96 90 80 100 94 100 70 80 90 67 49 38 34 32 25
37 35 42 36 45 51 56 82 85 61 55 53 54 55 71 77 81 84 84 91 84 81 100 100 100 100 100 98 100 97 95 100 100 100 100 100 93 75 84 73 56 38 33 32
36 32 37 39 43 38 49 62 81 67 74 54 66 79 76 87 79 98 96 100 100 96 89 94 89 86 78 100 100 100 100 100 100 100 100 100 100 93 82 72 76 68 56 46
56 46 32 27 29 31 31 38 58 86 68 75 57 97 76 91 91 88 95 96 100 99 79 76 94 99 100 100 100 100 100 100 100 100 100 100 100 100 99 69 57 73 70 55
36 58 48 36 24 24 25 31 33 51 76 63 55 64 88 73 91 93 99 95 86 76 62 69 71 70 100 100 100 100 100 100 100 100 100 100 100 100 100 64 58 55 71 64
49 40 55 75 35 29 43 42 22 24 43 50 66 45 84 81 100 100 92 79 72 71 69 72 82 89 90 77 96 100 100 100 100 100 100 100 100 100 88 70 47 64 59 58
52 40 45 53 38 29 40 58 61 41 37 41 72 80 40 71 79 78 89 85 83 82 79 77 79 99 100 91 84 99 100 100 100 100 100 100 100 95 75 58 39 44 55 47
60 46 31 40 44 39 30 39 55 54 30 23 41 100 40 91 86 100 100 100 89 82 90 87 80 89 94 92 89 97 100 100 100 100 100 100 96 100 54 46 32 32 34 28
50 36 25 34 42 49 45 36 62 45 36 23 25 100 49 79 64 100 100 100 97 100 100 96 93 91 100 98 100 91 100 100 100 100 100 100 100 100 49 34 26 22 21 19
52 40 29 30 41 53 72 58 73 51 50 41 23 89 72 75 76 98 100 100 82 76 86 98 100 100 100 100 89 100 90 100 100 100 100 100 100 81 35 29 22 17 16 16
43 47 36 38 35 46 74 86 86 61 83 78 50 46 97 74 87 100 100 100 94 100 100 100 100 100 100 100 93 100 99 100 100 100 100 100 94 51 28 22 18 15 15 16
24 26 27 31 37 46 54 84 98 70 73 56 93 48 100 99 96 100 100 100 100 100 100 100 100 95 98 98 100 95 97 100 100 100 100 100 71 30 23 17 15 15 15 14
30 35 42 45 48 49 59 89 100 88 99 74 76 100 100 100 83 91 100 100 100 100 78 86 84 98 93 94 100 86 98 100 100 100 100 91 50 22 17 14 16 15 12 10
35 31 36 53 57 46 64 100 100 98 99 94 100 100 100 83 94 87 100 100 100 90 79 96 96 100 92 98 100 97 92 100 100 100 95 80 27 18 15 16 16 14 10 7
53 39 41 45 51 48 70 100 98 79 100 100 100 100 100 99 81 97 100 66 75 84 100 93 98 94 100 94 97 96 84 89 100 100 91 52 18 16 14 16 14 10 7 6
56 51 55 60 60 50 68 100 81 82 100 100 100 100 100 77 78 94 71 77 100 100 97 86 98 100 100 97 97 95 94 96 94 93 69 23 14 14 14 14 11 7 6 5
64 69 64 70 70 70 99 100 86 91 100 100 100 88 62 73 77 99 99 100 100 100 100 97 99 100 100 100 99 97 95 93 91 68 39 15 13 13 14 12 7 6 5 5
77 78 74 96 98 90 100 100 83 80 82 96 89 61 76 94 64 81 96 100 100 100 100 100 100 100 100 92 100 100 96 80 78 41 20 12 12 13 12 8 6 5 5 4
83 82 88 99 97 87 100 78 76 95 97 80 65 60 86 83 100 97 100 100 100 98 100 100 100 100 99 94 98 100 94 82 42 23 12 12 12 12 8 6 5 5 5 4
78 81 86 80 100 96 82 64 86 88 66 66 72 88 97 100 100 100 100 100 100 100 100 100 98 91 94 100 99 85 84 41 26 14 11 12 12 9 7 6 5 4 4 3
66 74 82 100 99 78 75 86 96 70 63 79 89 100 100 100 100 100 100 98 98 100 100 100 97 82 95 92 78 78 55 24 15 11 10 12 10 7 5 5 4 4 3 3
61 95 100 99 85 69 78 83 70 84 100 100 98 99 98 86 83 81 87 96 100 100 94 94 83 93 85 83 77 57 24 13 12 10 11 10 8 6 5 4 4 3 3 4
87 100 100 63 74 70 88 95 100 97 100 95 76 78 78 84 84 82 97 96 100 100 90 79 83 94 87 73 63 25 12 12 9 10 11 8 6 6 4 4 3 3 4 4
96 85 60 54 60 57 54 71 92 95 87 79 78 73 79 77 76 81 68 80 99 84 66 80 92 83 76 55 31 15 12 10 9 11 9 7 6 6 4 3 3 4 4 4

GFSCGP_250_rhum_003.txt.gz
RH
34 26 29 29 29 34 28 25 32 46 38 39 40 42 46 49 61 70 74 71 75 65 66 86 86 60 57 67 75 94 82 95 100 93 99 99 91 90 84 76 78 79 37 29
39 35 37 37 37 29 34 38 34 37 37 42 43 45 50 60 72 66 68 92 88 68 44 50 56 46 46 49 49 45 56 75 82 86 100 100 100 100 100 96 92 71 85 46
38 36 40 44 42 43 44 51 51 46 57 68 57 60 54 56 71 87 90 68 64 61 59 61 64 73 78 74 79 61 64 78 78 76 76 98 100 100 100 100 100 100 90 67
29 34 36 38 36 47 47 49 48 36 46 50 86 98 69 98 100 100 100 79 86 82 79 75 71 75 77 82 79 80 81 78 78 81 69 73 82 100 100 100 100 100 96 90
38 29 25 25 37 47 54 58 58 46 44 54 60 91 95 85 97 93 92 87 93 98 93 86 92 86 83 83 77 95 95 94 89 82 100 97 100 100 100 100 100 100 100 89
35 34 36 33 29 35 59 73 84 55 38 36 42 48 86 85 82 100 98 99 100 100 100 100 97 100 96 89 100 100 100 100 86 96 95 99 100 100 100 100 100 100 100 92
29 32 33 38 32 25 37 46 61 72 88 48 42 33 33 45 76 92 99 100 100 100 100 94 80 93 100 100 100 100 100 100 100 100 100 96 100 95 100 100 100 100 100 100
45 48 37 38 38 32 26 29 35 44 53 96 68 62 30 25 40 53 83 100 100 100 91 100 99 100 100 100 100 100 92 89 86 100 100 100 87 88 100 99 100 100 100 96
43 34 33 30 36 37 38 35 27 42 38 52 96 85 100 39 54 48 80 99 100 98 99 100 100 100 100 79 100 88 88 97 87 100 100 97 91 90 99 91 97 100 96 65
41 44 44 29 30 34 40 43 44 49 45 44 59 76 100 54 62 62 94 96 98 88 75 98 100 89 72 91 88 83 94 96 100 100 100 100 100 98 100 93 91 97 74 36
33 41 35 26 29 27 31 35 43 46 36 36 35 93 91 89 97 100 100 100 97 53 73 87 98 83 84 100 100 100 100 100 100 100 100 100 100 100 100 97 93 77 45 20
38 46 49 27 24 28 35 34 42 46 32 55 33 95 71 100 98 100 100 100 85 40 59 90 59 62 76 100 100 100 100 100 100 100 100 100 100 100 100 96 77 52 25 14
43 46 48 47 44 54 80 75 77 53 46 67 51 75 100 87 99 100 100 100 71 47 69 74 65 69 91 100 100 100 100 100 100 100 100 100 100 100 94 74 47 29 14 12
34 39 44 43 51 47 57 80 70 61 53 33 74 45 100 81 95 100 100 100 52 58 86 80 66 82 100 100 100 100 100 100 100 100 100 100 100 99 83 48 32 16 12 11
23 26 28 30 51 46 48 65 56 57 63 49 53 75 77 96 100 100 97 90 73 74 68 66 66 99 100 100 100 100 100 100 100 100 98 100 100 83 60 31 20 12 10 11
25 26 28 33 43 38 45 55 64 66 76 86 83 97 100 100 100 80 70 72 80 74 53 63 79 100 100 100 100 98 97 99 94 97 92 95 93 74 32 18 13 10 10 11
24 24 28 36 48 60 63 70 77 88 86 82 51 68 87 97 69 60 88 75 50 53 65 72 89 92 99 90 96 90 95 98 98 79 88 88 74 48 16 12 10 10 11 10
41 42 53 55 64 60 68 75 70 38 41 68 77 88 76 53 72 89 54 46 53 70 76 79 82 91 83 87 92 88 85 89 93 86 79 75 53 23 12 10 10 10 10 7
55 58 61 61 57 50 63 89 59 42 56 58 78 87 78 73 46 53 56 64 85 95 78 74 86 96 94 98 90 84 70 83 86 81 78 49 33 16 11 10 10 10 8 6
82 98 100 99 89 49 100 99 71 48 56 84 97 74 56 52 62 77 94 97 99 77 82 96 96 100 100 90 78 65 63 74 80 65 54 32 23 12 10 10 11 9 6 6
73 75 75 69 57 66 81 78 61 54 61 58 48 48 51 59 64 75 87 75 70 75 90 91 99 100 95 80 70 62 67 71 70 63 35 25 13 10 9 10 9 7 6 6
35 36 33 33 41 37 40 37 42 44 38 40 42 44 48 53 69 76 71 73 84 86 90 100 100 100 91 79 67 56 57 70 59 44 26 15 10 8 9 10 7 6 6 6
47 54 58 75 60 59 52 49 49 50 48 52 51 60 63 70 76 74 79 94 100 100 100 98 100 88 87 83 60 45 54 51 41 27 17 10 8 9 9 8 6 6 6 5
63 70 71 78 79 63 58 68 69 64 63 73 72 68 86 88 86 86 95 98 93 100 94 100 97 90 68 54 44 41 42 37 28 17 10 8 8 9 7 6 6 6 6 4
100 100 100 87 70 64 80 91 88 91 98 98 96 99 100 99 99 90 94 89 82 99 98 92 76 68 44 38 34 34 29 25 17 9 8 8 9 8 6 6 6 6 4 4
100 100 100 89 100 100 100 100 100 100 100 100 100 100 100 98 96 80 76 78 92 90 84 77 72 32 28 27 27 23 17 14 9 8 8 8 8 7 6 6 6 5 4 4

GFSCGP_250_rhum_006.txt.gz
RH
20 19 18 17 20 20 23 30 39 40 40 41 43 45 56 66 67 66 62 71 62 58 47 53 72 67 82 80 80 74 78 86 93 59 81 55 55 57 70 51 42 52 43 59
20 17 20 22 23 30 39 38 42 41 34 35 39 53 58 75 71 69 76 66 70 92 93 83 72 89 69 87 98 85 91 99 100 100 100 100 91 89 78 83 64 71 71 73
22 34 35 28 24 19 22 24 28 33 42 47 55 69 61 66 62 74 77 92 100 100 100 100 98 91 93 100 100 100 100 100 100 97 96 81 88 96 94 86 88 70 78 80
30 34 30 31 34 36 28 26 19 28 38 42 57 49 39 35 65 72 79 87 92 78 79 83 100 100 100 100 100 100 100 100 82 81 100 97 99 100 100 100 100 87 84 98
24 30 28 27 28 29 28 33 31 26 26 27 31 38 33 51 55 54 53 68 100 100 100 100 100 100 100 100 100 100 89 90 82 87 95 100 100 100 100 100 100 100 100 94
27 25 30 37 41 44 50 39 40 50 50 37 41 35 40 24 30 41 68 98 100 100 100 100 94 81 99 98 98 89 62 81 93 94 100 100 100 100 100 100 100 100 100 100
34 44 43 42 40 42 34 37 38 38 39 59 51 78 71 56 50 40 73 100 100 100 100 100 100 97 46 66 65 53 65 82 100 100 100 100 100 100 100 100 100 100 99 100
42 56 51 46 44 39 35 38 40 35 44 62 91 86 95 75 67 47 58 77 100 100 100 100 58 32 38 47 51 60 66 75 90 100 100 100 100 100 100 100 100 100 100 97
43 37 42 36 37 38 31 31 34 38 38 45 55 66 86 80 43 50 59 59 66 70 93 71 61 40 43 47 56 49 67 72 100 100 100 100 100 100 100 100 97 100 100 99
41 35 35 38 40 42 39 30 29 30 32 34 44 46 74 56 64 71 83 77 75 76 68 45 49 43 56 52 65 56 65 75 99 100 100 100 100 100 100 93 100 99 100 97
33 37 38 38 44 41 37 44 40 34 36 31 27 48 61 54 69 82 90 87 77 57 40 52 57 51 60 44 53 59 74 93 100 100 98 100 100 98 89 95 100 100 100 95
32 32 43 37 39 35 37 40 44 31 32 37 25 49 49 58 56 59 56 43 62 61 91 85 61 62 64 53 60 78 88 93 100 100 100 100 100 100 94 86 100 100 100 73
29 31 34 35 26 27 25 28 30 38 31 34 26 44 57 62 57 62 58 76 92 96 89 87 53 56 71 67 67 81 95 96 98 97 100 100 95 94 96 76 73 94 76 42
26 29 32 34 31 24 24 27 32 33 44 43 50 28 45 37 41 54 57 65 75 79 98 77 52 68 67 87 95 100 88 80 84 92 100 99 100 95 71 72 73 68 48 32
19 22 24 27 32 28 26 28 29 34 45 46 32 27 43 46 58 57 52 79 94 100 85 69 78 70 72 70 87 90 74 87 97 97 100 99 93 83 63 53 56 45 38 25
25 30 25 24 37 25 28 34 47 55 58 65 72 86 100 100 64 63 96 94 78 67 71 56 43 50 54 63 66 76 77 80 91 92 88 96 87 67 39 43 40 37 28 15
30 26 26 30 37 42 53 69 96 100 99 92 76 62 56 64 60 71 67 61 63 45 42 39 43 56 72 78 88 83 79 78 80 75 88 75 51 33 31 33 34 30 17 9
46 50 53 48 51 44 45 63 60 41 53 54 53 70 70 56 50 50 52 54 52 45 44 49 56 69 91 96 98 94 93 83 94 98 84 69 30 27 28 29 26 19 9 8
63 58 55 48 43 41 53 96 63 53 51 55 63 56 47 49 39 43 48 42 42 52 64 68 78 86 94 94 90 97 89 89 99 91 85 45 24 23 24 21 17 9 8 8
97 89 76 91 68 58 82 66 61 55 51 55 54 57 64 64 71 68 66 76 78 94 100 100 100 98 99 92 86 83 75 64 69 68 43 24 19 22 18 14 10 8 8 8
61 65 70 64 71 70 73 68 57 58 56 58 61 68 71 80 92 100 100 100 100 100 100 98 94 90 90 79 79 67 61 56 46 32 19 18 19 18 14 10 8 8 9 8
57 48 52 65 66 63 55 48 65 87 90 84 92 100 100 100 100 100 100 99 93 94 82 75 70 71 66 66 63 53 45 31 22 16 14 16 17 14 10 7 7 8 8 6
96 94 91 86 65 70 80 97 100 100 86 96 100 97 73 69 72 74 72 60 59 59 60 63 67 61 57 51 45 31 21 16 13 12 14 14 13 11 7 7 8 9 7 6
79 99 99 75 93 86 98 98 95 97 93 80 77 71 72 69 69 69 57 56 59 70 67 57 48 39 32 24 17 15 13 11 11 13 12 12 11 8 6 8 8 7 7 6
53 51 52 53 62 57 63 67 70 67 63 61 60 68 66 62 61 53 56 57 57 44 39 26 17 13 14 14 13 11 10 12 12 11 11 10 7 6 7 8 8 7 6 6
59 59 56 53 60 70 71 68 63 70 68 64 64 65 71 67 64 67 52 45 35 21 12 11 12 13 13 10 9 10 12 11 10 11 9 7 6 7 8 8 6 6 6 5

GFSCGP_250_rhum_012.txt.gz
RH
17 16 16 20 28 24 21 22 21 20 22 23 26 28 20 33 44 38 46 60 64 99 100 93 100 100 99 82 62 54 44 41 46 50 59 65 52 49 46 48 60 61 61 67
18 17 17 18 20 23 25 25 24 24 26 27 25 24 26 25 35 36 28 36 44 49 71 57 66 98 90 80 64 46 33 34 36 38 41 39 43 45 48 50 54 54 60 68
21 19 18 17 19 20 19 20 19 18 20 35 27 32 38 35 22 26 37 34 44 50 69 70 63 64 75 67 63 47 32 26 32 52 50 49 54 57 60 64 69 69 72 77
20 20 19 21 24 29 32 31 28 21 25 24 29 26 30 42 48 52 72 74 77 62 73 75 79 73 75 76 81 75 60 42 44 69 61 58 70 70 67 63 60 58 59 67
20 24 25 23 23 26 34 33 30 30 28 25 26 27 26 34 40 42 34 28 44 63 64 63 61 50 58 77 83 90 87 96 100 100 100 100 96 87 65 65 61 59 60 64
20 24 28 29 34 42 44 31 27 27 32 33 33 38 32 23 16 17 16 16 22 31 31 35 37 41 48 60 79 68 90 100 99 100 100 100 100 84 75 74 66 66 61 72
19 22 25 31 47 59 48 48 47 30 29 34 35 38 36 35 25 24 27 25 20 30 30 31 34 33 39 51 45 82 89 84 79 68 77 82 84 77 71 74 67 63 69 75
24 22 29 29 44 37 38 42 51 51 43 45 42 40 35 28 26 27 27 27 31 36 34 34 34 34 33 51 77 73 60 56 57 61 63 67 64 56 53 49 46 52 65 76
22 25 38 37 44 40 43 45 42 42 44 41 38 34 32 30 27 28 27 28 48 52 46 56 68 68 76 94 85 69 59 58 68 74 75 64 58 58 59 62 81 95 92 93
24 23 29 38 41 39 34 31 32 31 26 25 26 31 55 36 29 34 51 81 91 78 75 84 76 69 72 71 75 74 77 83 84 70 59 66 83 87 88 93 83 69 56 51
22 22 25 27 31 25 21 22 24 25 25 26 24 41 39 36 42 39 61 66 67 65 60 55 56 61 61 61 62 81 82 75 75 95 100 100 92 77 64 57 47 46 49 48
21 24 23 24 22 21 23 24 22 21 26 33 27 45 42 40 40 55 53 58 57 52 58 56 53 54 73 90 91 87 95 100 96 91 76 61 51 45 44 46 47 46 51 47
20 22 22 19 20 20 23 28 32 38 44 44 44 36 36 33 49 51 60 66 65 71 69 75 90 100 100 98 99 88 76 76 81 70 52 47 49 52 48 45 44 45 39 27
19 19 20 22 27 35 57 63 64 68 84 76 83 63 66 67 70 86 82 84 95 96 96 98 92 97 91 71 66 72 81 73 55 51 50 52 52 49 40 28 26 22 16 12
36 33 39 48 50 53 69 65 75 81 86 68 73 83 84 83 84 78 85 87 75 71 77 83 77 68 63 61 64 62 58 52 57 59 55 51 44 26 20 15 13 12 12 13
68 60 61 100 66 64 80 77 82 78 90 81 74 76 82 88 88 86 72 62 83 83 66 52 53 64 64 58 60 57 64 65 58 41 37 33 20 15 13 13 11 11 10 9
57 53 51 70 74 74 100 86 81 70 65 64 70 74 79 73 59 53 52 86 76 63 60 57 60 66 61 57 58 60 64 52 36 30 27 18 14 15 14 13 12 10 10 10
59 54 51 44 40 43 60 43 48 49 52 66 73 60 45 43 54 70 78 69 63 73 67 68 66 56 56 65 60 56 44 29 24 22 16 15 16 17 16 14 12 13 14 13
53 49 47 50 42 52 75 63 70 64 67 60 54 49 47 53 64 54 49 71 98 90 86 69 55 58 65 56 56 50 28 22 18 17 17 17 17 16 15 15 15 14 14 12
81 67 72 71 57 62 78 68 62 53 45 43 47 51 53 50 53 61 67 66 73 73 73 69 62 65 58 53 44 32 22 20 16 16 16 16 16 15 15 14 14 13 12 11
67 59 67 64 76 77 68 56 48 47 46 48 46 47 52 56 63 62 64 64 78 73 65 66 72 67 59 52 32 23 18 16 15 15 15 15 14 13 12 12 11 11 10 9
49 49 52 64 59 55 48 38 36 42 47 50 53 57 65 66 68 75 80 88 72 80 90 81 70 60 47 34 20 18 17 15 14 14 14 13 12 11 10 10 10 9 8 6
52 73 77 63 48 39 35 46 60 56 51 56 71 79 83 87 81 77 80 74 74 70 73 60 54 45 24 19 17 15 14 13 13 13 12 11 10 10 10 9 9 7 6 6
69 70 64 51 58 52 57 66 64 86 92 99 79 75 78 75 75 72 70 67 65 65 60 54 38 21 18 17 15 14 12 11 11 12 10 10 10 10 8 7 5 5 5 6
63 70 56 45 58 52 74 85 99 87 74 65 82 100 94 88 79 80 72 66 68 57 46 28 19 16 13 12 12 11 11 11 11 10 10 9 9 7 5 5 5 5 6 7
98 91 68 59 72 73 96 90 80 75 79 94 100 100 99 91 91 72 65 64 56 38 24 19 15 12 11 10 10 10 10 10 10 10 9 8 6 5 5 5 5 6 6 6

GFSCGP_250_rhum_015.txt.gz
RH
16 14 14 14 15 16 18 22 27 22 24 26 27 24 22 26 35 37 31 36 40 44 53 82 79 44 57 52 49 47 39 39 42 45 56 62 57 52 53 60 66 78 71 57
18 16 16 16 18 21 26 26 26 25 24 23 25 20 21 22 24 32 33 38 34 33 39 48 52 51 48 38 40 38 29 28 27 34 41 46 47 40 39 33 39 49 55 63
18 18 16 17 18 20 22 22 20 21 20 23 20 21 22 26 35 22 21 20 21 29 32 30 35 46 45 38 43 44 46 46 48 50 50 55 46 50 52 55 62 66 66 75
19 19 19 19 19 23 26 24 26 27 19 18 18 21 20 21 28 42 40 30 32 31 28 38 46 42 45 50 71 90 100 100 100 100 100 100 100 100 100 100 100 97 97 95
20 18 19 22 21 20 21 31 33 24 21 25 28 28 27 21 21 25 26 26 24 29 36 42 45 47 53 68 88 100 100 100 100 99 100 98 100 100 100 100 95 82 81 70
22 19 19 23 27 27 32 34 38 35 33 29 26 22 26 25 24 20 20 25 27 33 39 38 45 54 68 68 61 65 72 78 76 83 80 69 61 61 65 61 56 62 57 64
25 22 19 19 24 30 35 37 45 40 43 49 51 36 32 27 27 28 31 29 31 31 30 29 33 44 46 47 49 49 44 41 39 40 48 51 50 45 41 44 55 63 49 49
34 23 22 19 25 39 46 50 38 40 42 41 36 33 33 40 33 33 36 51 48 46 46 43 44 54 51 49 50 49 50 50 50 48 47 44 51 75 80 69 57 51 54 59
31 22 21 20 23 28 38 34 30 26 24 24 28 32 31 26 29 37 62 60 48 48 44 53 60 70 69 72 66 57 55 59 60 59 75 89 84 79 73 64 56 56 53 50
25 20 20 20 23 25 28 28 28 27 21 23 25 34 62 43 47 80 75 70 79 83 84 87 83 69 63 52 48 57 58 58 63 80 81 76 70 62 57 54 49 50 58 50
21 20 19 20 23 25 25 24 25 22 22 24 24 52 44 54 67 75 76 86 88 82 75 64 64 56 51 56 59 70 77 75 80 80 71 63 57 51 55 58 57 55 44 29
23 19 18 19 20 21 20 20 20 23 28 34 38 57 54 51 57 57 59 60 57 47 43 48 44 42 52 84 81 100 100 89 88 82 62 55 52 55 57 60 57 38 25 24
21 18 18 18 19 21 21 24 31 40 49 54 59 49 48 39 46 43 39 40 45 55 53 47 58 83 79 65 71 73 89 95 73 59 53 51 51 55 56 47 30 22 19 17
36 33 34 34 32 37 46 51 55 51 48 44 50 52 57 55 51 57 59 61 60 52 49 55 64 68 71 81 90 88 83 69 59 50 49 59 56 51 44 28 23 19 17 16
50 46 58 68 64 66 69 53 53 52 45 47 59 66 61 64 69 63 58 51 56 56 54 58 64 71 82 77 73 66 61 57 57 51 54 53 47 31 25 21 18 17 15 16
70 81 84 76 50 45 50 44 41 43 42 52 60 67 68 67 61 53 55 54 54 56 62 80 91 78 75 75 73 67 64 64 54 54 47 38 27 20 17 15 14 14 14 14
61 59 56 64 54 49 62 47 47 52 55 62 73 75 67 56 44 46 53 53 56 66 83 77 72 83 88 82 75 56 63 53 49 41 30 21 18 15 14 13 14 14 14 14
69 63 51 48 42 43 82 41 41 48 57 63 63 59 49 41 42 48 52 55 74 86 75 73 91 97 74 75 70 73 55 44 38 26 19 15 13 12 12 13 13 13 13 12
64 56 47 48 37 38 54 40 46 53 70 66 60 52 49 49 57 77 89 97 83 73 74 92 89 80 84 92 82 62 54 43 25 17 14 12 12 11 11 12 12 12 12 11
53 52 50 48 46 50 60 66 62 58 62 57 63 56 49 57 56 71 99 90 84 91 95 95 88 87 83 81 70 49 39 22 17 14 12 10 10 10 10 11 11 11 11 11
64 59 66 67 75 81 84 65 54 61 60 63 54 50 53 65 87 94 90 83 88 83 90 99 99 85 79 62 49 39 24 17 14 10 9 9 10 10 10 10 10 10 10 9
70 96 100 89 72 62 60 55 67 71 66 59 61 65 88 86 86 89 94 98 95 100 100 84 68 68 62 48 33 25 18 13 10 9 9 9 10 10 9 9 9 8 7 6
78 95 81 71 62 61 53 62 61 54 60 65 84 87 86 81 88 100 100 91 97 100 76 71 60 57 41 29 20 16 11 10 9 9 10 10 10 10 9 8 6 5 5 6
70 71 60 47 56 51 60 56 63 77 89 87 90 95 96 97 98 95 93 86 81 65 58 61 52 38 26 18 14 10 8 8 9 9 9 9 9 7 5 5 5 5 6 6
74 71 55 53 60 58 79 91 84 88 84 78 84 97 100 100 99 97 80 68 54 53 51 46 31 22 16 11 9 8 8 9 9 9 9 8 5 5 5 5 5 6 6 6
92 66 58 55 77 84 97 85 85 84 84 97 99 100 100 95 87 80 69 61 57 48 41 23 18 14 10 8 8 8 8 9 9 9 6 4 4 5 5 6 6 6 6 6

GFSCGP_250_rhum_018.txt.gz
RH
14 13 14 14 15 17 18 18 18 23 25 25 30 27 26 26 26 27 26 27 24 26 27 27 27 33 39 40 34 36 36 35 39 41 36 38 43 49 48 49 54 50 45 45
17 16 15 14 14 15 16 15 18 22 24 22 22 22 21 23 21 20 21 25 21 24 23 25 26 27 29 31 36 41 41 46 48 53 48 44 47 59 72 66 66 65 58 68
18 16 17 16 16 17 18 19 21 24 27 24 19 18 17 18 18 19 18 22 30 39 34 32 32 31 32 35 37 38 50 63 66 70 89 96 98 94 85 76 75 78 71 66
21 20 19 18 18 18 20 23 25 25 30 31 24 23 25 26 29 24 20 26 35 35 32 32 30 29 34 34 46 78 88 90 94 94 82 80 80 68 63 60 57 57 57 54
26 23 22 19 20 20 20 20 21 29 30 25 25 28 27 30 28 24 28 35 36 34 34 35 33 36 44 78 91 88 91 90 84 80 74 62 61 55 50 48 45 44 46 48
51 29 24 21 22 23 21 25 30 29 27 27 30 32 44 38 32 30 31 33 36 34 34 43 61 69 66 59 58 68 77 81 77 65 56 56 51 48 55 65 64 55 57 64
67 59 28 23 24 27 22 22 26 26 24 25 27 25 25 25 27 28 26 26 29 32 36 45 50 51 52 60 63 65 67 63 54 49 51 59 60 71 69 63 72 83 70 64
36 42 42 22 22 26 21 23 21 21 26 32 30 37 23 21 22 24 33 34 40 53 56 53 48 47 49 58 66 60 50 48 52 55 62 74 76 72 76 75 63 56 50 51
31 37 35 27 21 22 21 21 22 22 27 31 30 26 21 23 30 36 45 58 63 60 52 51 55 61 68 69 56 53 48 47 47 59 59 69 78 73 68 61 58 51 56 54
22 27 30 23 17 16 17 18 18 19 20 21 22 28 27 37 46 55 55 56 56 59 69 78 82 74 63 56 50 47 48 57 66 78 85 77 74 66 68 63 60 54 50 48
20 21 24 21 18 16 15 16 17 17 19 20 26 34 40 60 66 73 67 74 70 64 66 66 57 48 42 42 46 50 59 68 68 64 94 84 68 67 69 62 58 51 51 40
21 19 20 19 18 17 17 18 18 19 23 32 45 68 58 53 55 51 58 50 42 44 46 45 39 38 53 53 53 58 67 69 81 92 80 78 66 64 58 56 54 48 41 28
29 30 32 30 26 25 26 28 33 40 48 47 49 50 55 45 47 43 39 40 51 56 48 42 48 56 61 67 76 83 96 100 96 93 84 69 64 59 59 57 54 38 25 20
38 32 35 33 37 42 48 47 44 48 45 37 40 38 39 42 49 59 71 71 59 54 60 65 90 94 88 96 99 100 100 98 90 68 63 75 68 65 56 38 25 18 16 14
55 42 39 41 48 74 84 49 40 38 38 33 39 44 50 62 78 81 73 68 70 74 85 100 98 98 100 100 100 99 93 89 78 69 68 58 56 46 35 23 18 14 12 11
45 42 45 57 43 50 76 53 45 46 45 49 57 71 84 91 77 73 77 86 84 77 90 90 88 93 98 99 98 94 82 72 68 58 51 49 41 29 20 15 11 9 8 8
46 45 59 78 70 70 74 50 45 52 57 67 83 88 78 79 72 92 90 74 73 69 57 75 87 90 82 90 82 81 74 73 63 53 48 33 22 16 13 9 8 8 8 8
57 56 51 60 59 55 71 59 61 66 79 90 83 70 72 80 76 63 58 54 57 68 81 87 88 85 82 80 78 76 69 67 54 42 25 19 14 11 9 8 8 8 9 9
54 49 50 63 48 46 96 74 62 62 86 75 73 73 57 50 56 58 52 78 82 99 90 100 100 84 90 91 85 70 66 52 32 20 16 12 10 8 8 8 9 9 9 9
61 50 51 48 41 41 74 48 63 75 72 60 58 53 51 62 62 66 97 98 97 96 92 100 99 100 94 82 68 61 37 21 17 14 12 9 8 8 8 9 9 9 9 9
65 66 64 53 54 64 72 72 69 59 52 51 48 56 69 76 79 94 93 96 99 98 100 98 92 82 62 58 50 28 20 16 13 10 8 8 8 9 9 9 9 9 6 5
62 59 59 62 66 94 90 75 68 62 56 55 68 72 73 75 92 87 88 100 99 100 93 100 95 78 59 38 22 17 15 13 10 8 7 8 8 9 9 9 6 5 5 4
72 79 65 68 83 85 73 81 75 69 64 68 70 81 93 95 97 100 99 97 94 85 99 93 73 50 39 20 18 16 14 9 7 7 8 8 8 7 5 4 4 4 4 5
96 99 79 85 100 99 86 78 69 62 69 72 80 89 100 100 100 99 98 94 84 100 90 73 59 34 18 16 14 11 7 7 7 8 8 7 4 4 4 4 4 4 6 6
100 100 87 74 68 65 74 66 66 82 96 100 100 100 100 100 93 73 76 62 70 81 75 62 43 18 15 13 10 7 7 7 8 8 5 4 4 4 4 4 5 6 6 6
99 71 64 69 78 78 83 82 96 100 100 100 100 100 100 87 71 69 71 75 92 83 75 39 16 13 11 8 7 7 7 8 7 5 4 4 4 4 4 6 6 5 5 6

GFSCGP_250_rhum_021.txt.gz
RH
15 15 13 13 13 14 14 15 15 18 19 20 27 28 29 28 27 26 26 22 20 23 25 27 29 29 29 27 24 25 28 29 33 47 72 76 61 57 58 62 64 62 59 57
17 16 15 15 16 17 17 17 18 17 17 18 21 22 21 20 17 18 20 20 25 27 25 26 28 28 31 32 31 27 30 41 57 69 68 63 64 73 74 78 84 89 84 84
20 19 17 16 16 17 18 18 18 20 21 21 25 27 26 22 21 26 29 34 33 34 33 26 26 29 32 33 36 42 48 58 66 64 68 73 79 83 78 80 84 80 81 75
28 25 21 20 19 19 18 18 18 22 22 22 29 32 32 29 32 31 37 40 41 39 33 31 29 33 33 38 78 90 91 88 96 98 96 84 72 69 67 64 62 65 66 63
42 32 25 24 24 21 20 19 19 19 22 28 30 29 30 31 32 31 28 26 28 30 29 27 28 31 42 72 86 91 84 75 76 77 69 67 67 62 62 65 67 56 58 70
36 48 45 29 26 21 18 20 22 25 26 27 25 25 26 23 22 23 25 23 23 23 33 40 48 65 74 83 82 77 80 76 75 70 65 58 55 56 60 63 69 77 57 65
32 30 34 52 42 26 18 18 20 23 26 23 21 22 21 20 21 22 23 26 28 40 53 62 66 66 67 66 66 66 61 55 49 50 56 55 51 55 64 58 44 50 62 69
26 28 32 33 36 25 21 18 16 18 22 22 21 21 22 21 20 24 30 36 50 58 63 62 63 58 57 61 64 61 50 50 52 53 57 62 65 67 74 77 76 73 69 66
22 22 24 28 31 33 21 17 17 17 19 17 18 18 17 19 26 38 48 54 61 54 47 49 57 74 73 70 68 56 61 55 49 51 56 64 69 75 73 70 74 79 70 68
19 19 20 22 24 25 22 17 15 15 16 17 19 20 22 31 45 58 59 62 53 51 65 81 76 78 75 72 76 64 51 47 48 55 66 76 78 70 72 81 91 83 82 68
26 21 19 19 19 19 18 17 16 16 17 18 22 27 40 54 55 50 46 52 58 68 73 82 93 87 79 70 58 52 72 76 82 79 73 75 86 91 92 96 84 75 64 48
30 31 33 32 28 26 22 18 18 22 32 42 44 62 55 50 49 54 64 69 82 79 61 67 70 64 62 60 66 76 88 80 86 87 100 100 100 96 84 69 64 51 42 28
32 29 30 32 35 36 34 33 36 39 56 56 58 51 57 54 67 75 73 64 50 47 57 59 57 61 65 75 81 83 89 94 99 100 100 100 99 92 75 72 45 30 22 16
50 43 47 40 36 42 39 35 36 40 43 43 69 64 65 72 73 64 52 50 56 56 57 63 78 85 75 78 85 100 100 100 100 100 100 98 89 75 54 28 20 16 15 12
58 56 57 43 40 49 63 50 44 43 47 48 50 56 49 61 62 59 63 62 60 65 73 79 77 69 74 92 100 100 100 100 100 100 97 89 65 34 20 16 14 12 10 8
58 61 61 66 50 52 58 46 46 53 56 54 56 58 69 73 63 63 58 59 64 74 82 80 73 88 95 87 100 100 100 100 96 99 89 57 27 15 14 12 10 8 7 7
45 51 52 61 61 54 67 58 50 51 58 55 52 76 74 61 65 62 61 64 75 78 82 74 85 85 95 100 100 99 87 96 100 81 60 19 14 14 12 8 7 6 7 7
40 41 48 47 46 71 100 64 53 51 58 61 78 79 69 66 64 68 64 65 75 85 88 73 88 100 100 100 100 78 81 83 68 54 18 14 13 10 8 7 7 7 8 8
38 40 42 42 45 53 74 61 58 57 71 74 92 88 75 69 67 64 61 84 91 70 71 92 100 100 100 96 74 78 67 60 50 19 13 12 9 8 7 7 8 7 6 5
45 38 43 42 47 58 63 58 54 50 61 83 89 70 61 62 66 80 94 79 73 73 78 100 100 100 83 77 73 60 50 38 17 13 11 9 8 7 7 8 6 4 4 4
48 50 57 54 55 59 50 45 46 52 64 68 67 76 87 94 82 76 75 86 88 93 97 100 93 89 90 68 63 46 33 18 13 11 9 8 7 7 7 5 4 4 4 4
81 70 60 49 44 50 43 51 58 60 72 88 91 80 81 81 85 88 93 93 93 100 100 98 96 80 70 64 40 30 15 12 10 9 8 7 7 6 4 4 4 4 4 4
97 80 47 40 64 64 69 78 85 96 93 92 86 86 87 79 78 77 91 91 100 96 82 75 82 69 60 42 26 14 12 11 9 7 7 7 6 4 4 4 5 4 4 5
89 68 49 44 71 66 73 92 91 85 76 85 82 75 73 80 86 86 95 91 79 73 72 68 62 52 40 28 13 11 11 8 7 7 7 6 4 4 5 5 5 5 6 5
78 75 72 85 91 90 97 91 91 92 92 81 87 91 89 100 94 84 94 80 71 74 66 53 43 31 18 14 12 10 8 7 7 7 6 5 5 5 6 5 5 6 5 5
100 89 78 85 76 84 86 80 84 86 87 81 79 98 92 85 83 88 87 71 56 54 35 26 23 16 13 12 9 8 7 7 6 6 5 5 5 6 6 5 5 4 4 5

GFSCGP_250_rhum_024.txt.gz
RH
16 15 15 14 14 13 13 13 13 13 14 16 19 22 20 23 26 23 20 19 20 22 25 29 24 26 26 26 28 29 30 33 43 48 56 63 66 75 84 80 70 63 58 59
18 17 16 15 14 13 14 15 15 14 15 19 20 20 21 22 21 19 19 24 25 28 28 29 31 29 29 29 27 28 34 47 63 76 79 77 76 72 59 52 55 62 67 66
21 18 18 18 16 15 14 15 18 17 18 22 25 22 27 25 20 19 21 25 36 30 27 27 27 27 27 31 38 49 63 76 80 78 76 72 70 62 61 65 71 69 66 68
30 26 21 20 19 18 18 18 18 19 19 18 19 24 24 22 26 30 34 30 25 25 25 24 25 28 41 47 60 83 90 81 76 83 77 70 60 54 57 62 63 65 63 60
27 44 32 25 20 20 20 19 20 20 19 18 21 25 30 27 28 26 25 24 28 28 25 32 35 47 64 81 97 100 100 96 93 81 77 75 71 72 72 62 54 54 58 61
35 31 34 40 30 24 22 21 20 20 20 20 22 22 32 24 24 22 23 28 24 25 33 46 65 72 80 86 97 100 96 94 86 79 74 71 70 56 59 53 53 53 60 63
36 36 31 30 33 44 33 22 19 19 19 19 19 21 22 21 21 23 25 21 28 40 56 69 76 73 76 81 83 76 74 74 68 68 70 63 60 57 56 60 58 72 99 100
27 25 23 26 28 31 31 41 22 17 16 16 20 21 21 18 18 18 22 30 45 60 60 50 50 60 70 68 60 60 72 79 74 62 57 65 63 71 78 80 98 100 100 100
20 19 20 21 22 24 27 29 29 21 18 16 17 17 16 16 18 26 35 50 59 53 52 64 66 71 74 66 64 71 66 57 56 61 70 76 85 88 96 100 96 100 99 100
30 28 24 21 20 20 21 22 23 21 18 16 16 16 17 25 39 51 62 56 48 51 56 50 55 65 63 62 60 61 65 62 64 70 78 88 94 94 91 98 100 99 100 98
34 43 41 39 32 30 28 25 21 19 18 18 21 25 39 48 54 63 60 58 60 53 52 62 62 63 66 61 60 63 62 75 81 87 93 89 92 95 100 100 100 100 92 74
36 34 37 42 44 40 34 33 33 32 38 40 43 87 63 58 83 83 61 53 49 56 66 63 60 57 59 62 68 72 80 92 92 87 93 98 100 100 95 100 97 88 64 50
43 40 35 38 42 42 34 36 33 37 45 58 80 73 95 75 84 70 54 52 60 65 51 48 58 64 66 70 80 83 92 93 90 100 100 100 100 96 100 94 72 52 39 26
55 64 66 54 56 57 48 40 36 38 46 54 73 65 58 52 55 48 49 48 47 42 50 63 67 68 68 77 81 98 99 100 100 100 100 100 97 100 88 69 50 37 21 13
40 42 46 50 59 62 54 43 41 40 46 46 50 54 41 52 46 45 49 56 53 54 61 67 69 75 76 87 99 100 100 100 99 100 100 100 100 72 56 45 31 16 11 8
34 36 42 42 42 50 54 42 39 40 44 41 44 46 50 47 45 51 50 55 61 69 74 75 75 84 100 100 100 100 99 98 100 100 93 80 58 43 35 24 13 11 7 6
42 42 44 44 38 61 60 53 58 55 53 51 50 52 50 44 46 50 58 69 76 81 80 90 100 100 100 97 96 100 100 100 100 83 63 40 33 26 16 13 10 7 6 6
52 46 39 32 33 49 56 48 64 69 63 55 56 45 41 53 62 75 78 88 94 99 100 99 99 98 86 90 100 100 93 74 52 40 29 25 17 14 12 8 6 6 6 5
45 37 30 28 31 42 58 46 45 46 52 47 41 49 62 71 82 92 94 100 95 91 95 93 97 89 100 100 96 68 54 34 27 22 18 14 13 11 7 7 6 6 4 4
44 35 31 31 33 33 31 38 51 48 52 54 58 73 81 91 97 100 96 90 90 87 92 89 99 100 96 78 62 48 27 18 18 14 12 12 9 7 7 6 6 4 4 4
57 45 42 38 34 38 37 42 44 44 41 52 65 83 98 96 86 88 71 70 77 86 91 100 94 72 61 52 35 18 17 15 14 13 11 8 7 7 6 5 5 4 5 5
63 49 45 44 50 45 49 49 46 47 56 76 92 85 71 84 81 72 75 84 97 100 98 78 59 52 40 28 18 17 14 14 13 10 7 6 6 6 5 5 5 5 5 6
81 60 47 46 57 48 48 50 61 79 84 77 78 79 76 77 86 92 100 100 100 84 59 50 46 34 22 16 16 15 14 13 10 7 6 6 5 5 5 5 5 5 6 5
68 58 55 55 63 51 66 75 82 80 82 77 79 91 93 83 78 88 84 70 58 52 44 36 30 18 17 16 14 14 12 9 7 6 6 5 5 5 5 5 5 6 6 5
65 63 54 65 64 72 94 98 92 81 85 100 100 80 72 88 82 76 74 57 49 37 34 28 18 17 16 15 14 10 7 6 6 5 5 5 5 5 5 5 6 6 6 5
88 73 59 68 78 88 80 80 87 100 100 99 80 70 84 77 71 60 51 52 34 26 20 17 16 15 13 11 8 7 6 6 5 4 4 5 5 6 5 6 6 6 5 5

GFSCGP_250_rhum_027.txt.gz
RH
15 15 15 15 14 14 14 13 13 12 12 12 12 12 13 16 17 19 21 19 18 18 17 21 25 27 26 25 24 23 26 34 44 55 60 62 65 64 72 83 73 65 58 54
16 17 16 16 15 15 14 13 13 14 15 15 15 15 17 20 22 24 24 21 19 18 19 26 24 23 23 24 26 33 44 50 50 50 49 55 62 71 65 60 62 65 71 70
20 18 18 17 17 16 15 14 14 14 15 15 16 20 23 22 24 23 19 20 19 21 24 22 24 24 25 33 39 54 59 58 51 52 70 75 65 64 72 73 68 62 58 62
22 22 20 19 18 18 16 15 15 15 16 17 20 20 23 20 23 22 22 22 24 23 21 24 26 25 32 46 64 65 62 64 79 87 66 63 63 66 60 54 57 58 59 64
26 26 30 28 22 20 19 18 17 16 17 18 20 18 16 19 22 21 23 26 26 25 25 25 23 34 53 71 78 78 73 81 77 76 77 69 54 52 58 64 68 71 75 81
22 31 35 35 37 30 23 22 21 20 18 18 17 20 14 25 18 22 22 23 24 23 22 24 32 54 72 76 75 86 96 94 93 80 63 59 58 65 66 73 80 84 92 95
26 23 24 28 30 32 38 43 31 24 21 17 19 19 17 18 18 18 20 20 20 22 26 40 57 67 70 70 80 76 66 67 62 64 55 58 64 75 82 87 96 100 97 92
32 26 22 22 22 24 26 30 33 36 42 22 20 17 16 16 18 19 19 20 23 41 53 59 65 67 66 64 57 59 58 56 52 50 56 71 78 85 89 91 85 85 93 82
40 31 27 24 23 22 23 23 25 28 33 32 24 20 16 17 17 18 20 36 61 59 63 60 61 59 53 52 60 66 61 56 58 64 73 75 79 93 100 100 94 80 79 83
47 48 50 49 50 44 34 28 24 22 22 21 20 22 16 18 18 26 47 62 71 83 70 58 49 47 56 60 57 46 50 62 78 81 78 83 87 87 93 90 83 81 84 95
44 41 46 50 45 40 37 35 36 36 37 35 37 43 39 39 45 54 72 76 67 48 40 42 48 48 46 47 49 56 72 75 68 72 82 89 93 95 85 83 90 100 100 92
54 62 60 55 50 43 38 38 43 43 49 45 39 95 53 48 48 66 54 42 42 38 43 48 50 49 47 47 54 69 73 80 91 92 94 98 98 94 92 90 91 92 81 72
49 51 51 53 54 51 43 44 48 46 46 49 52 54 58 60 76 61 51 47 41 44 46 47 48 48 53 65 80 81 90 98 100 97 100 98 91 79 76 88 75 65 48 31
42 40 38 37 37 38 45 48 53 52 51 52 56 52 55 49 40 42 40 40 42 48 56 51 52 69 82 92 99 100 100 94 95 88 88 81 78 78 78 68 52 30 20 18
39 39 37 33 34 41 37 30 32 37 47 47 59 55 49 53 46 46 45 48 55 57 56 59 71 87 98 100 100 95 95 96 88 62 60 70 74 66 57 38 22 18 15 13
50 52 47 48 44 48 51 36 31 33 33 39 43 43 40 46 48 54 47 42 51 64 76 93 100 100 95 90 88 85 74 73 64 66 66 65 64 39 24 19 17 15 14 12
62 62 60 62 53 57 45 35 32 36 36 36 36 37 46 54 50 39 39 54 76 80 94 100 100 98 86 75 66 63 74 65 60 56 42 38 27 19 17 15 14 13 10 7
58 57 60 61 55 53 39 34 41 49 44 50 50 59 54 42 40 41 56 76 88 100 95 85 87 79 75 79 88 72 65 52 45 34 27 18 16 15 14 12 10 7 6 6
68 67 60 55 54 51 45 46 43 46 43 44 47 47 43 42 50 67 79 87 84 83 93 88 78 79 87 86 71 64 45 35 26 20 16 15 14 13 10 8 6 6 6 4
83 72 62 56 55 50 51 43 46 47 46 54 58 53 56 67 76 80 93 85 90 96 91 88 83 79 69 64 53 43 37 22 17 14 14 13 11 8 6 6 6 5 4 4
80 69 72 66 57 57 49 47 46 48 43 47 45 49 55 64 70 82 92 95 100 99 96 87 72 64 57 51 37 26 24 17 13 12 11 9 7 6 6 5 4 4 4 5
79 70 73 81 54 45 54 46 46 45 45 46 44 48 62 71 86 99 100 100 99 87 67 59 57 51 43 36 26 16 15 12 12 10 8 6 6 5 4 4 4 5 5 5
94 86 92 57 73 50 46 41 40 39 44 54 56 62 78 93 100 91 81 69 64 66 66 54 49 40 33 25 17 13 12 11 10 7 6 5 5 4 4 4 5 5 6 6
91 92 77 57 68 54 54 54 44 51 59 55 64 83 92 92 86 75 74 72 76 75 57 52 42 32 23 17 14 11 10 8 6 6 5 4 4 4 4 5 5 6 6 6
100 91 65 62 60 67 58 50 64 69 77 87 100 100 99 93 85 77 73 85 93 73 56 51 33 23 15 13 10 10 8 6 6 4 4 4 4 4 5 5 5 5 6 5
100 75 58 60 71 56 53 71 83 86 94 100 98 98 88 76 64 88 100 98 90 68 52 37 28 13 11 10 9 7 6 5 4 4 4 4 5 5 6 6 6 5 5 5

GFSCGP_250_rhum_030.txt.gz
RH
57 47 55 47 30 23 20 22 19 16 18 14 12 12 13 13 13 14 15 16 17 15 16 15 15 16 20 23 22 23 24 29 35 44 42 44 40 36 40 42 45 42 41 45
22 18 16 15 15 14 14 14 14 13 13 13 13 13 14 14 15 17 18 22 21 17 15 15 17 20 22 22 24 24 28 36 45 46 41 42 39 36 43 52 50 48 48 52
17 16 16 16 16 16 16 15 15 14 14 14 14 13 14 16 17 19 21 22 20 16 18 19 21 22 21 22 22 27 40 52 52 42 40 42 47 63 68 56 46 48 54 56
20 20 20 20 19 18 18 17 16 15 14 14 17 14 16 19 17 19 20 19 19 20 21 24 25 24 23 21 24 36 55 52 52 52 50 56 64 61 54 52 58 60 61 67
22 25 30 32 28 24 21 21 19 17 16 16 16 17 13 18 21 21 15 19 21 22 23 24 23 20 20 26 40 58 53 52 57 65 63 63 69 67 65 65 70 73 76 74
23 22 25 27 29 32 32 29 24 21 20 19 18 18 16 14 17 19 21 21 21 21 21 19 18 21 32 53 61 65 64 60 57 65 70 71 67 63 66 72 71 70 78 79
26 25 24 25 26 25 27 27 28 37 44 32 26 29 21 19 16 15 18 19 19 20 18 17 24 54 60 58 59 68 63 62 69 67 59 62 60 58 60 64 69 75 80 86
22 20 19 20 21 21 21 22 23 26 29 31 41 33 28 29 20 15 15 16 17 17 18 24 55 61 73 63 60 62 63 61 55 54 60 69 64 66 71 70 82 92 91 74
41 43 47 45 44 45 39 41 37 37 30 28 23 24 26 26 27 21 17 17 18 19 33 52 58 64 60 45 41 42 47 52 61 63 55 60 76 93 100 100 100 97 74 65
53 54 55 57 47 51 53 48 50 52 55 58 40 32 31 32 34 34 32 40 52 51 63 62 66 49 38 40 45 55 58 46 56 78 90 97 100 98 79 65 59 52 54 59
68 72 66 57 65 66 56 55 52 50 53 58 62 75 37 41 35 41 46 60 81 81 61 59 48 41 45 49 51 58 70 84 91 95 93 80 72 67 66 57 54 56 55 60
57 60 57 56 50 48 47 54 58 61 63 52 67 100 59 45 41 45 43 29 33 40 35 41 44 45 48 55 70 77 73 72 80 85 73 69 63 69 62 61 59 59 58 45
53 51 47 43 40 38 35 34 35 43 43 44 46 57 56 54 69 64 61 59 59 52 50 55 55 50 56 59 58 55 74 84 70 70 71 69 65 63 53 53 53 57 35 24
49 47 44 41 40 42 40 40 37 38 37 40 43 39 43 49 46 47 48 45 45 45 47 39 40 42 46 54 58 72 79 83 74 66 70 63 56 50 45 50 54 29 20 14
50 52 53 55 55 52 52 48 42 39 32 28 30 33 32 36 39 43 37 45 45 48 50 46 45 52 61 82 100 95 81 79 88 75 66 60 51 54 50 43 25 17 13 12
56 58 56 56 56 54 55 59 51 43 37 33 30 30 34 38 45 41 47 56 59 57 48 54 60 72 92 100 96 88 91 100 77 67 61 45 49 47 30 19 14 11 10 10
60 62 63 65 58 70 64 71 68 62 46 40 40 40 39 42 42 39 58 58 50 50 55 61 74 90 99 100 100 97 82 76 68 53 49 38 30 19 14 11 9 9 8 6
62 64 71 71 58 76 65 62 66 55 48 52 44 43 40 36 36 38 43 39 42 55 66 72 79 94 100 86 84 85 77 62 59 53 44 29 18 14 10 9 8 6 5 5
72 69 65 58 61 72 66 64 85 75 51 54 53 43 41 40 39 44 50 56 58 58 84 99 100 92 78 85 76 68 59 61 40 39 22 12 9 9 8 7 6 5 5 4
78 71 65 69 69 67 62 61 64 61 53 50 50 51 54 50 55 66 74 76 85 100 100 98 89 88 78 78 73 64 63 41 25 20 10 9 8 6 5 5 5 4 4 4
82 81 90 83 78 70 63 62 76 52 44 49 46 51 50 48 53 65 74 87 100 100 88 77 74 75 78 82 76 58 47 29 22 17 9 8 6 5 4 4 4 4 4 4
75 79 78 70 68 62 54 52 52 52 46 47 49 48 46 54 65 70 83 91 93 87 89 79 77 85 97 83 64 47 35 20 15 10 9 6 5 5 4 4 4 4 5 5
58 62 50 53 66 64 51 37 36 38 42 42 42 46 52 62 76 91 98 99 98 94 74 78 97 98 82 67 50 37 19 14 9 8 6 6 5 4 4 5 5 5 5 5
74 71 57 52 69 70 57 49 46 44 42 43 46 55 69 90 93 96 93 88 83 76 82 100 94 73 67 52 42 23 16 9 8 6 5 5 4 4 5 5 5 5 6 6
98 90 85 71 69 68 54 54 49 48 47 50 63 82 92 87 98 100 100 83 76 86 96 90 70 51 44 41 29 15 9 8 6 5 4 4 4 5 5 5 5 5 6 6
100 100 90 55 66 62 64 62 63 61 66 79 95 94 94 98 100 88 80 80 96 94 90 66 57 46 38 29 16 9 8 6 5 4 4 4 5 5 6 6 6 6 6 6

GFSCGP_250_rhum_033.txt.gz
RH
35 46 45 47 48 48 48 52 56 55 44 40 25 18 17 15 15 13 12 13 13 14 15 16 16 16 14 16 17 19 20 21 23 23 26 36 41 35 32 34 39 44 46 51
76 60 51 56 54 47 40 35 23 20 17 16 16 14 14 13 13 14 14 13 13 15 16 17 16 16 18 23 24 27 27 25 23 21 30 38 38 36 43 44 40 42 44 48
63 42 28 21 18 16 16 16 15 15 15 14 14 13 14 15 13 15 16 19 15 17 17 15 16 18 19 21 24 26 26 21 20 27 40 45 46 49 49 46 46 51 53 54
20 20 20 20 19 18 19 17 17 17 16 16 16 15 15 16 15 14 16 18 19 20 19 19 21 19 20 21 22 20 19 21 37 52 53 48 47 45 43 44 49 51 58 52
23 21 19 18 17 21 25 20 22 21 21 19 18 18 19 17 19 20 22 14 14 17 19 21 21 21 23 23 20 19 21 44 64 58 45 43 43 46 48 52 61 64 63 64
22 19 18 18 20 23 26 27 28 30 32 29 28 25 24 20 19 20 22 21 17 16 16 17 18 19 20 20 19 19 43 49 49 39 39 44 51 55 62 71 74 86 90 74
20 20 22 22 20 23 23 24 25 26 27 30 30 27 19 20 18 20 24 22 19 19 18 16 16 16 17 19 28 59 66 62 44 45 44 49 54 56 61 70 68 55 50 62
22 21 22 25 30 30 34 36 39 39 40 42 29 32 39 37 20 16 16 15 15 17 16 16 19 27 35 45 46 53 52 46 44 39 47 60 65 61 60 69 89 95 88 84
43 46 50 50 50 45 46 46 44 44 47 41 27 45 52 52 45 33 26 23 27 33 33 28 35 42 50 44 43 43 46 43 41 51 61 64 71 87 97 100 97 89 84 70
54 53 58 56 52 49 42 51 58 64 72 73 60 48 52 59 57 59 52 50 46 49 51 57 44 44 41 48 49 52 53 56 57 61 72 87 95 100 100 99 83 70 68 67
66 67 69 57 47 47 50 50 49 51 52 49 51 52 44 41 42 43 50 49 59 61 60 58 65 60 58 56 50 45 52 66 78 75 74 78 90 94 86 86 82 72 65 59
55 54 54 51 47 44 42 40 38 35 34 31 35 44 39 36 38 31 27 31 29 33 39 40 38 37 53 74 90 90 77 56 59 64 71 83 89 89 93 70 55 56 59 54
54 52 50 46 45 39 36 42 49 52 63 73 57 54 32 35 38 35 43 39 44 45 41 41 50 69 87 86 66 49 54 57 62 75 83 93 78 58 56 55 58 50 33 21
50 48 52 59 63 62 60 56 52 49 50 52 52 48 43 45 37 47 43 36 37 38 36 32 34 37 40 41 45 51 56 71 95 99 90 69 65 65 54 54 52 46 31 22
52 61 60 59 59 57 54 56 54 50 49 43 44 41 43 43 47 42 36 35 36 38 38 40 47 55 56 55 60 74 96 95 92 84 74 67 54 59 71 64 51 29 20 10
45 53 63 64 64 62 63 55 50 50 55 61 59 57 48 39 39 42 44 42 40 41 43 48 52 60 75 84 100 100 100 83 73 63 59 56 54 51 44 32 15 12 10 7
48 54 64 70 71 64 59 67 73 74 64 64 57 60 57 44 42 44 44 47 52 45 45 58 73 81 93 94 98 80 79 74 71 71 57 46 42 34 15 8 7 6 6 5
65 71 74 76 70 79 70 81 88 87 70 74 60 54 50 44 40 45 47 48 46 48 55 68 77 83 95 95 84 78 80 74 70 55 41 37 30 15 9 6 5 4 4 4
82 80 71 66 74 82 76 86 91 83 73 64 57 48 40 37 40 43 43 44 48 60 72 86 95 100 98 82 82 72 62 63 61 44 34 30 20 10 7 7 5 4 4 4
100 83 62 55 56 61 56 59 60 51 50 53 56 49 42 48 50 54 58 56 62 83 94 100 100 93 80 77 69 64 67 61 55 35 30 25 11 8 6 5 4 4 4 4
74 72 81 74 72 65 60 66 74 54 46 48 50 46 51 50 51 54 60 70 80 89 100 98 91 87 80 72 79 75 63 51 36 28 23 12 8 6 5 5 4 4 4 4
97 99 96 82 74 62 67 79 81 60 53 48 46 48 46 54 61 70 70 72 81 80 82 84 90 83 82 73 66 70 49 31 23 21 12 8 6 5 5 4 4 4 4 5
100 100 80 82 81 60 71 79 84 65 45 46 55 54 59 63 67 67 73 74 70 85 83 83 83 80 73 67 62 52 42 30 23 10 8 7 5 5 4 4 4 5 5 5
94 84 83 77 82 73 70 83 70 54 49 53 56 62 65 72 71 76 80 81 81 82 93 91 81 72 66 69 54 46 32 22 12 8 7 5 5 4 4 4 5 5 6 5
100 92 80 75 75 52 60 64 56 47 56 63 73 74 72 77 95 99 88 79 80 87 85 87 86 74 64 54 44 31 23 15 8 7 6 5 5 4 4 5 5 5 6 6
100 100 94 97 91 73 83 82 66 65 73 82 85 83 91 98 96 86 90 92 86 83 89 74 76 63 49 40 31 23 15 8 7 6 5 5 5 4 5 6 6 6 6 6

GFSCGP_250_rhum_036.txt.gz
RH
40 45 46 51 52 53 54 48 44 43 47 41 38 42 51 40 40 38 29 21 18 16 16 13 13 16 18 28 42 27 37 66 75 41 27 26 24 22 19 28 42 44 41 38
27 26 28 31 34 39 46 52 49 52 51 46 46 38 30 28 21 16 14 15 14 13 13 14 15 19 18 19 22 17 16 17 18 21 22 23 22 18 28 41 44 35 32 32
75 66 64 57 55 48 47 47 42 33 25 20 17 15 14 15 14 17 19 17 15 13 14 15 16 17 17 18 20 20 19 19 20 21 22 19 17 27 43 45 37 34 33 33
79 60 40 35 20 19 18 18 17 17 16 16 17 16 16 16 16 18 18 17 17 16 17 16 15 15 16 17 17 17 17 19 20 20 18 17 32 53 62 47 41 38 36 39
21 20 19 19 20 20 19 20 20 20 19 20 19 19 19 19 18 20 18 18 19 19 19 18 17 16 15 15 14 15 16 17 17 17 21 47 70 66 55 48 46 44 44 53
21 22 22 22 25 29 28 26 26 26 27 25 20 21 25 24 28 31 37 34 28 27 33 28 26 23 18 17 17 16 17 22 33 49 63 68 58 58 57 57 55 58 73 72
23 25 27 24 23 23 23 22 21 19 19 19 27 27 28 22 21 27 31 31 34 33 36 34 29 21 20 24 32 36 46 55 54 55 53 54 57 57 51 47 51 55 49 49
26 24 24 23 30 35 47 44 49 46 38 34 35 42 34 26 25 27 32 47 48 47 50 53 44 41 52 52 53 58 55 58 62 63 64 54 43 42 62 61 55 70 90 99
34 39 49 44 49 53 49 46 48 51 44 51 52 57 60 57 56 51 43 40 40 37 39 35 32 28 32 40 42 47 47 45 47 53 58 79 78 60 62 91 95 95 91 74
45 48 53 56 53 53 58 56 56 55 51 42 39 41 39 37 34 31 33 33 31 29 27 28 29 34 35 37 37 38 43 60 73 69 60 64 75 78 74 82 89 74 58 52
60 58 62 64 62 55 51 48 44 43 49 43 37 34 32 38 36 34 34 37 40 35 32 32 36 36 38 40 40 39 39 46 53 72 80 74 72 78 69 56 56 50 44 45
59 59 58 55 51 47 44 51 55 47 36 35 38 41 44 40 40 37 37 34 34 35 36 37 37 36 37 42 44 43 49 66 71 69 74 73 62 52 51 51 50 49 43 40
60 57 54 51 47 52 53 51 49 53 63 61 53 53 47 42 40 41 36 38 38 39 40 42 42 42 42 41 41 44 51 59 61 63 58 52 56 64 64 55 51 43 47 42
59 52 49 48 53 58 58 61 58 58 56 54 47 57 56 61 58 59 57 51 44 40 40 42 41 43 43 43 46 53 62 66 65 72 73 82 69 58 65 54 48 46 32 22
54 48 48 54 63 65 65 62 57 49 47 48 48 50 58 65 60 55 52 50 42 42 46 47 48 46 45 50 60 76 81 90 92 84 73 81 92 71 52 44 38 28 18 12
55 51 46 51 61 68 63 58 49 54 57 58 62 68 60 56 52 50 48 43 38 42 47 47 47 50 58 70 81 86 91 74 78 99 99 80 69 53 39 32 23 14 8 6
54 58 66 72 75 68 61 55 50 60 65 64 68 62 58 50 46 43 42 41 44 49 49 52 62 70 74 71 70 66 81 94 94 88 82 67 53 38 22 15 12 7 6 5
57 62 68 90 83 56 58 59 65 76 86 80 71 61 55 56 53 49 45 48 50 57 63 66 71 71 67 72 76 82 92 88 90 92 68 45 40 26 20 12 7 6 5 4
68 97 100 100 69 62 68 90 76 82 88 85 85 80 73 56 54 51 57 62 72 76 81 84 74 73 82 86 90 90 85 98 96 66 48 44 32 22 16 9 6 6 4 4
96 69 76 80 72 78 79 94 87 80 81 91 74 69 76 64 64 62 65 70 74 76 77 75 76 80 87 82 85 93 89 68 57 45 45 36 21 14 9 6 6 5 4 4
98 91 90 68 69 70 61 79 70 68 74 62 54 66 73 77 67 66 72 75 80 75 76 72 79 81 80 81 85 78 68 54 45 48 39 27 17 9 6 6 5 4 4 4
99 100 100 88 75 74 78 74 65 71 85 67 65 72 84 72 65 71 75 78 73 72 69 75 82 85 79 78 70 64 54 48 45 41 35 20 10 7 6 5 4 4 4 4
100 96 96 93 92 87 93 80 68 76 76 75 85 80 71 68 67 66 67 65 64 66 71 82 85 83 74 66 61 56 55 47 42 31 18 10 7 6 6 5 5 4 4 5
100 100 100 84 96 94 80 65 64 76 73 76 84 73 65 66 64 67 62 62 74 79 92 90 89 78 63 70 66 57 48 39 25 18 10 8 7 6 5 5 5 5 6 5
100 87 78 77 84 83 71 74 85 78 75 71 66 65 68 65 64 62 71 79 83 92 92 89 80 64 67 62 53 44 37 24 18 11 8 7 6 5 5 4 5 6 6 7
91 81 77 80 73 72 82 82 83 80 78 73 70 68 69 69 70 73 86 93 97 94 86 67 58 60 52 42 36 32 21 16 11 7 6 6 5 5 5 5 6 6 7 8

GFSCGP_250_rhum_039.txt.gz
RH
93 87 88 81 76 76 71 81 97 99 99 100 98 97 88 91 93 82 68 52 42 36 35 24 20 21 30 24 24 70 86 71 73 74 99 100 100 64 24 19 19 19 18 18
28 44 54 63 64 64 51 53 55 55 53 65 75 73 58 44 43 38 34 28 22 21 15 15 16 16 20 49 34 22 23 21 18 18 19 17 17 18 19 19 19 19 20 36
27 34 38 42 37 34 34 35 39 46 46 48 45 40 29 21 17 15 15 15 14 14 14 16 16 18 18 18 19 19 18 18 18 18 18 17 16 15 16 18 21 36 48 50
48 47 54 61 59 54 54 48 47 44 38 30 23 16 16 17 18 17 17 16 16 16 17 18 18 17 17 18 18 17 16 15 16 16 15 15 16 22 35 41 36 36 39 37
78 74 61 61 52 39 26 21 19 18 17 16 17 17 18 19 19 20 22 23 24 25 25 26 26 23 21 20 18 16 17 19 18 18 24 34 38 36 36 44 51 49 54 60
41 33 24 22 22 21 20 21 23 23 22 20 20 21 26 25 28 30 35 42 37 41 44 40 43 40 30 28 27 32 32 34 40 44 47 49 49 53 56 54 54 67 83 88
24 22 21 20 19 19 20 19 20 19 22 21 21 22 28 42 51 49 54 60 57 51 51 53 52 49 45 44 41 41 44 49 52 49 51 53 57 58 52 60 75 66 55 56
22 19 20 25 25 23 22 28 33 40 41 45 39 44 42 40 42 49 48 46 46 45 44 46 45 44 40 33 32 35 33 34 38 41 41 41 46 49 51 44 53 69 59 53
21 23 30 36 49 56 55 58 52 47 45 40 41 41 39 39 37 36 36 36 37 40 41 42 38 35 36 34 37 41 43 43 41 41 42 43 40 43 49 51 51 52 58 64
46 61 66 68 67 60 53 50 44 43 41 43 42 42 43 40 37 37 38 37 36 37 37 38 38 42 46 49 47 46 47 46 46 47 47 46 48 51 51 51 54 59 58 55
60 62 60 63 62 60 56 52 47 44 42 41 45 41 37 35 34 34 38 43 41 38 37 37 36 35 38 39 43 47 47 45 44 45 45 44 44 48 56 57 55 56 54 55
70 74 65 60 56 55 54 55 52 51 51 48 38 34 37 39 42 43 42 42 48 52 51 47 44 40 37 36 40 42 41 40 39 40 44 50 59 61 62 61 62 71 71 52
68 63 58 57 54 52 53 52 52 56 51 41 41 42 45 44 47 46 42 42 44 45 42 41 40 38 35 38 40 38 37 38 42 50 55 57 59 61 71 75 75 78 76 55
64 63 58 54 52 54 58 57 55 54 52 52 52 52 50 49 42 40 42 40 37 37 36 36 38 41 43 43 45 46 49 56 58 60 64 72 82 80 72 80 79 61 51 44
66 64 57 52 48 48 51 53 57 53 48 44 47 54 52 51 53 57 58 56 56 48 47 45 50 52 54 58 60 58 57 58 67 80 91 89 81 73 65 58 50 41 27 19
70 63 60 56 52 65 76 61 52 47 42 35 53 61 68 74 67 65 60 56 55 58 54 54 55 58 61 61 61 62 67 76 80 75 76 76 75 69 61 49 31 23 15 11
67 60 60 64 66 79 99 74 66 57 47 42 57 64 73 72 68 66 60 59 67 68 61 60 60 61 61 62 64 68 76 77 83 89 92 74 63 60 44 30 24 14 10 9
67 65 66 71 85 100 98 86 58 48 52 52 67 72 68 70 76 66 62 70 69 63 65 63 65 64 63 64 66 74 79 92 100 91 64 61 55 45 29 22 16 11 9 7
73 74 80 100 97 70 91 71 52 47 62 62 75 85 66 60 65 61 50 53 64 71 64 63 64 67 65 66 76 85 95 100 96 75 63 57 38 29 20 14 10 8 7 6
75 100 99 89 75 82 100 61 56 63 71 81 88 87 72 71 78 74 64 66 70 66 66 70 68 68 78 82 81 92 98 98 88 64 58 43 26 21 15 11 9 7 6 5
71 91 98 85 93 98 81 60 80 87 87 86 95 84 84 89 72 59 57 71 78 72 76 77 75 82 80 81 91 99 91 69 64 60 47 34 22 16 10 9 7 6 5 5
82 76 83 100 100 90 86 85 95 88 83 84 78 89 96 95 77 71 78 90 84 80 78 75 83 92 85 92 99 95 83 64 59 53 36 24 15 10 9 8 6 5 5 5
85 98 100 100 100 100 98 92 91 81 85 96 89 91 99 94 81 83 85 80 79 76 81 88 96 90 91 97 94 87 68 58 60 49 33 16 11 9 8 6 5 5 5 4
85 100 100 98 97 85 69 77 85 84 87 77 79 87 100 89 80 77 78 80 82 89 92 89 85 88 99 89 77 64 60 60 51 32 17 11 10 8 6 5 5 5 4 5
99 100 96 80 84 81 91 92 86 85 79 75 72 84 85 79 80 88 85 90 90 83 82 88 95 92 76 68 63 58 60 49 34 16 12 11 8 6 5 5 5 4 5 6
100 94 72 90 99 93 92 94 88 74 72 71 66 93 94 90 96 97 94 89 83 87 89 90 87 81 78 66 61 58 39 29 17 13 12 9 6 5 5 5 4 5 5 6

GFSCGP_250_rhum_042.txt.gz
RH
100 98 94 87 80 86 91 98 100 100 100 100 100 100 100 99 94 88 97 97 92 76 70 60 42 29 21 20 18 38 90 100 84 88 73 81 85 79 28 26 20 22 22 21
89 100 98 92 91 86 85 84 94 97 95 89 86 93 86 83 85 79 79 69 63 47 27 18 17 16 16 45 72 63 58 60 46 38 30 52 21 21 19 18 18 18 19 19
90 78 75 66 62 74 75 69 65 60 59 60 52 52 49 46 41 34 25 21 17 16 16 18 19 20 19 18 19 19 18 17 17 17 18 21 22 20 18 18 21 23 27 35
23 23 24 28 39 42 38 39 40 39 40 44 46 42 36 30 23 19 17 16 16 18 20 22 22 21 21 23 25 27 27 26 25 26 29 29 21 22 32 46 53 53 47 40
47 59 60 52 49 51 50 48 51 49 41 24 19 19 19 18 18 18 19 21 21 19 22 26 32 37 37 42 45 44 43 46 48 46 39 42 40 40 37 34 32 32 33 33
59 61 60 59 53 50 43 30 21 19 19 20 21 23 24 25 26 26 24 28 40 46 46 48 43 43 40 35 33 32 32 31 29 30 30 29 30 30 31 32 32 33 36 37
62 44 33 29 24 23 24 24 25 23 22 21 20 21 23 25 32 41 43 46 46 38 34 33 33 36 36 33 35 37 37 38 37 33 32 36 41 43 40 38 38 38 37 37
25 24 24 25 24 22 20 18 18 23 26 30 32 34 35 40 41 43 40 39 44 46 48 48 47 47 51 52 48 46 43 41 41 43 46 45 41 40 40 36 35 41 50 61
25 25 24 22 20 20 22 29 41 43 40 37 34 35 36 38 40 45 51 53 49 45 51 54 51 47 47 47 45 44 42 38 36 38 41 46 53 53 54 58 66 68 67 72
23 22 20 22 32 39 48 45 43 39 37 40 43 46 44 45 45 43 40 37 39 42 43 46 51 56 52 46 44 42 41 40 43 52 58 55 52 57 64 67 65 61 57 53
27 28 32 48 55 52 48 46 44 41 44 49 51 49 46 45 42 38 39 43 48 50 49 50 48 47 47 45 42 42 47 54 58 57 55 59 64 62 58 56 53 53 52 51
42 44 56 61 57 54 51 49 49 48 47 47 51 48 46 41 39 40 44 44 40 38 47 49 49 48 47 46 44 42 47 50 49 52 55 55 58 54 52 51 53 52 52 53
45 47 56 57 58 57 56 54 54 53 50 46 45 46 41 37 38 47 50 47 46 44 41 41 38 40 44 42 41 43 46 51 54 53 53 52 53 51 53 58 65 67 59 56
64 68 60 62 60 58 58 58 55 50 51 52 46 40 34 36 41 50 48 44 46 50 51 50 48 49 50 49 51 51 50 48 48 50 50 48 57 62 71 80 82 69 61 54
71 68 67 65 60 56 55 54 49 57 60 54 44 40 39 46 51 45 41 48 60 62 60 56 56 58 55 51 50 45 43 46 50 51 55 64 74 83 85 89 85 71 57 39
75 73 71 69 60 61 61 63 71 69 64 58 50 43 50 52 58 55 55 67 72 70 66 62 56 58 52 50 48 46 46 52 61 64 70 74 82 84 91 86 76 57 40 21
86 90 82 72 56 61 82 72 80 63 66 54 46 49 59 74 77 65 62 69 80 90 90 70 58 55 48 50 54 56 65 68 74 74 80 88 94 99 95 76 53 34 20 14
95 88 80 73 67 77 93 100 75 69 64 65 52 66 69 89 72 72 66 74 79 98 85 62 57 56 59 66 70 76 71 77 82 78 85 95 100 99 72 62 37 22 14 10
88 83 75 79 86 90 100 100 73 63 83 66 75 74 92 85 83 80 75 68 75 95 77 67 65 70 77 79 78 75 81 90 89 96 95 100 99 74 61 37 25 15 10 10
73 78 78 90 89 100 100 85 77 78 100 90 76 86 89 99 86 93 80 76 81 89 81 76 83 86 82 78 79 78 89 97 93 93 96 96 68 57 38 26 15 10 10 8
67 75 87 94 85 100 99 86 100 100 88 85 88 88 98 95 86 84 81 85 90 87 86 97 93 87 81 85 82 87 94 96 93 82 82 62 45 36 24 16 11 10 9 6
80 80 80 78 76 64 67 91 99 92 88 84 85 92 100 100 100 87 74 81 84 85 99 95 87 83 84 85 84 90 91 83 78 67 56 34 32 24 16 11 10 9 7 6
83 83 90 95 79 71 88 100 100 98 85 96 100 100 98 98 96 87 71 81 80 96 90 90 89 83 87 85 87 90 81 82 75 57 44 28 23 16 12 10 10 7 6 6
93 99 97 81 92 93 100 100 93 85 93 95 83 91 92 79 88 91 78 78 82 92 92 86 87 90 86 81 81 81 80 77 67 51 38 24 19 13 10 10 9 6 6 5
100 94 77 94 100 100 100 100 99 90 73 78 100 96 91 90 100 90 80 82 89 85 80 82 88 83 80 82 81 80 75 60 50 36 23 19 15 11 10 10 7 6 5 6
100 100 100 100 99 98 100 98 83 80 88 100 100 100 100 100 86 84 93 93 86 79 84 87 80 80 82 78 79 68 52 47 35 20 18 15 12 10 10 8 6 6 5 6

GFSCGP_250_rhum_045.txt.gz
RH
98 90 97 98 92 96 100 100 100 100 100 100 100 100 100 100 100 81 94 92 68 87 93 97 88 76 64 40 30 23 25 100 89 100 87 83 58 76 100 93 96 49 30 40
100 94 99 96 86 85 91 100 100 100 100 100 100 99 95 93 94 98 95 99 99 82 67 69 47 31 21 18 17 18 18 28 52 63 69 38 25 36 71 52 62 25 23 29
100 99 100 98 97 90 88 90 90 90 88 94 99 96 84 83 78 76 71 65 59 54 38 21 17 17 19 22 27 28 30 31 31 36 41 46 54 58 50 43 40 46 48 51
100 100 100 100 96 100 93 78 83 81 80 76 69 60 61 64 58 52 45 37 24 18 18 21 27 37 36 43 44 47 49 49 49 47 41 41 41 41 39 36 35 35 38 40
80 66 43 32 29 34 37 52 57 53 48 45 43 40 42 43 36 23 18 19 20 22 24 32 48 53 48 41 38 36 37 41 42 39 38 36 36 37 38 42 43 43 42 40
29 30 35 37 47 48 46 51 52 48 43 39 37 24 20 19 22 24 24 24 32 44 51 46 39 38 41 42 44 45 45 44 43 41 42 42 40 37 35 35 35 36 41 44
66 63 62 61 60 59 58 47 34 25 21 21 23 24 25 24 24 35 46 49 45 39 38 38 39 43 45 46 46 44 45 44 44 42 40 37 36 35 32 33 40 44 47 52
64 65 55 37 27 22 22 21 21 21 21 21 24 36 53 55 53 46 44 42 41 44 47 44 41 41 42 43 44 45 44 42 39 36 35 33 33 34 40 45 53 60 65 65
36 25 24 26 27 28 26 25 22 23 36 50 54 46 44 42 41 42 44 45 45 45 42 40 41 43 44 46 48 48 48 49 49 42 37 38 43 53 62 65 65 66 62 58
26 26 24 22 27 30 30 34 44 48 45 44 41 40 43 44 46 47 48 48 43 43 48 46 45 48 50 50 47 47 48 49 49 49 52 52 54 56 58 59 58 56 56 59
27 24 24 28 38 42 53 52 50 45 40 44 44 44 49 49 46 44 41 41 48 52 48 52 61 61 55 57 52 52 55 55 55 54 52 53 50 45 47 49 54 68 68 72
29 31 40 52 52 53 52 48 46 47 48 49 51 48 48 47 44 38 41 47 46 48 50 54 63 64 79 67 58 64 67 59 57 56 48 40 44 47 53 59 76 71 74 70
40 43 48 53 51 44 51 50 50 49 49 52 46 55 52 49 42 43 45 44 42 50 52 54 60 77 80 71 59 55 54 50 47 44 38 49 55 55 66 75 71 67 62 60
45 45 54 58 55 56 56 55 52 48 46 48 50 66 53 59 47 43 42 43 47 54 50 56 56 58 68 66 58 54 53 53 50 42 51 57 58 65 76 73 74 77 76 64
59 63 64 62 65 64 62 59 55 58 58 65 68 68 48 54 52 49 50 48 54 64 67 59 58 59 56 62 57 50 49 48 46 47 55 63 64 76 77 82 82 86 74 64
76 83 71 68 70 71 70 67 62 66 71 77 77 72 62 66 59 61 54 50 56 63 71 74 70 58 56 56 54 54 58 51 52 58 64 69 74 83 81 92 96 88 56 34
75 72 75 77 80 80 87 68 75 75 77 81 97 78 74 91 87 76 52 58 74 88 89 94 87 66 57 59 61 65 58 55 60 69 70 75 86 88 96 96 80 62 38 19
75 86 92 92 85 91 93 92 73 70 81 99 89 77 85 88 81 67 67 78 78 79 93 93 83 76 65 67 57 59 60 66 75 76 83 89 88 92 93 75 60 41 20 15
76 86 92 99 89 95 100 98 82 69 89 80 77 90 96 91 92 89 81 80 82 87 98 90 83 81 79 69 65 65 73 78 81 85 91 93 89 90 84 58 30 23 15 13
69 77 87 98 97 100 100 100 88 82 94 100 100 100 99 95 92 86 85 84 90 98 97 91 85 86 83 77 78 84 82 81 82 93 94 87 88 82 64 32 20 16 13 10
54 59 72 77 81 89 91 88 92 95 98 100 100 100 100 97 86 85 87 69 88 99 98 88 96 94 88 80 83 82 82 81 93 92 89 87 77 56 30 22 22 14 12 10
58 60 70 79 83 77 82 90 97 93 80 83 100 100 97 86 89 95 81 84 95 97 97 100 99 92 79 80 84 85 79 90 95 93 89 78 58 34 24 20 16 13 11 9
77 75 77 74 72 65 69 77 80 73 96 100 100 94 89 94 97 67 65 95 100 100 100 100 97 78 75 78 85 82 84 94 90 88 80 57 44 31 24 18 12 11 10 9
90 87 88 78 80 71 73 70 76 100 100 100 96 90 88 74 70 77 93 100 100 100 100 98 79 74 77 85 86 84 94 94 82 74 62 52 49 34 20 13 12 10 9 10
100 95 84 95 100 100 100 100 100 100 95 92 86 72 69 73 76 91 100 100 97 91 92 80 73 76 84 88 89 93 98 84 73 60 48 44 38 27 15 13 11 9 9 9
100 100 100 100 100 100 100 100 99 94 85 72 74 74 74 86 90 89 86 90 89 88 82 84 88 90 90 96 92 93 85 73 58 42 34 27 23 15 13 11 9 8 9 8

GFSCGP_250_rhum_051.txt.gz
RH
100 100 100 100 94 94 96 95 98 100 100 100 100 100 100 94 71 62 80 100 100 98 93 100 100 100 100 100 94 96 87 92 100 77 35 20 19 21 21 61 100 100 90 81
98 84 87 95 84 90 93 100 100 97 100 100 100 90 75 100 100 100 100 100 100 100 100 100 100 98 88 75 73 75 88 54 30 20 23 29 33 36 36 37 37 50 72 74
100 100 100 88 85 73 77 100 100 100 100 100 99 100 100 100 100 99 98 100 100 95 84 63 57 67 73 80 84 41 26 24 29 29 28 27 27 27 28 29 29 31 33 37
100 100 99 78 82 81 78 100 93 100 100 100 100 100 100 100 100 100 100 90 62 53 69 97 95 90 58 26 29 29 30 30 31 30 31 31 30 28 30 31 34 37 45 44
100 100 97 94 100 98 89 92 100 100 100 100 100 100 96 99 92 90 91 96 95 92 77 58 25 22 28 30 32 35 35 33 33 33 37 37 36 35 32 31 32 34 34 36
98 93 90 99 100 98 100 100 99 95 84 86 84 84 88 88 82 79 75 62 46 29 20 24 31 31 33 37 37 37 37 38 38 40 42 44 49 53 54 52 43 40 39 39
100 100 100 100 100 100 100 100 100 98 95 86 72 64 57 58 43 34 29 23 23 31 35 32 35 39 40 42 41 39 38 41 41 44 46 53 55 57 59 63 60 52 48 46
95 100 92 84 89 95 86 59 55 50 51 53 52 46 36 28 24 22 28 37 36 37 40 42 39 39 43 39 37 39 41 43 52 63 72 65 52 49 49 47 51 55 55 52
77 70 71 63 55 55 59 49 46 41 37 37 30 24 24 30 38 39 39 40 42 47 41 38 44 47 40 35 40 44 49 57 57 58 56 60 64 67 70 70 60 54 54 52
50 64 66 60 56 55 54 47 42 34 28 28 29 39 49 44 40 41 46 49 51 45 40 44 44 39 38 39 46 47 44 40 44 49 55 62 71 78 81 76 72 68 61 56
69 66 58 51 48 40 28 30 31 30 29 42 62 55 44 45 49 54 55 52 52 44 44 43 38 42 43 46 48 44 41 52 49 46 53 70 73 77 77 72 64 68 64 60
65 62 49 30 28 30 31 30 28 42 60 58 51 54 53 59 60 59 56 60 59 52 50 45 46 44 47 49 53 52 53 59 60 55 56 62 75 84 81 69 68 71 65 65
52 29 28 28 26 27 29 41 63 64 56 51 52 49 61 64 59 62 63 67 69 60 54 51 54 56 62 62 61 56 61 65 63 58 54 64 81 83 80 69 75 74 71 61
30 30 29 26 26 58 68 72 63 58 58 54 62 47 52 54 54 58 62 68 66 54 58 62 69 71 75 75 60 61 64 68 64 57 64 70 84 82 74 77 80 78 66 60
33 33 29 34 60 70 68 66 62 60 56 64 54 54 45 62 68 74 83 72 69 69 76 78 74 82 95 75 69 76 82 74 61 58 65 74 79 83 81 85 83 71 62 71
37 39 37 54 67 75 73 71 61 59 60 64 60 65 47 65 74 77 82 72 66 72 77 75 79 100 94 80 86 84 83 65 58 66 71 71 88 88 84 87 80 67 72 82
40 43 47 60 72 77 78 65 61 64 67 67 72 74 79 79 70 65 66 68 73 75 73 78 100 96 91 91 82 89 67 57 64 71 72 87 91 87 89 81 74 72 83 98
44 49 56 59 70 89 81 68 67 69 72 68 78 79 86 85 74 73 66 72 73 66 68 96 93 80 77 81 86 69 57 63 72 78 87 85 90 92 82 75 73 79 95 87
48 56 64 72 78 96 92 83 68 73 78 79 85 89 79 69 62 62 67 62 64 74 100 98 84 84 82 72 64 58 67 72 82 87 81 85 87 75 75 75 80 91 86 82
52 61 71 78 75 84 92 83 81 77 70 90 79 70 63 64 68 61 64 67 79 100 99 92 83 72 67 57 58 66 72 86 80 78 88 79 75 77 78 82 92 93 81 46
56 65 68 65 64 69 74 72 77 83 84 78 74 71 72 72 75 75 77 95 100 100 89 68 64 60 57 64 66 79 87 78 84 84 79 75 74 82 89 93 90 80 41 28
54 63 63 55 58 64 63 60 77 75 68 70 74 80 84 83 85 91 100 100 98 76 68 70 70 70 71 72 84 84 77 80 78 76 70 74 86 88 90 91 70 35 22 15
60 59 63 61 52 54 57 60 68 76 79 83 85 88 92 92 100 100 100 91 71 70 80 71 69 71 78 81 79 72 68 66 70 77 75 84 90 95 93 57 31 25 17 13
67 67 64 57 56 57 61 70 86 94 98 100 100 100 100 100 99 96 78 75 83 73 64 73 77 79 79 74 67 64 70 71 71 83 97 100 100 86 53 31 20 15 12 12
86 74 69 65 67 76 88 99 97 100 100 100 98 89 87 87 92 85 78 65 67 76 80 79 77 76 71 68 68 69 69 82 94 100 100 96 69 42 26 22 16 13 11 9
96 92 89 88 97 99 100 100 96 86 79 82 93 100 98 95 89 72 68 74 76 76 78 74 74 67 64 66 74 83 89 91 96 95 84 53 32 26 18 13 12 10 9 8

GFSCGP_250_rhum_054.txt.gz
RH
98 100 100 100 100 96 96 95 87 88 100 100 100 100 100 100 100 100 100 100 100 98 89 81 73 58 65 84 100 100 100 100 97 85 68 72 75 47 31 26 30 38 36 34
90 100 100 96 95 100 89 80 94 100 98 100 100 100 100 100 100 100 94 68 81 91 77 80 100 100 100 100 100 100 93 85 84 72 66 54 27 26 26 26 25 24 26 26
72 100 87 83 91 87 84 100 100 100 100 100 100 100 100 100 92 67 90 100 100 100 100 100 100 100 98 93 83 74 63 69 70 59 26 27 26 25 26 27 30 28 33 38
85 71 93 100 98 88 92 93 58 100 100 100 100 100 100 100 100 100 100 100 100 100 99 88 98 98 76 56 55 79 58 35 25 26 26 25 25 26 26 27 30 35 42 45
90 74 79 90 96 86 70 57 56 98 98 79 88 84 100 100 91 80 88 77 83 90 91 89 94 84 87 63 43 26 26 29 26 24 26 27 28 34 40 47 52 58 64 69
100 93 99 100 81 76 68 75 100 93 100 100 100 88 100 100 100 94 98 99 95 82 76 70 55 42 28 27 30 29 27 26 28 28 32 38 44 46 47 50 53 57 60 64
85 84 99 82 97 83 87 95 100 100 96 92 100 100 82 100 100 100 90 81 63 46 37 27 23 29 33 30 27 28 29 32 35 38 48 46 45 46 44 43 46 50 55 64
92 89 99 100 100 100 100 100 100 100 99 100 100 100 86 89 77 63 49 36 26 23 25 35 34 33 30 30 32 34 34 35 40 44 45 41 48 50 47 46 52 57 61 64
100 100 96 100 100 100 100 99 100 99 93 83 79 71 58 43 37 32 26 26 32 36 34 32 34 33 36 37 41 38 38 40 43 44 44 50 48 48 51 54 48 48 59 66
90 95 74 87 87 90 95 98 79 64 53 49 49 40 36 26 25 32 37 38 36 34 36 40 40 39 38 46 46 43 42 46 48 47 44 45 45 49 59 52 49 57 66 71
69 61 66 61 53 64 69 58 54 53 52 47 38 29 28 30 50 45 42 40 42 43 48 53 50 48 47 51 56 54 52 55 55 45 47 50 56 54 59 54 52 64 72 75
63 82 80 60 62 55 53 58 56 38 28 28 28 29 35 50 46 42 43 49 47 49 58 66 66 64 63 58 53 54 62 62 58 67 66 69 75 82 74 57 62 70 76 73
88 84 73 60 57 55 46 32 29 30 31 33 44 45 50 45 46 49 50 53 50 50 56 64 60 56 54 51 50 62 78 92 92 89 83 70 73 73 58 61 70 74 68 71
97 80 64 60 48 33 29 26 28 31 51 42 60 45 58 55 57 61 62 53 53 53 53 54 57 58 60 63 67 70 96 91 87 66 62 64 59 54 59 68 72 65 70 72
82 74 64 32 30 28 27 29 42 68 60 58 50 49 53 56 66 65 59 69 52 58 58 52 53 61 69 77 75 84 90 81 63 61 60 54 53 64 68 74 69 69 70 66
80 58 34 34 31 30 36 59 65 61 57 61 57 57 57 58 63 65 74 66 86 68 72 64 66 67 70 74 88 87 75 66 62 57 54 62 65 68 75 72 69 66 63 68
77 41 37 39 37 35 76 57 62 65 64 57 62 67 64 65 74 67 69 58 71 62 60 65 65 65 64 83 92 76 68 60 54 57 65 68 73 78 71 70 65 61 71 80
60 36 44 45 41 52 48 51 54 67 64 57 68 74 74 74 81 71 75 84 76 72 69 67 66 61 86 92 72 65 57 55 63 71 74 76 77 75 67 67 64 71 77 95
53 42 47 46 48 56 53 56 57 69 66 68 79 70 67 77 73 68 77 77 69 68 68 69 70 95 92 78 71 62 67 71 73 75 80 75 73 73 67 68 72 74 93 87
63 47 49 48 49 62 61 72 59 62 64 90 84 82 76 71 79 70 70 71 69 75 78 81 97 87 83 83 73 74 71 73 78 82 77 79 76 76 70 70 73 88 86 80
76 51 52 47 49 62 64 82 67 74 75 75 75 70 79 66 74 64 72 80 83 85 96 94 86 89 84 79 78 69 77 79 81 80 80 80 77 66 76 75 85 85 89 62
68 55 52 46 48 60 66 71 72 63 68 67 62 57 64 69 80 91 100 98 100 100 100 98 96 90 85 77 72 80 77 79 72 70 72 70 68 72 71 82 91 86 51 29
72 60 54 52 48 56 70 67 67 68 65 65 71 68 79 93 99 100 100 100 100 100 100 98 86 87 70 72 79 80 78 72 68 68 70 63 69 73 82 84 79 37 24 17
78 68 56 56 52 58 61 62 72 66 61 64 71 96 100 100 100 100 100 100 99 100 86 82 69 63 70 73 77 76 76 69 67 68 66 73 70 82 90 68 30 26 18 12
82 83 68 64 62 66 70 76 65 66 72 90 100 100 100 100 100 91 88 86 92 83 68 59 63 67 68 77 81 79 72 75 77 75 75 75 79 84 53 27 23 17 14 9
82 81 78 73 83 75 76 84 95 98 100 100 96 97 98 90 89 87 83 82 69 58 57 64 68 68 79 82 78 74 78 77 73 72 73 77 69 40 25 18 15 13 11 10

GFSCGP_250_rhum_057.txt.gz
RH
67 76 89 95 98 99 100 98 96 100 100 100 100 100 100 100 100 100 100 96 100 76 95 87 87 100 100 97 70 89 95 100 100 98 100 100 95 84 70 62 49 36 27 25
78 95 86 91 95 82 81 93 93 96 96 100 100 100 100 100 100 100 97 100 100 100 100 100 100 94 100 97 96 96 95 100 100 100 91 78 70 59 49 40 28 25 23 25
89 88 96 80 73 76 78 79 98 100 100 100 100 100 97 100 100 100 100 82 100 100 88 95 86 91 85 100 100 100 96 96 88 74 64 60 50 37 26 25 23 24 29 35
66 68 54 52 70 86 79 85 100 100 100 100 100 100 100 100 100 100 100 100 96 94 100 100 100 100 100 100 99 93 85 77 65 58 46 34 27 25 23 23 32 38 39 42
80 74 71 77 80 100 97 96 87 83 97 85 98 100 100 100 100 100 100 100 99 100 99 91 81 80 86 78 66 68 64 52 41 29 26 26 25 23 30 40 43 44 39 40
77 75 77 77 96 100 99 70 61 76 97 93 65 71 79 88 88 100 90 98 94 78 80 79 77 78 76 65 46 35 32 25 25 27 25 24 26 30 37 38 34 32 30 29
85 100 68 66 74 93 65 67 81 76 71 63 62 74 66 76 65 93 84 76 55 70 71 76 60 46 36 31 26 27 31 30 28 27 26 28 31 34 34 32 33 33 35 34
80 75 81 70 78 100 83 73 88 99 76 92 100 92 100 100 95 100 99 83 78 71 60 47 35 25 29 36 34 31 30 31 34 32 33 36 40 38 35 37 34 36 45 42
100 100 100 76 98 85 79 88 83 94 100 100 89 70 73 92 89 89 80 62 39 37 30 26 38 41 37 34 33 32 32 40 46 44 42 46 46 43 44 66 67 51 43 45
100 100 100 76 100 100 100 87 91 100 100 100 86 76 80 66 57 54 46 39 33 27 35 41 40 40 40 39 41 42 40 44 59 58 54 53 51 60 80 74 60 46 48 51
88 96 91 89 96 87 84 98 92 88 90 82 59 54 42 37 49 40 30 27 39 44 41 36 36 35 36 49 58 61 51 49 48 44 46 54 56 73 66 54 48 50 52 60
88 82 60 59 50 57 59 54 56 56 62 55 50 56 40 35 28 26 35 47 45 40 36 33 35 33 39 48 51 55 59 60 62 63 67 57 66 58 52 56 48 53 62 64
61 64 64 68 82 53 61 57 58 59 51 44 34 26 24 24 30 44 49 48 49 44 43 41 40 45 52 58 62 57 56 62 64 66 63 59 63 66 58 52 62 68 63 63
48 84 100 97 91 68 67 62 57 41 32 30 25 24 24 36 45 54 56 44 50 54 49 46 53 60 59 58 58 61 67 68 64 69 66 79 67 56 53 64 66 59 64 64
83 98 100 93 90 73 60 53 32 30 27 25 22 35 33 51 56 55 55 58 44 50 53 47 41 46 55 61 64 68 69 67 74 85 76 66 57 54 68 63 64 70 65 61
100 98 86 96 85 72 38 33 28 25 23 28 41 63 50 50 57 67 76 68 64 77 75 76 82 76 78 70 68 70 75 85 89 69 59 58 64 70 66 66 72 71 68 65
94 98 89 94 85 53 47 30 30 33 39 48 62 63 64 54 59 61 58 60 63 61 61 68 76 74 66 69 82 87 83 65 52 64 73 80 71 65 64 75 80 73 65 68
92 95 99 90 79 52 39 40 35 41 34 49 77 78 66 61 59 65 69 70 67 76 82 84 70 63 75 80 75 70 52 59 71 78 81 69 64 63 73 80 86 78 80 76
92 97 90 93 82 51 42 51 43 44 41 66 83 75 79 80 74 69 72 84 88 96 92 72 75 87 86 78 68 64 69 73 73 79 66 65 68 75 93 93 72 73 66 65
93 100 96 93 82 48 49 53 46 45 57 70 66 75 79 78 74 71 73 70 71 69 70 83 97 96 81 73 77 79 77 80 80 64 64 70 77 93 95 70 63 65 68 71
78 100 95 92 92 58 52 59 49 53 54 62 64 71 72 67 66 58 63 69 66 72 91 99 86 76 78 86 93 96 94 80 64 63 73 76 85 96 74 61 64 70 74 76
86 97 99 98 90 74 62 61 58 53 60 62 70 72 69 67 68 67 69 68 85 100 100 92 89 100 100 98 94 94 77 63 64 72 76 80 85 75 69 67 76 76 72 63
89 100 99 100 97 79 63 65 66 51 55 62 63 62 63 64 61 63 73 100 100 94 93 98 99 90 92 88 88 73 63 65 71 74 75 74 71 72 69 80 78 75 44 26
98 96 100 96 89 85 64 69 64 61 64 64 65 70 73 68 73 98 100 100 100 100 100 100 97 97 84 77 70 62 67 78 76 76 74 75 74 67 78 75 64 43 30 20
100 97 89 98 84 86 78 71 66 66 64 70 78 85 91 100 100 98 99 100 100 100 100 98 93 76 73 72 68 71 83 86 82 72 77 73 66 73 72 56 33 23 20 14
97 100 88 85 93 82 81 84 90 86 85 89 93 100 100 99 92 90 89 96 97 92 83 79 73 74 73 70 75 82 87 78 72 77 74 63 69 66 47 29 19 16 13 11

GFSCGP_250_rhum_060.txt.gz
RH
57 62 61 71 80 86 81 92 90 83 92 93 100 100 100 100 100 100 100 100 100 100 100 100 100 96 94 100 100 100 100 100 87 79 82 82 66 73 92 100 98 85 69 51
65 61 79 86 88 86 84 79 78 91 84 99 88 100 100 100 100 100 100 100 100 100 100 100 100 81 72 56 62 60 64 69 76 88 91 89 91 96 90 84 74 56 46 28
72 75 73 100 86 81 98 99 81 100 95 99 100 100 100 100 100 99 98 86 73 63 90 78 72 74 85 100 100 100 92 87 100 100 99 100 94 80 56 44 36 29 27 27
81 92 94 90 81 68 84 90 99 100 100 100 100 100 100 100 100 100 87 56 58 83 81 94 100 100 93 91 97 98 100 100 99 92 84 73 58 45 37 30 28 28 29 33
74 100 97 86 78 72 94 86 100 100 100 100 81 98 100 100 100 100 100 100 99 100 100 100 100 100 100 98 93 92 96 76 67 60 47 41 36 33 30 29 28 27 29 31
78 77 74 78 78 82 86 84 100 98 98 94 86 96 98 81 90 100 100 100 100 100 100 100 99 91 85 73 72 75 54 43 39 37 32 32 34 30 29 29 31 33 34 37
70 75 100 99 79 100 97 72 83 72 74 59 72 73 86 84 74 65 93 100 95 85 70 69 54 52 79 83 56 47 36 30 30 33 35 33 29 30 33 34 35 35 31 30
62 86 95 100 83 68 69 71 54 62 66 60 67 73 71 72 80 81 76 68 58 51 60 74 67 75 64 40 30 31 39 42 40 34 31 32 33 33 37 36 32 28 27 27
78 97 89 84 67 80 80 67 53 58 66 65 62 58 78 74 86 75 67 64 69 66 74 63 47 36 31 37 44 46 42 38 38 40 45 45 43 40 38 35 32 31 33 41
69 79 76 92 100 69 76 73 57 77 94 74 61 85 99 82 84 78 74 62 55 56 51 40 32 37 43 43 43 42 41 43 46 46 48 49 45 43 44 46 42 47 63 59
42 64 70 91 100 100 100 99 64 61 72 76 70 85 74 55 47 48 46 45 44 38 32 43 57 52 45 42 41 37 36 41 47 46 45 53 57 57 63 61 58 69 55 49
38 50 61 74 93 82 81 78 77 68 54 54 47 43 48 50 52 51 45 37 32 34 45 56 52 47 49 51 49 51 49 49 48 54 59 57 60 68 61 54 53 46 58 62
36 32 54 58 63 47 54 74 58 74 66 56 55 55 51 42 33 26 31 38 47 44 45 45 45 46 48 50 57 52 55 54 57 55 54 57 62 54 46 44 50 59 64 61
49 30 46 56 48 47 91 78 68 73 67 65 54 33 25 21 30 28 31 56 56 45 43 45 41 40 50 56 57 56 56 58 54 54 59 62 50 49 52 56 63 67 59 61
68 31 32 49 46 80 99 92 89 73 69 45 28 26 23 25 37 70 72 63 49 41 52 63 54 59 62 54 52 58 51 50 57 63 61 53 55 59 66 76 71 63 64 67
68 54 35 44 83 85 100 91 76 60 44 29 27 25 24 37 57 59 60 58 54 50 47 54 57 57 60 64 63 54 62 74 81 73 59 53 66 78 86 75 68 67 70 71
52 57 34 81 89 84 100 73 81 58 37 31 31 43 30 42 56 63 67 66 63 63 68 72 73 74 66 56 57 70 84 82 68 61 63 74 82 86 78 76 71 71 74 75
44 54 36 68 97 91 91 84 74 59 40 35 45 63 54 41 47 52 60 66 68 69 66 58 50 47 48 57 70 80 78 78 83 79 83 84 85 86 85 71 70 81 88 80
56 52 41 41 95 100 94 85 82 68 45 42 48 49 55 53 49 57 70 81 79 72 60 55 55 58 64 71 84 90 88 82 79 85 80 84 88 81 77 74 83 87 82 78
50 55 42 45 81 100 97 80 81 74 58 54 53 55 56 58 64 74 77 75 69 60 61 65 66 65 78 98 89 85 80 76 84 89 89 82 80 82 76 80 85 76 70 65
59 55 48 40 77 100 100 86 88 87 69 58 59 62 67 68 69 78 76 62 53 55 62 61 64 86 93 89 87 86 92 93 93 84 82 85 81 77 82 84 68 65 68 76
41 52 56 38 65 100 100 91 87 86 85 74 72 67 57 60 66 64 59 57 59 67 72 82 97 97 94 91 95 100 94 89 86 86 87 79 81 85 77 67 66 65 70 69
60 53 54 44 70 100 100 97 89 93 97 85 74 70 67 62 63 68 67 66 69 85 98 92 90 92 95 100 99 93 94 94 85 89 80 78 80 71 63 66 64 70 68 56
76 67 52 44 74 100 100 98 93 100 100 94 75 71 72 71 71 67 67 76 94 93 89 93 94 94 100 98 96 100 88 81 88 80 73 76 69 60 65 63 65 64 60 39
82 66 48 45 73 100 100 100 99 93 97 97 97 88 81 78 79 82 90 97 100 100 99 99 99 100 100 100 94 80 79 88 81 75 77 74 62 67 66 62 58 51 34 20
88 53 44 45 64 100 100 99 100 99 99 100 98 96 90 88 90 96 96 97 100 99 97 100 100 100 94 86 76 83 91 78 74 77 77 64 69 68 66 52 42 29 20 15

GFSCGP_250_rhum_063.txt.gz
RH
37 62 88 86 86 79 91 95 98 88 100 100 94 91 100 100 100 100 100 100 100 100 100 100 100 100 100 100 100 100 100 100 100 98 100 100 96 90 100 94 74 79 93 100
45 68 83 77 100 96 100 95 100 100 84 100 100 100 100 100 100 100 100 100 100 99 100 100 100 100 100 100 100 100 100 100 100 100 94 100 98 100 83 67 80 85 100 92
52 60 83 99 77 94 82 82 82 83 100 100 100 94 100 100 100 98 100 100 100 100 100 100 98 100 100 100 100 97 85 75 95 85 68 70 70 61 81 93 84 73 68 43
55 65 88 96 95 87 77 95 100 100 96 100 100 100 100 100 100 100 94 100 100 100 100 100 100 83 80 96 69 82 99 68 84 90 96 89 86 83 68 54 44 38 38 37
47 66 71 90 85 87 90 89 83 100 100 100 100 100 100 100 100 92 100 100 100 100 100 100 93 76 87 79 92 100 100 100 99 83 84 67 46 39 37 37 36 38 36 33
39 69 70 77 91 100 97 96 94 98 100 90 99 95 100 99 100 100 99 96 89 99 95 89 100 100 100 100 96 91 91 86 77 65 54 36 35 40 42 41 38 36 32 32
35 70 76 81 94 85 92 100 85 99 80 64 82 78 89 91 94 92 83 63 50 65 90 92 99 98 76 62 70 71 88 79 71 36 35 35 41 44 42 37 37 37 36 39
47 54 78 80 94 79 61 73 78 72 74 76 82 77 74 76 97 87 79 81 84 65 46 42 45 47 50 65 84 72 71 89 36 28 36 44 46 42 41 40 37 42 46 48
42 52 45 80 87 61 60 63 52 58 60 66 69 75 86 76 72 78 79 80 82 79 69 70 57 58 50 74 78 66 47 26 34 43 45 45 41 36 41 40 44 48 45 47
43 46 37 45 70 67 64 98 70 66 70 60 68 82 76 64 55 58 54 53 57 62 71 73 64 58 62 59 43 30 39 51 53 49 44 36 35 42 41 47 45 44 45 43
55 50 44 30 58 73 99 81 63 60 61 71 78 86 84 67 64 64 51 48 49 49 47 45 43 36 31 38 51 53 56 54 48 40 38 45 46 44 40 40 43 53 57 64
51 52 49 33 33 73 78 76 76 55 47 44 46 48 48 46 52 54 56 55 44 43 40 35 32 31 45 60 57 55 47 43 44 46 46 41 36 35 50 75 86 62 57 61
47 58 56 49 30 41 63 80 57 54 43 41 42 48 50 60 56 47 39 35 32 29 27 27 34 54 64 59 56 51 49 50 51 52 51 48 66 76 76 66 57 54 57 64
46 60 51 55 42 32 51 61 50 57 71 64 58 64 64 47 35 42 35 33 30 26 22 41 63 64 59 67 70 56 64 70 70 61 65 70 71 72 55 54 56 61 62 57
54 67 64 47 46 33 31 52 46 54 62 50 65 64 44 30 30 30 28 28 39 43 50 57 59 59 70 72 66 69 70 67 66 65 61 66 64 54 60 65 63 58 58 73
74 71 67 49 42 41 30 39 53 42 41 55 78 61 35 30 27 26 32 49 69 71 68 61 63 63 62 66 71 67 68 73 64 63 64 58 63 64 60 60 57 70 86 90
87 89 65 56 44 45 40 78 54 56 44 62 75 52 35 31 31 35 52 66 68 69 69 71 73 75 80 91 88 87 72 65 60 60 66 62 61 58 65 75 86 92 85 80
100 87 67 57 44 49 54 49 79 83 78 71 74 64 43 36 36 44 54 58 60 63 67 71 75 84 86 83 69 60 57 60 65 67 64 66 71 85 90 87 88 81 86 89
93 78 65 52 45 50 51 44 84 91 91 87 75 70 59 45 45 52 54 58 57 55 58 66 67 55 47 51 59 64 66 72 66 70 79 86 91 94 88 89 82 89 86 78
84 78 66 54 47 46 63 42 54 76 97 85 75 74 72 64 55 54 51 50 48 50 57 58 56 56 54 58 64 72 72 73 85 90 91 95 98 96 84 86 91 86 71 78
88 78 66 52 46 52 68 48 40 91 96 84 85 84 84 83 78 74 68 63 60 59 57 58 59 60 61 69 86 83 81 87 92 95 99 97 94 83 84 88 87 68 75 74
84 70 78 63 61 55 75 60 51 64 88 89 96 87 76 90 95 90 83 78 71 67 63 62 62 63 71 89 90 91 94 99 100 100 94 91 86 80 86 90 76 77 79 75
77 77 77 71 64 62 78 77 64 76 92 90 99 94 88 97 86 86 85 75 73 75 76 76 84 94 100 100 100 97 100 100 100 91 92 85 80 85 92 85 78 78 75 78
89 82 81 71 88 75 75 82 78 99 100 99 100 100 100 96 93 90 93 99 99 96 97 100 100 100 96 95 100 100 100 99 92 93 83 81 89 99 90 76 72 71 78 70
99 87 87 93 89 69 89 90 76 97 100 100 100 100 100 99 96 92 96 98 96 99 100 99 98 100 100 100 100 100 96 87 86 82 81 87 88 84 79 75 75 77 75 56
100 99 92 94 84 78 81 74 70 81 100 100 100 100 100 100 100 100 100 100 100 100 100 100 100 100 100 100 95 87 78 82 82 79 87 82 83 79 74 76 82 80 66 45

GFSCGP_250_rhum_066.txt.gz
RH
36 34 46 60 64 79 93 100 97 82 89 93 95 98 97 100 100 100 100 100 100 100 100 100 100 100 76 89 90 77 70 79 78 76 72 77 95 100 100 100 100 77 70 95
34 32 52 61 90 77 82 81 77 69 92 100 98 94 99 100 100 100 100 100 100 100 100 100 100 89 67 78 89 86 90 97 95 100 100 100 100 100 100 97 86 85 90 100
32 32 52 62 88 85 85 94 98 79 96 100 100 100 88 100 100 100 100 100 100 100 100 100 100 100 100 100 100 100 100 100 100 100 100 100 100 100 96 72 85 100 100 77
38 32 44 60 78 86 93 96 80 79 85 88 95 100 100 100 93 83 100 100 100 100 100 98 100 100 100 100 100 100 100 100 100 100 100 100 94 65 64 98 78 57 43 37
47 34 35 66 61 83 95 98 98 100 82 80 78 91 100 100 100 98 89 99 100 100 100 95 98 100 100 100 100 93 100 100 100 100 100 100 92 76 81 62 44 41 36 36
52 43 33 61 82 76 82 87 98 100 97 83 89 93 99 94 100 100 85 69 69 69 80 96 100 100 96 94 97 98 98 100 92 77 75 66 60 64 61 38 37 37 38 40
57 49 39 35 66 70 81 79 73 86 95 91 85 86 94 95 100 100 100 100 82 91 100 100 100 99 98 94 95 98 89 60 59 51 57 76 86 93 48 40 44 47 47 45
53 56 41 38 36 72 60 85 79 76 81 97 100 94 85 100 97 92 100 100 100 100 90 76 72 100 100 100 92 77 70 55 80 98 100 100 100 46 44 48 49 50 45 41
49 58 44 37 32 39 80 67 87 76 66 76 93 100 94 100 100 100 100 96 100 100 82 72 69 78 75 70 81 91 100 100 100 100 99 76 43 46 49 49 47 45 40 37
56 54 47 40 37 31 51 80 82 83 81 71 68 77 92 76 84 79 81 89 93 97 93 89 87 80 75 75 82 88 100 100 80 66 48 40 46 48 49 48 49 46 49 46
60 65 58 45 42 36 43 80 58 74 85 66 66 63 57 52 52 52 60 58 65 68 74 73 72 72 65 60 56 77 67 37 31 36 41 47 48 50 54 56 52 49 38 45
69 77 64 47 44 43 34 52 58 84 84 71 51 56 55 52 52 52 50 55 55 51 49 51 49 48 48 41 79 69 27 33 41 44 50 54 56 60 53 47 36 38 52 59
83 83 65 53 46 41 44 33 51 75 74 62 54 48 32 67 59 56 55 55 54 51 47 39 26 21 25 28 74 59 49 47 50 49 58 56 55 55 52 47 54 58 64 64
77 65 66 59 52 42 41 38 32 44 63 63 64 73 69 70 63 66 62 46 32 28 24 22 26 31 45 62 76 85 92 77 66 84 72 64 62 62 52 57 62 64 63 70
76 66 57 64 52 47 44 42 37 28 43 62 59 96 78 57 57 52 36 30 26 23 24 26 29 48 48 62 84 89 78 86 88 82 91 84 70 69 70 62 62 66 73 65
85 67 64 62 55 48 55 55 41 40 26 38 70 100 73 65 56 44 34 32 28 26 25 25 33 44 68 82 84 78 82 82 85 89 86 81 72 70 65 70 70 76 62 59
79 64 82 73 59 56 70 53 42 37 37 44 85 98 81 58 62 56 39 36 38 40 44 48 53 60 73 78 82 88 87 98 98 91 92 79 74 73 79 81 79 67 67 79
70 84 94 80 59 74 74 57 46 37 41 38 90 91 69 61 74 71 50 41 42 49 55 65 72 80 91 93 94 98 100 97 97 88 72 72 82 90 83 78 74 74 79 82
81 91 88 76 84 77 95 70 53 44 45 47 46 71 87 98 86 75 68 54 44 44 50 57 64 71 76 81 85 87 88 86 78 72 78 88 92 81 80 80 76 78 81 91
100 99 90 88 85 98 100 71 50 48 52 39 39 57 84 96 100 81 77 77 71 60 56 58 62 66 67 65 66 68 69 75 78 79 90 82 77 83 76 74 78 89 94 87
99 100 94 90 89 97 100 83 60 53 53 50 52 58 88 98 99 92 87 83 80 83 82 79 78 78 77 77 80 82 84 87 89 79 75 83 80 72 74 83 90 88 88 100
100 100 100 99 83 78 88 87 61 59 54 51 58 60 71 97 100 100 97 93 86 90 83 79 82 86 86 87 90 93 91 87 86 82 79 74 74 76 83 88 92 86 92 96
100 100 100 86 95 89 100 87 77 68 64 53 67 64 60 92 100 100 98 98 95 95 98 97 100 100 97 95 97 94 94 87 78 81 80 77 81 86 90 96 89 97 99 94
90 100 95 86 89 100 100 100 76 75 65 57 68 77 78 77 96 100 100 100 98 96 100 100 100 100 100 100 100 100 98 89 88 82 83 82 89 94 96 92 94 100 92 82
82 100 100 94 100 100 100 90 87 83 66 56 73 84 70 73 91 100 100 100 100 100 100 100 100 99 100 100 99 98 97 90 85 82 81 87 95 100 95 96 95 93 88 75
100 100 99 99 100 94 100 97 95 82 67 64 80 86 54 55 62 82 87 97 100 100 100 100 100 100 100 100 100 100 95 90 83 83 91 96 100 92 94 86 92 88 80 80

GFSCGP_250_rhum_069.txt.gz
RH
37 25 29 34 49 53 63 85 100 86 91 100 100 83 74 47 84 100 100 100 100 99 89 100 100 100 100 100 94 96 100 100 100 100 100 100 85 75 96 86 56 76 90 97
38 28 33 32 50 51 78 89 98 85 83 89 96 97 88 76 76 100 100 100 100 75 100 91 93 100 100 80 79 98 89 93 93 86 74 60 59 54 67 81 100 100 100 100
40 30 33 36 38 53 66 84 93 84 83 80 84 92 99 99 97 100 100 99 100 100 100 100 84 100 79 100 73 68 58 49 58 55 74 85 90 97 99 97 100 100 94 88
41 35 32 38 36 63 59 58 71 96 88 96 91 83 82 95 92 100 100 100 100 100 100 100 100 98 86 67 57 48 56 63 80 92 97 100 100 100 100 100 100 85 94 79
44 38 32 37 37 43 68 68 83 87 78 81 99 85 70 85 74 93 89 100 100 100 100 100 100 100 100 100 100 100 100 100 100 87 97 91 100 97 98 89 75 66 64 75
45 47 36 42 39 37 56 64 75 81 87 80 79 87 74 80 79 75 81 77 90 100 100 98 100 100 100 100 100 100 100 100 100 100 100 100 98 95 77 70 73 69 95 99
50 54 43 42 46 41 38 63 68 84 96 100 99 82 90 95 87 90 90 77 62 65 78 85 81 95 100 100 100 100 100 100 100 100 100 93 84 91 77 81 92 99 100 58
53 64 53 44 54 46 36 45 71 82 93 96 100 100 67 100 100 100 96 100 100 100 100 98 93 100 100 100 96 100 100 100 100 92 81 71 68 100 86 100 100 98 56 54
59 69 66 58 60 49 41 37 62 69 78 88 96 100 80 92 94 83 89 96 96 94 82 86 96 100 100 100 92 80 79 69 66 68 62 78 100 100 100 100 77 54 61 62
71 68 68 63 60 51 44 38 50 64 71 84 91 86 86 84 98 86 82 94 94 88 80 85 98 100 100 99 94 95 96 99 97 100 100 100 100 100 79 55 62 65 66 64
76 74 70 65 57 47 50 43 40 50 58 70 92 100 95 79 79 75 70 75 77 86 85 86 83 82 74 67 72 86 80 65 85 98 100 99 82 58 60 64 63 70 73 70
80 77 64 62 50 48 53 48 40 36 54 81 100 96 70 50 56 69 72 77 77 73 67 61 57 57 54 52 51 44 42 60 91 100 100 79 64 50 58 66 85 82 78 70
77 87 65 65 51 50 45 48 53 38 36 61 71 90 59 68 86 80 73 59 57 49 50 51 51 51 53 51 39 34 33 74 90 100 99 72 51 54 62 60 73 68 57 59
75 84 80 69 47 56 43 51 52 53 42 40 47 58 55 60 86 90 84 74 68 64 67 65 51 32 26 26 29 29 49 98 100 100 83 52 53 64 71 68 60 66 58 57
86 86 76 63 52 59 49 60 44 58 53 39 40 44 49 47 52 77 83 79 72 68 49 31 28 24 22 21 29 57 91 96 87 73 67 70 71 76 85 100 63 71 72 78
96 95 80 61 57 59 58 57 57 54 67 50 40 45 34 42 47 63 63 75 72 56 37 30 29 26 25 30 72 91 99 90 75 73 78 87 93 93 94 97 99 95 94 75
90 87 70 70 64 62 95 54 61 50 66 59 55 48 42 37 55 73 80 79 68 65 52 40 37 38 38 44 51 55 60 63 72 78 80 86 91 94 99 99 89 77 83 88
90 71 78 73 79 76 83 86 58 60 63 56 48 58 48 47 66 100 96 88 74 78 74 59 50 52 57 58 62 62 65 70 74 79 83 83 88 94 90 86 88 92 98 85
69 62 80 79 86 92 100 71 70 59 83 49 56 53 56 51 53 84 100 100 96 86 82 79 77 78 79 78 78 79 82 83 82 84 86 91 95 92 94 100 100 94 80 71
74 90 93 99 89 83 100 100 71 60 91 68 59 60 58 58 51 54 63 100 100 100 98 85 82 83 86 86 87 86 85 86 89 90 90 92 93 98 100 100 95 76 64 65
100 96 88 86 81 86 100 100 65 82 85 83 70 68 56 66 56 63 62 66 93 100 100 100 96 88 86 87 90 94 96 98 96 93 94 97 100 100 100 95 76 64 70 80
100 100 91 89 80 100 90 93 100 83 92 90 89 74 62 66 64 58 76 78 63 88 98 100 100 100 95 92 94 100 100 100 99 100 100 100 100 100 93 80 71 71 84 96
100 94 94 75 72 73 85 94 100 97 86 98 93 80 61 60 62 58 70 69 68 70 90 98 100 100 100 98 97 98 99 100 100 100 100 100 92 83 78 70 72 86 97 97
91 87 80 68 64 64 80 100 99 76 98 100 97 75 69 60 62 65 61 82 54 62 69 76 84 93 98 99 100 100 100 100 100 98 83 75 70 67 74 80 90 98 97 98
93 85 71 60 64 64 66 88 76 77 100 95 88 87 74 59 64 70 79 82 97 82 78 82 87 86 89 94 95 98 99 96 90 85 78 79 84 85 87 96 100 97 95 89
77 61 54 58 62 72 94 99 93 99 92 92 88 83 82 78 92 82 84 90 90 94 95 82 74 76 86 82 78 78 80 79 75 75 79 83 86 95 100 100 99 99 95 89

GFSCGP_250_rhum_072.txt.gz
RH
49 39 35 25 31 39 58 57 64 70 82 83 97 84 66 45 40 74 73 98 100 90 92 87 100 92 100 100 100 100 100 100 100 100 100 100 100 100 98 100 100 100 100 82
57 44 35 26 29 35 62 58 67 76 73 85 86 100 98 76 60 99 81 96 100 91 99 76 85 78 80 92 100 100 100 100 100 100 100 100 100 100 100 100 100 90 65 60
68 50 39 28 30 37 38 60 62 62 89 83 72 79 89 84 65 100 97 93 100 72 100 100 82 89 86 100 87 92 83 85 94 100 100 97 99 99 88 87 73 58 51 77
71 54 46 35 31 38 38 55 61 66 77 84 96 92 71 69 74 92 100 91 100 88 88 100 94 58 91 100 98 95 78 66 61 63 76 60 52 46 42 41 84 100 85 88
76 56 56 41 39 42 41 37 64 56 78 85 83 100 88 74 70 89 100 100 87 94 100 71 100 100 66 65 65 50 63 74 64 46 53 38 55 85 100 100 98 69 58 66
88 61 65 50 48 48 40 39 51 65 66 97 86 83 83 99 94 66 90 98 99 100 99 99 100 100 100 100 100 79 77 92 100 100 100 100 100 94 98 97 98 99 94 89
96 70 64 57 56 52 47 42 38 82 65 67 77 81 71 90 93 96 82 74 76 84 94 99 97 100 100 100 100 100 100 100 88 76 85 94 100 100 100 100 100 78 74 70
98 86 63 53 55 62 56 46 42 46 99 77 72 63 56 79 73 69 90 99 98 84 74 76 90 88 94 95 85 76 94 99 100 100 100 100 100 100 100 98 86 81 77 96
89 97 73 61 57 58 57 46 47 38 66 89 75 70 48 54 61 58 59 64 85 99 99 100 100 100 99 84 98 100 100 100 100 80 85 96 87 85 91 85 83 83 100 100
99 94 88 77 61 61 58 45 50 42 39 58 84 89 74 62 72 77 74 64 64 73 83 64 60 60 63 62 56 62 64 66 69 85 86 88 88 82 76 84 92 99 100 96
100 98 96 81 76 57 57 54 43 44 41 41 79 82 100 88 72 81 83 88 86 79 89 95 91 83 72 67 70 72 74 76 82 81 84 80 73 81 85 92 100 95 82 56
80 95 100 80 85 61 70 63 53 42 48 42 43 84 61 62 85 72 61 57 65 71 76 79 83 83 78 69 64 66 68 58 51 45 43 40 57 90 100 100 100 80 69 71
100 87 88 82 76 68 72 66 57 43 49 56 45 42 41 44 87 71 54 56 58 58 67 66 62 55 53 56 55 52 48 45 41 40 40 58 92 100 100 100 86 91 86 68
100 100 94 79 63 81 64 66 57 49 47 57 58 52 40 41 41 70 79 71 77 74 76 77 72 66 65 66 57 37 39 40 39 43 92 100 100 100 100 100 100 99 96 99
100 100 100 87 72 87 67 73 46 52 49 58 58 54 43 47 43 40 44 76 71 84 95 75 73 70 56 46 36 31 28 35 62 77 100 100 100 100 100 100 100 100 100 91
100 100 100 100 100 81 69 90 55 58 54 57 62 51 57 49 47 44 46 49 61 92 100 91 80 75 60 41 34 39 42 70 88 98 99 100 100 100 100 100 88 89 91 100
100 100 100 100 89 75 90 75 76 71 69 56 61 60 61 58 51 49 49 46 62 88 100 100 98 81 69 63 49 63 52 72 76 77 81 76 72 72 77 81 87 99 100 100
100 100 100 100 92 89 100 91 91 85 83 50 57 75 65 62 62 58 54 59 54 58 93 99 100 100 93 79 76 68 60 55 54 57 63 69 74 79 88 97 97 96 97 100
100 99 89 88 100 89 100 100 87 94 98 56 58 76 80 70 68 65 57 68 64 53 66 88 100 100 100 100 90 87 86 85 85 86 88 92 96 98 100 100 100 100 100 100
91 72 64 72 93 100 100 100 94 80 100 51 85 71 85 78 82 72 66 59 63 66 63 70 68 89 100 100 100 100 100 100 100 99 97 96 98 100 98 100 100 100 100 100
96 75 59 78 85 100 100 100 94 68 89 65 79 78 88 82 91 94 77 64 63 66 72 76 74 72 69 87 100 100 100 100 100 100 100 100 100 99 100 100 100 100 98 93
100 70 58 69 91 100 100 100 76 72 73 81 72 81 98 88 89 97 97 75 64 59 80 84 77 64 70 85 95 99 100 100 100 100 100 99 100 100 100 99 99 100 100 100
83 72 77 90 88 100 97 95 76 73 75 74 85 90 77 85 100 100 94 78 71 63 62 82 80 95 100 99 86 84 88 86 83 84 87 88 90 97 100 100 100 99 90 88
95 100 94 90 97 94 83 78 72 79 82 74 88 95 67 88 96 100 90 86 86 68 62 78 68 74 88 94 98 100 90 81 80 74 80 84 87 94 97 95 90 88 89 86
100 100 100 100 100 100 100 90 89 97 78 65 98 99 81 83 78 84 81 85 100 84 83 90 89 88 81 78 71 76 73 70 76 74 64 75 88 87 86 83 84 86 89 90
100 100 100 100 100 100 99 100 96 81 67 70 100 98 89 83 72 82 77 96 96 80 93 98 100 96 77 73 64 64 67 77 76 81 84 81 79 83 91 95 98 95 87 87

GFSCGP_250_rhum_075.txt.gz
RH
72 99 72 47 38 28 27 35 57 60 74 77 82 72 68 62 47 36 62 100 99 100 100 93 100 100 100 100 100 100 100 100 100 100 96 100 100 100 100 100 100 100 100 100
88 100 74 50 42 33 28 35 54 64 64 68 78 77 76 67 57 69 64 100 100 89 97 90 100 100 100 100 100 100 100 100 100 100 97 99 100 100 100 100 100 97 95 83
100 100 79 56 44 40 32 34 45 60 64 67 74 78 92 86 79 87 72 98 100 99 94 93 80 100 81 97 100 100 100 100 100 98 92 100 100 100 100 100 100 98 96 99
100 100 88 66 49 47 38 33 37 53 62 59 67 78 89 95 81 88 99 72 94 100 87 94 95 96 92 79 94 100 100 100 100 100 100 100 100 100 100 99 100 100 93 94
100 100 96 76 55 50 46 35 38 36 70 59 64 66 79 75 80 85 100 99 83 99 100 100 100 100 66 65 61 68 92 100 100 99 92 85 77 70 65 68 61 58 57 76
100 100 90 85 60 52 45 43 34 38 46 78 55 74 75 79 84 85 89 100 99 79 93 77 100 100 98 98 61 51 51 53 59 50 54 66 61 56 50 91 98 76 64 76
100 100 90 97 69 53 46 52 39 37 37 72 74 71 65 69 70 85 85 81 100 100 99 92 85 73 80 100 81 75 97 83 82 84 86 75 51 63 63 55 94 96 99 100
100 83 94 100 79 62 55 55 45 38 40 37 55 83 86 63 58 60 68 75 76 74 93 84 88 100 100 100 100 100 89 76 100 100 77 90 91 97 98 100 100 100 100 100
94 94 100 96 87 73 71 58 55 45 36 39 36 47 81 73 68 46 53 57 76 85 94 76 78 74 74 84 84 81 89 81 74 76 83 98 100 100 100 100 85 94 90 82
97 99 100 82 98 84 77 73 67 52 43 37 36 34 48 85 72 82 62 61 55 53 59 70 82 93 100 100 100 100 100 100 98 97 95 98 92 88 92 84 86 84 90 92
100 100 92 79 97 90 78 84 78 63 49 41 38 34 34 52 98 76 77 82 69 72 82 79 70 68 66 63 63 68 74 79 85 86 92 93 92 83 79 82 85 69 74 80
100 100 88 100 100 92 83 83 89 76 59 47 45 39 37 34 52 92 98 81 76 63 54 52 54 56 54 53 56 61 62 64 66 68 66 64 64 57 52 46 41 55 73 80
84 88 100 100 100 89 72 84 81 77 75 56 48 44 46 42 39 39 51 84 99 99 77 69 77 70 62 57 54 54 56 58 63 65 61 56 49 42 38 37 42 69 84 100
83 100 100 100 100 74 88 77 83 78 76 67 53 52 45 53 48 44 41 39 45 71 81 72 75 82 81 80 71 63 62 58 52 45 38 34 33 31 31 41 58 70 95 98
100 100 100 100 100 98 100 94 93 84 75 68 60 58 44 47 51 52 48 46 45 41 39 60 74 72 85 85 82 72 69 61 56 41 36 38 40 46 59 74 97 100 100 100
100 100 100 100 100 100 100 100 98 88 88 68 69 62 48 43 46 49 51 55 50 52 51 50 46 56 99 100 100 91 90 83 82 71 71 71 64 59 92 100 100 100 100 100
100 100 100 100 100 100 100 100 98 96 97 74 85 72 50 46 41 45 51 55 50 55 52 52 51 51 67 95 100 100 100 97 92 84 97 96 90 91 91 90 92 97 100 100
100 100 100 100 100 99 100 100 100 100 100 87 94 76 75 51 46 52 62 58 61 72 63 58 55 59 56 56 63 69 91 100 100 99 91 91 95 97 95 94 98 100 100 100
100 100 86 100 100 100 100 100 100 100 100 92 83 100 96 57 60 59 80 70 78 84 76 67 66 59 64 69 64 68 72 78 100 100 100 100 100 100 100 100 100 100 99 94
100 100 100 82 100 100 100 100 100 100 100 84 86 91 77 68 82 82 96 91 85 100 100 80 67 70 69 65 72 67 58 60 73 89 100 100 100 100 100 99 99 91 88 88
100 100 100 79 87 100 100 100 100 98 100 71 84 79 92 76 85 96 94 84 89 100 99 91 79 79 88 73 63 67 79 84 77 74 86 95 97 95 92 88 86 88 84 84
100 100 97 96 87 92 100 100 100 100 100 90 82 74 74 78 83 96 86 68 86 90 100 90 92 88 92 85 75 63 59 69 80 85 88 86 79 73 71 71 73 77 77 79
88 98 100 98 98 99 96 100 100 100 89 80 79 86 84 80 95 88 97 96 99 100 99 93 97 85 83 96 89 82 92 89 86 68 66 70 74 81 88 90 88 86 85 85
100 91 94 100 98 95 88 96 88 96 82 82 88 90 87 98 99 79 96 100 100 100 98 97 91 84 81 90 97 87 87 100 76 65 72 75 80 80 82 85 83 87 92 91
91 98 100 100 96 82 67 76 89 94 94 99 91 85 96 92 86 75 72 84 100 100 100 99 94 79 88 96 88 84 92 94 90 85 82 71 75 68 70 80 82 83 90 91
92 90 93 100 94 82 80 81 88 100 93 90 99 98 86 92 82 61 54 66 93 99 99 100 86 87 94 96 87 92 97 97 95 79 83 75 58 54 62 73 74 75 85 92

GFSCGP_250_rhum_078.txt.gz
RH
60 81 71 98 97 44 38 41 28 28 52 59 63 63 62 52 43 30 24 30 37 60 87 33 61 56 61 90 88 88 100 100 100 91 100 100 100 100 100 100 100 100 100 100
55 78 64 100 100 54 42 43 33 31 42 55 63 64 74 81 59 42 39 73 98 91 100 98 93 67 86 97 99 100 100 100 100 97 80 100 95 99 100 100 100 100 100 100
65 50 57 100 100 74 48 43 38 31 33 52 60 62 57 71 74 71 94 76 96 97 100 99 95 100 87 78 96 100 100 100 100 93 79 99 100 100 100 100 100 100 100 100
100 49 52 100 100 82 51 47 38 30 38 42 59 63 63 59 60 66 100 99 100 90 100 100 95 99 97 100 100 96 100 100 100 100 100 100 100 99 87 92 100 100 100 100
100 61 53 100 100 90 62 52 41 34 39 34 59 60 68 67 60 59 70 82 100 99 100 96 97 80 99 94 81 88 75 97 100 100 100 100 100 100 100 100 100 96 100 100
100 96 43 100 100 92 69 58 51 38 34 36 38 56 62 67 65 64 59 85 100 100 93 100 100 89 69 76 74 73 59 86 96 100 100 100 100 98 97 93 92 91 87 82
100 100 54 100 100 91 82 60 61 39 35 35 33 37 66 64 76 73 63 60 87 100 92 88 99 100 100 100 100 96 99 62 60 62 92 100 91 91 84 66 69 68 55 64
100 100 74 100 100 82 100 63 74 50 48 41 35 35 45 71 80 72 84 77 59 66 100 100 94 65 70 92 100 76 61 96 85 74 99 97 91 97 97 96 84 74 90 83
100 100 94 83 100 91 100 67 80 57 56 49 40 35 34 40 81 90 57 63 87 65 57 61 98 99 92 81 93 95 64 77 99 100 93 52 53 64 86 98 93 88 100 100
100 100 93 72 100 100 100 73 94 57 56 59 45 42 32 34 43 77 73 85 66 69 68 57 54 59 65 78 68 73 86 81 73 71 67 79 85 76 97 100 99 91 90 81
100 100 95 76 100 100 94 84 98 67 49 55 51 47 40 36 35 36 42 72 82 71 66 73 72 71 68 64 74 74 71 71 69 72 73 71 60 58 62 57 60 66 67 66
100 100 99 64 100 100 65 97 100 77 50 48 55 49 48 43 42 38 34 34 45 58 66 72 72 60 62 66 77 72 65 57 57 61 68 70 68 98 72 59 61 53 53 53
100 100 100 56 100 93 100 100 100 79 65 54 58 56 50 50 47 42 40 41 38 34 36 55 55 51 54 50 43 54 60 62 55 65 64 77 77 96 99 82 69 49 33 32
100 100 100 45 100 100 82 94 100 72 78 70 62 69 56 56 49 46 45 46 46 45 43 38 38 38 44 50 55 48 53 58 77 70 62 63 99 100 70 62 47 34 33 39
100 87 95 60 83 76 98 100 100 100 96 91 64 82 70 64 62 46 45 44 44 43 46 44 44 47 44 39 40 40 41 47 63 79 75 88 72 68 80 68 62 58 64 88
100 100 100 59 84 100 100 100 100 100 100 100 77 86 70 71 71 53 44 42 44 47 49 48 48 48 52 51 49 55 68 72 70 76 84 86 98 98 92 77 72 75 75 72
100 100 100 74 77 92 87 100 100 100 100 100 93 98 89 73 71 60 46 43 51 52 48 49 54 52 56 62 59 66 63 66 55 50 52 58 67 87 98 100 96 96 96 96
100 100 79 89 100 74 100 100 100 100 100 100 100 100 89 90 88 70 56 52 55 58 54 47 53 64 77 56 61 64 63 65 63 59 54 48 55 74 96 100 100 100 100 100
100 100 100 100 98 93 99 100 100 100 100 100 100 100 96 100 95 75 72 69 73 72 77 58 64 74 80 80 79 81 77 67 57 63 66 64 70 82 82 88 97 100 100 100
100 100 100 95 96 90 100 100 100 100 100 100 100 100 100 100 86 92 79 79 78 85 96 77 80 88 96 90 86 89 84 74 72 70 68 66 69 73 72 60 58 61 65 68
100 100 89 78 84 93 100 100 100 100 100 100 100 92 96 90 87 95 95 93 88 89 99 99 86 83 85 94 95 80 82 83 76 84 79 83 73 72 76 85 83 78 67 72
100 100 100 100 87 80 99 98 100 100 100 100 99 93 91 86 100 98 100 100 84 100 93 75 89 96 97 100 97 99 95 96 88 84 86 89 86 82 83 81 86 79 69 77
100 100 100 100 100 97 95 74 100 99 100 100 89 74 59 76 84 95 100 92 99 99 84 77 73 83 100 100 100 100 98 100 92 86 91 90 91 93 91 80 88 76 76 74
100 92 93 100 100 100 100 100 97 92 94 100 77 68 77 76 76 100 100 85 82 87 78 75 62 62 76 89 92 86 93 100 90 86 90 88 82 80 78 87 88 83 78 78
100 100 100 100 100 100 100 100 85 93 86 81 80 75 76 93 100 100 92 87 96 80 79 70 62 64 63 63 65 72 92 97 91 82 84 81 75 74 79 85 82 81 81 87
100 97 79 93 100 100 100 99 99 92 92 88 85 92 90 90 98 84 77 99 92 88 76 64 61 66 67 72 76 73 80 90 88 81 77 73 79 77 74 81 83 93 98 99

GFSCGP_250_rhum_081.txt.gz
RH
40 100 100 52 33 63 100 100 80 37 37 28 31 38 51 56 72 58 26 20 18 18 64 76 79 54 84 94 86 72 78 100 100 100 100 100 100 100 100 100 100 100 100 94
34 97 100 67 40 45 98 100 92 39 38 29 29 36 53 51 54 34 20 20 18 18 34 60 56 58 45 57 59 55 54 80 100 99 88 83 99 96 100 100 100 99 100 100
31 64 98 76 69 47 89 100 99 44 43 34 33 32 48 46 55 48 24 24 23 20 25 44 55 36 39 43 49 54 54 53 50 67 63 85 99 100 100 100 89 92 99 86
30 39 99 82 98 50 79 100 100 54 49 37 33 32 42 59 60 58 52 27 28 33 52 47 60 58 44 49 47 35 34 36 60 60 83 83 90 97 92 85 93 94 99 99
45 37 98 56 100 64 51 100 100 62 51 40 34 34 40 41 53 56 60 62 36 29 59 92 100 92 71 79 73 78 76 79 100 100 100 98 100 100 100 100 100 100 100 100
40 44 98 66 100 100 44 100 100 65 55 51 32 35 38 46 53 68 58 70 85 78 64 67 90 84 92 92 95 100 100 100 84 90 94 92 100 100 100 100 100 100 100 100
52 45 96 94 100 100 59 100 100 77 56 61 33 33 39 33 46 51 73 83 82 91 100 81 60 76 80 84 70 96 100 100 90 84 68 68 86 100 100 100 100 98 98 100
80 68 82 100 100 100 62 100 100 82 55 69 39 28 38 35 31 40 43 58 61 62 94 96 90 80 74 83 100 100 100 99 78 77 83 65 54 60 75 82 79 80 77 77
71 49 71 100 81 100 100 100 100 99 71 64 56 40 35 34 35 32 32 48 46 60 71 60 87 90 98 87 67 81 95 100 100 100 84 63 65 100 75 63 59 81 75 60
71 52 61 100 78 100 100 100 100 100 79 65 65 49 42 40 36 32 32 46 50 41 45 64 62 63 75 87 71 57 64 72 82 92 92 69 53 49 63 70 78 90 93 99
71 51 63 100 52 100 100 100 100 100 68 61 62 59 50 43 44 38 34 37 36 43 42 42 53 81 64 88 91 78 72 74 75 73 88 82 68 72 83 80 79 90 92 87
84 67 70 100 68 100 100 100 72 100 84 67 61 53 60 52 49 48 42 35 36 34 36 33 33 44 63 64 82 91 94 88 92 84 88 89 80 54 75 89 99 99 93 86
100 64 62 100 59 100 100 96 87 100 71 100 66 54 60 57 59 57 51 43 36 38 39 39 35 33 31 50 70 98 99 97 84 70 85 84 68 49 74 100 94 97 72 68
90 68 59 99 63 100 100 100 100 100 100 100 84 59 57 50 53 57 60 54 43 42 45 43 39 38 32 31 35 47 66 76 77 75 65 53 83 73 89 90 100 100 100 80
65 63 74 100 74 100 100 100 98 78 100 100 95 79 70 61 61 67 61 66 54 43 43 43 45 46 42 35 34 41 41 63 56 54 68 79 88 73 100 100 91 78 89 77
54 58 77 99 92 100 100 99 58 85 100 100 100 100 100 86 83 82 50 63 61 50 48 49 45 41 44 37 38 55 69 59 66 64 63 57 56 75 77 82 90 68 67 82
46 52 94 82 95 97 100 88 75 96 100 100 100 100 100 100 100 95 86 65 52 55 46 43 53 54 52 54 54 46 47 63 57 63 68 58 52 51 50 47 48 52 60 63
46 63 100 99 70 84 100 100 100 100 100 100 100 100 100 100 100 98 70 77 58 76 66 57 74 71 59 57 57 63 60 61 60 63 66 68 59 55 54 57 59 61 66 67
49 99 100 99 74 74 100 100 100 100 100 100 100 100 100 100 96 93 92 74 75 88 86 82 84 81 82 74 65 75 76 81 74 64 72 64 69 68 63 62 60 64 64 69
55 100 100 100 65 58 100 100 100 100 100 100 100 100 100 100 100 100 100 76 83 98 91 88 86 84 86 86 84 79 81 73 82 89 95 91 88 84 75 69 73 70 73 72
72 100 100 100 97 81 98 100 100 100 100 100 100 100 100 100 100 100 96 91 97 95 87 87 91 100 91 93 86 76 67 63 66 80 76 69 69 65 75 93 82 76 75 69
85 99 100 100 100 100 100 100 100 100 100 100 100 100 100 100 100 100 100 96 78 74 87 88 100 86 79 100 91 77 70 61 58 59 66 71 71 73 82 82 80 80 80 74
83 100 100 100 100 100 100 100 100 99 100 79 65 60 75 85 85 96 99 80 68 82 72 96 100 89 85 97 89 82 71 61 60 65 70 76 82 81 76 78 84 85 82 74
79 100 100 100 100 100 100 100 100 78 73 73 83 94 90 98 89 72 65 63 65 79 80 97 87 67 76 94 95 88 77 63 60 67 73 81 89 86 82 81 80 77 69 73
93 100 100 95 100 100 100 100 94 96 77 74 76 82 80 81 91 87 80 68 77 87 87 80 77 73 81 95 89 82 87 69 60 72 83 89 91 89 80 72 66 70 76 82
99 100 100 100 100 99 100 100 100 98 78 71 86 84 79 81 87 77 75 80 87 92 88 87 83 83 91 86 97 99 87 73 69 71 82 86 87 73 66 60 66 76 75 82

GFSCGP_250_rhum_084.txt.gz
RH
100 100 76 36 36 54 58 33 59 100 89 70 42 38 28 41 44 39 47 52 84 53 38 38 60 100 100 100 100 100 100 100 87 79 81 81 82 75 100 100 100 95 100 100
96 100 88 73 44 39 68 44 56 100 100 82 50 41 33 35 36 37 31 26 41 60 58 48 42 75 100 100 100 100 100 100 100 92 100 100 100 100 90 100 100 100 100 100
87 100 87 90 63 41 52 47 64 100 100 91 53 40 33 34 39 41 43 26 19 16 16 21 31 31 41 84 100 100 100 100 100 100 100 100 100 97 100 100 100 100 100 100
97 100 100 90 99 50 40 39 62 84 100 96 57 40 35 34 45 42 44 47 34 22 18 19 24 48 26 64 99 100 100 100 100 100 100 99 80 77 79 94 100 100 100 87
82 76 89 92 100 64 44 42 58 60 100 96 74 47 34 34 42 42 45 52 60 31 23 25 25 51 58 82 96 91 82 86 83 83 78 75 74 69 76 82 100 100 100 100
51 58 50 78 65 47 37 60 44 56 100 100 90 52 40 32 44 48 40 41 50 59 29 33 32 26 52 75 75 64 37 34 50 52 63 73 74 88 96 100 100 100 100 100
73 60 51 48 52 50 37 99 46 68 82 100 96 57 44 33 37 55 58 41 40 46 57 44 32 40 32 31 31 34 38 51 64 62 63 61 59 75 99 95 93 82 93 100
92 89 75 77 65 54 40 99 55 95 48 100 94 64 43 33 33 36 39 70 44 37 49 50 42 29 52 63 75 76 65 68 74 74 64 62 63 75 73 65 63 50 56 67
80 77 88 74 61 53 40 87 78 73 63 100 94 78 45 39 34 33 34 69 71 53 39 38 49 64 81 47 58 71 72 82 74 100 100 80 66 72 61 62 54 56 61 63
68 57 64 60 57 53 42 79 77 50 89 100 100 100 49 36 39 38 36 36 41 59 73 59 52 44 50 55 62 72 72 59 65 78 82 88 98 93 83 80 68 69 68 72
80 65 60 50 42 50 44 61 78 44 86 100 100 100 62 38 42 42 41 36 32 35 39 36 35 44 47 49 63 58 66 71 66 59 55 57 57 60 58 60 65 71 84 94
50 54 71 60 65 60 58 48 90 41 85 100 100 100 72 53 42 35 44 50 42 34 34 44 45 41 34 33 53 58 63 82 100 73 69 60 50 51 51 82 100 100 98 100
60 50 52 67 61 44 52 54 96 51 91 100 100 100 73 88 48 43 35 46 56 46 37 34 36 43 44 43 43 41 46 68 98 98 100 90 69 66 68 89 99 99 98 100
42 48 47 76 90 99 92 68 100 70 78 100 100 100 100 98 54 53 40 44 52 61 50 41 42 42 34 35 41 42 40 44 53 89 97 100 100 96 78 76 98 96 100 100
29 29 45 61 90 96 79 71 98 64 90 100 100 100 63 100 76 68 63 52 44 57 53 54 45 44 47 41 44 48 46 63 60 60 96 100 100 100 100 99 100 96 99 90
32 31 37 45 100 100 78 82 100 57 74 100 100 71 70 100 100 100 100 71 56 40 55 58 55 50 45 40 41 42 42 43 43 64 66 70 81 78 60 69 96 100 100 100
26 31 42 42 82 92 69 100 92 56 52 100 100 94 100 99 100 100 100 100 97 54 45 70 79 74 61 57 52 50 48 45 47 55 62 61 40 40 41 38 35 36 39 39
18 27 42 42 56 63 55 100 97 62 70 100 100 100 95 94 90 100 100 100 68 65 72 56 76 100 88 78 73 64 70 70 64 65 60 57 55 51 48 45 47 51 54 55
21 25 35 34 60 65 71 100 72 63 70 100 100 100 100 100 91 100 100 92 87 75 65 81 90 99 100 99 92 74 75 80 88 80 76 74 64 59 56 53 58 61 63 67
14 17 35 32 61 48 95 100 75 70 92 100 100 100 100 100 100 96 78 84 75 65 99 92 93 84 95 99 100 100 95 74 82 82 84 73 76 76 65 60 58 60 63 68
13 23 45 40 50 51 99 100 88 66 98 100 100 100 100 100 100 100 95 100 100 99 88 95 92 93 81 92 85 95 92 76 71 80 86 71 74 81 83 69 60 57 66 75
10 30 51 47 48 62 100 100 99 81 95 100 100 100 100 100 100 100 100 100 100 96 100 90 99 98 91 83 87 78 86 88 73 78 80 85 88 100 89 79 71 66 72 82
19 36 41 40 45 100 100 100 95 84 91 95 100 100 100 100 100 100 98 100 100 89 92 100 100 100 83 75 87 91 93 85 83 82 79 95 100 100 98 81 77 69 74 78
24 38 43 43 68 100 100 100 100 96 100 100 98 99 100 100 100 89 83 73 72 88 89 99 100 92 81 72 82 90 100 96 77 70 84 100 100 100 99 87 87 78 84 85
32 34 48 52 85 100 100 100 100 96 62 91 100 85 99 100 98 96 96 87 88 90 100 100 100 87 80 73 79 91 95 84 74 94 97 100 100 100 100 93 92 82 91 90
34 44 52 58 94 100 100 100 100 100 100 99 100 100 100 97 81 95 78 65 68 74 93 94 88 84 82 67 71 77 82 81 95 99 100 100 100 100 100 97 84 84 96 80

GFSCGP_250_rhum_087.txt.gz
RH
84 55 81 67 62 71 72 64 30 37 44 69 78 83 57 36 32 27 36 39 82 90 66 81 95 100 100 100 100 100 100 100 100 100 85 100 100 100 100 100 100 100 88 84
100 91 65 55 70 71 72 55 39 41 31 68 70 97 73 38 39 29 37 38 32 51 63 66 79 97 91 88 84 100 100 100 100 98 100 100 100 100 99 100 100 83 86 91
100 100 69 66 78 100 76 60 40 62 35 42 58 96 86 47 45 31 36 37 33 33 50 48 57 80 89 92 81 92 95 100 100 100 100 100 100 100 100 100 100 100 100 100
94 100 99 74 72 98 98 90 83 68 48 41 52 100 89 55 51 36 32 38 39 27 39 41 37 46 51 76 76 82 93 97 100 100 100 100 100 100 100 100 100 100 100 100
100 100 98 55 100 98 100 37 39 40 35 39 36 94 88 64 47 42 32 40 36 42 18 24 24 28 36 48 55 69 82 100 100 87 100 100 100 100 100 100 100 100 100 90
92 100 75 100 100 81 73 45 62 50 40 38 31 84 62 79 56 46 32 30 43 38 41 19 20 18 16 19 24 31 47 75 94 88 100 100 100 100 100 100 97 97 84 92
100 100 100 94 91 95 88 78 48 46 49 39 36 68 48 87 67 52 35 28 33 47 46 46 30 23 21 25 30 48 42 38 46 66 100 92 86 79 72 76 78 77 81 84
100 100 100 100 100 100 86 60 50 56 44 43 58 72 63 96 76 56 39 32 25 44 56 53 50 49 35 59 81 82 80 91 98 100 88 75 66 55 51 49 60 64 73 70
100 100 100 100 100 99 94 59 72 54 47 45 69 51 95 100 77 58 42 36 31 37 44 43 50 46 48 34 46 72 87 70 58 56 55 52 55 51 40 49 70 66 47 52
82 84 91 99 96 79 74 80 69 69 55 48 71 41 100 100 82 69 46 44 35 34 35 35 41 51 46 47 43 32 32 38 38 41 46 47 40 35 41 73 78 71 75 70
85 88 100 100 100 100 98 80 61 96 69 49 74 44 100 100 88 76 50 48 45 39 34 32 34 33 50 49 42 42 39 38 43 43 36 39 36 41 50 50 50 52 52 53
98 96 100 100 100 100 100 86 65 50 65 49 71 46 63 100 100 84 48 44 47 51 41 34 31 28 33 34 39 52 52 46 42 39 37 39 51 51 53 64 61 58 51 59
83 74 67 100 98 82 72 62 58 54 50 46 56 56 51 96 100 90 63 45 31 42 52 44 40 33 30 30 31 34 35 37 39 41 37 31 35 43 50 53 62 58 66 86
63 61 56 88 87 92 92 84 86 76 61 57 57 66 47 88 100 100 100 56 47 38 37 56 53 45 41 40 36 33 33 34 37 42 45 49 62 63 65 70 85 90 96 100
30 33 35 40 53 57 71 81 79 70 63 69 70 69 55 63 100 100 100 72 64 58 48 36 71 58 50 46 46 45 42 43 48 50 48 48 57 78 87 80 91 98 99 60
19 16 16 21 31 36 51 60 81 70 60 51 66 76 52 46 88 100 100 100 100 99 72 48 66 71 61 59 56 54 51 47 49 44 46 70 64 58 41 39 41 43 45 60
22 16 16 21 35 39 49 41 72 82 82 65 72 93 68 41 57 94 100 100 100 100 100 95 52 66 76 71 71 66 66 60 56 55 57 63 63 50 51 53 55 54 51 49
24 16 21 21 30 39 29 59 76 82 86 90 100 100 59 46 58 100 100 100 100 100 100 98 57 53 66 61 86 99 98 94 83 72 65 68 64 69 67 67 69 66 54 61
21 16 19 20 24 35 36 75 97 88 99 100 98 97 68 42 62 100 100 97 78 100 100 68 61 46 38 47 77 95 93 89 85 86 79 77 76 69 66 84 85 81 84 77
26 24 21 22 28 24 59 67 77 69 85 97 100 100 80 64 42 100 100 100 100 100 95 69 62 52 35 58 64 76 91 98 85 86 92 83 74 81 87 83 74 71 72 72
26 22 24 24 25 29 51 64 48 58 89 100 100 96 71 82 67 100 100 100 100 98 99 100 81 49 63 82 83 85 86 82 83 75 72 82 92 89 80 75 72 84 85 83
17 22 21 19 21 36 49 49 38 76 81 100 100 86 72 94 97 100 100 100 100 100 100 100 98 95 74 82 96 84 79 83 79 74 71 71 80 82 84 76 70 76 86 98
20 20 21 15 24 38 36 53 56 74 90 100 100 94 84 76 100 100 83 99 100 100 100 100 77 74 96 99 94 88 78 80 81 74 78 68 65 68 71 70 74 74 77 77
14 16 10 12 24 29 30 50 67 72 99 100 100 91 100 98 100 100 79 99 100 100 99 85 100 100 99 93 84 78 79 77 75 87 84 76 76 72 73 71 80 87 88 92
13 11 8 12 26 33 38 58 97 100 99 100 100 98 96 100 100 88 64 76 100 100 100 100 100 97 90 76 65 56 54 62 76 82 85 85 81 70 73 85 95 92 92 97
12 12 7 15 30 42 50 56 99 100 100 100 100 100 93 98 100 100 77 81 100 100 90 90 86 92 92 67 50 57 64 67 83 77 86 86 75 70 90 100 100 100 100 100

GFSCGP_250_rhum_090.txt.gz
RH
100 98 68 100 79 100 78 71 55 41 25 37 32 56 43 50 82 66 32 29 30 35 42 79 95 100 100 100 98 100 100 100 100 100 100 100 100 100 100 100 100 88 90 100
100 100 100 100 68 73 94 74 71 54 42 61 47 36 40 44 68 78 43 29 29 34 31 58 75 93 100 100 100 90 100 100 100 100 100 96 95 100 100 100 100 100 96 98
100 100 94 89 64 89 100 85 58 48 51 84 47 35 36 33 44 91 46 29 33 33 39 31 54 77 92 100 100 100 100 100 100 100 100 100 100 90 100 100 100 96 85 97
100 99 89 100 89 100 100 81 68 58 79 71 53 41 48 39 42 92 54 30 38 31 38 38 27 47 66 91 100 100 100 100 100 100 99 97 100 100 100 100 100 100 100 99
100 100 80 49 80 70 100 84 88 57 70 66 80 47 46 36 48 93 59 34 42 34 33 48 36 35 42 62 87 100 100 100 100 100 100 100 100 100 100 94 100 100 100 100
100 100 99 62 62 89 100 90 99 49 63 84 63 54 55 44 77 98 62 36 42 35 35 42 42 30 33 39 65 81 94 100 100 100 99 100 100 100 100 100 100 100 100 100
100 100 93 60 98 98 100 100 55 56 94 100 58 56 57 46 98 100 54 40 44 37 39 49 54 41 30 24 29 40 56 81 87 86 92 93 97 100 100 100 100 100 100 100
68 58 56 97 100 100 87 79 66 84 100 88 65 76 66 49 100 100 54 46 43 38 42 51 53 60 48 25 21 25 28 33 36 38 55 67 69 90 100 100 100 100 100 92
48 79 59 71 100 100 97 97 99 78 88 76 74 75 79 62 93 100 64 49 43 46 33 37 53 42 49 52 34 28 28 29 49 39 50 70 87 93 100 96 94 80 73 73
100 100 100 99 100 100 100 100 100 90 92 99 97 83 90 60 89 100 98 53 42 49 36 34 37 45 48 44 44 37 35 38 27 24 31 52 60 71 70 68 63 56 48 46
100 100 100 100 100 100 100 100 100 97 99 86 72 79 100 64 81 100 100 67 43 47 41 35 34 38 40 35 41 44 46 53 48 42 36 37 39 41 45 47 46 51 57 55
100 100 100 100 100 100 100 100 100 71 59 85 93 75 88 57 78 100 100 92 55 46 42 36 40 36 34 35 34 33 45 45 46 51 52 51 53 54 62 68 67 62 52 48
99 88 98 100 100 100 100 100 100 99 95 91 98 100 100 57 72 95 100 100 93 54 52 49 40 44 39 36 35 31 30 31 32 31 31 31 31 33 36 40 46 48 47 45
74 83 96 100 100 100 100 100 100 100 98 100 89 99 100 64 66 81 100 100 100 73 65 69 40 31 41 45 42 41 40 40 39 35 34 37 39 39 42 42 54 62 63 65
77 69 55 87 100 100 100 100 100 99 96 77 75 83 100 77 61 77 86 100 100 100 73 71 56 50 35 38 46 48 52 51 48 50 51 45 42 42 49 62 55 42 40 46
41 43 45 50 62 72 81 76 90 83 90 60 60 79 84 82 51 75 76 100 100 100 100 83 81 80 62 38 47 54 52 47 52 50 51 54 54 53 58 62 60 50 46 50
11 15 21 27 40 56 77 74 74 76 72 71 66 82 93 86 55 58 76 93 100 100 100 100 100 100 91 69 60 59 48 50 41 47 55 63 54 50 48 48 50 54 60 64
14 10 11 12 17 24 32 39 42 47 61 63 51 68 94 93 67 58 76 87 100 100 100 100 100 100 100 100 88 76 69 57 53 61 74 77 65 62 57 57 64 66 62 64
18 18 15 20 17 18 20 22 23 26 28 30 40 66 85 100 76 68 80 94 100 100 100 100 100 100 100 100 100 78 56 39 35 38 45 65 80 83 72 74 69 70 78 82
18 16 16 18 19 18 22 19 16 18 24 35 44 73 95 99 81 88 83 97 96 100 100 100 86 100 100 99 100 82 63 47 33 42 52 76 92 84 83 81 82 85 77 77
19 17 15 15 18 27 29 23 21 18 44 41 44 71 100 99 96 100 95 86 100 99 81 100 100 100 88 89 99 96 86 55 54 67 73 90 94 84 90 94 99 98 80 74
17 15 18 24 21 23 33 29 30 29 32 41 43 66 94 100 96 92 100 100 100 100 92 74 100 100 100 100 100 89 56 44 72 83 96 96 83 82 90 98 98 96 87 83
18 15 14 20 24 17 32 28 21 22 27 39 44 68 98 100 100 100 100 100 100 100 99 70 92 100 100 100 88 52 49 69 70 93 100 85 70 71 74 72 76 82 79 79
18 17 17 22 20 14 24 24 27 27 28 33 52 66 100 100 100 100 94 86 100 100 100 88 64 99 98 85 66 42 66 74 90 100 97 78 66 67 58 53 64 80 78 74
14 18 15 16 17 12 12 21 32 37 35 31 57 76 93 97 98 99 100 98 86 69 99 99 83 64 48 59 59 81 92 95 97 95 98 75 66 68 58 62 60 61 66 68
19 21 25 19 10 10 10 21 30 47 44 42 37 94 100 92 95 100 100 100 99 91 95 100 82 79 66 61 72 100 100 81 72 90 92 84 70 62 70 70 60 65 73 76

GFSCGP_250_rhum_093.txt.gz
RH
100 78 69 100 100 100 100 78 86 51 27 58 63 38 60 53 47 37 35 32 62 38 26 31 40 68 89 100 100 100 100 100 100 100 100 100 100 100 100 100 100 100 100 100
99 100 100 100 100 100 100 82 100 58 27 61 84 62 42 81 68 55 30 29 49 46 24 30 34 46 77 98 100 99 99 100 100 100 100 100 100 100 100 100 100 100 100 100
100 100 100 100 100 100 100 97 100 60 26 40 100 86 38 83 73 56 34 35 46 52 28 25 32 38 46 87 100 96 87 100 100 100 88 100 100 100 100 100 100 100 100 100
100 100 100 100 100 100 100 100 95 54 35 51 100 99 47 85 85 71 48 65 52 58 33 26 29 33 38 65 97 100 100 100 84 87 100 98 82 100 98 82 98 100 100 100
100 100 100 100 100 100 100 100 81 53 52 62 100 70 95 91 93 79 47 77 59 59 38 28 29 33 30 44 67 89 100 100 95 100 87 100 100 85 100 100 99 100 97 89
100 100 100 100 100 100 100 100 81 63 51 53 100 37 100 96 90 87 54 75 64 60 40 28 33 38 30 32 40 50 72 81 100 100 96 83 100 100 85 90 100 100 100 100
100 100 100 100 100 100 100 100 95 86 43 83 100 34 100 100 93 90 60 62 78 60 45 32 33 39 42 32 35 38 52 66 82 99 100 100 100 100 100 100 100 100 100 100
100 100 100 100 100 100 100 100 97 73 44 76 72 48 100 100 83 98 76 63 85 58 52 36 33 45 41 46 44 36 32 42 70 73 84 94 100 100 100 100 98 100 100 100
98 100 100 100 99 97 99 100 99 64 42 42 80 74 100 100 86 100 92 57 87 70 52 45 37 32 38 41 44 41 35 47 55 63 68 73 83 82 90 86 94 92 94 91
100 100 90 96 100 100 90 91 63 46 35 85 100 82 100 100 99 83 100 59 88 72 55 51 44 34 33 35 44 45 55 54 64 80 79 80 70 72 84 93 80 81 87 90
100 100 100 100 88 70 75 71 63 41 41 72 77 100 100 100 84 92 91 71 71 90 60 53 50 38 34 33 34 35 50 53 51 53 60 51 46 59 67 71 71 67 64 58
100 100 100 100 100 100 100 66 44 36 43 66 88 100 100 100 100 100 100 79 74 100 78 57 45 42 38 35 34 33 34 40 50 49 44 43 48 49 50 51 56 53 45 47
100 100 100 100 100 100 100 100 73 88 87 96 96 100 100 100 100 99 99 96 73 100 100 69 64 37 36 36 38 37 34 34 35 37 38 38 38 41 45 48 50 50 51 53
85 85 99 100 100 100 100 100 100 78 83 100 100 100 100 100 100 98 88 88 68 90 100 99 73 61 40 39 37 44 40 39 40 42 37 33 33 35 35 34 34 44 63 58
76 82 80 100 100 100 100 100 100 100 92 74 100 100 100 100 100 100 89 83 75 90 99 100 82 91 64 49 45 42 43 42 45 45 44 45 40 42 40 39 44 52 59 54
75 82 98 98 100 100 100 100 100 100 100 100 100 100 100 100 100 100 77 68 64 89 100 100 97 98 100 79 62 51 53 53 56 51 47 47 50 53 53 52 54 46 51 55
62 74 69 76 66 85 90 99 83 84 90 89 78 100 100 100 100 100 92 67 75 72 94 100 100 100 93 100 95 83 66 71 68 64 51 42 43 46 47 60 73 68 61 60
20 40 45 57 53 54 75 90 96 76 80 77 76 85 89 100 100 100 99 70 75 86 90 100 100 100 86 100 100 100 100 99 78 62 66 54 45 52 57 68 66 68 82 79
14 14 23 35 42 49 72 63 76 94 90 80 73 79 89 79 79 100 99 68 77 89 76 99 100 100 95 100 100 100 100 100 97 74 61 50 44 48 53 64 83 91 82 82
14 12 14 14 14 16 23 26 42 53 66 41 42 43 58 68 67 100 97 62 63 79 69 87 100 100 100 100 92 99 100 100 100 74 74 64 58 52 49 64 83 94 91 79
14 14 15 17 17 14 13 12 14 17 24 28 30 35 44 54 65 86 91 70 58 74 70 74 99 100 100 100 93 94 100 100 99 97 98 96 81 59 57 72 92 95 86 73
19 18 16 17 19 21 16 14 13 15 16 15 18 22 26 39 57 71 72 66 56 64 71 75 99 100 100 100 100 100 100 100 100 100 100 86 63 62 57 84 91 94 86 80
14 14 17 18 19 20 22 22 25 43 22 17 18 22 26 29 34 44 65 81 58 65 85 88 100 100 100 100 97 66 66 85 100 100 100 72 62 57 50 66 84 94 100 99
14 15 13 15 16 16 15 18 23 24 25 19 22 20 25 32 58 80 93 98 73 89 99 96 99 100 100 100 100 100 82 62 61 73 64 75 54 56 43 44 74 93 99 100
21 19 14 14 16 18 17 18 24 28 25 20 21 25 27 42 67 90 99 100 100 100 100 100 85 98 100 99 100 100 100 98 81 68 66 50 43 43 51 64 71 74 79 89
20 20 20 19 15 13 11 16 20 28 20 26 29 35 36 49 84 98 100 99 100 100 100 100 95 90 100 100 100 100 100 100 100 95 79 60 61 55 72 96 97 72 72 92

GFSCGP_250_rhum_096.txt.gz
RH
41 40 93 100 100 100 100 100 100 100 100 87 69 80 54 34 88 63 53 70 44 37 42 24 26 29 65 100 100 100 98 100 100 100 91 91 100 100 100 100 93 100 100 100
100 44 76 92 100 100 100 100 100 100 78 78 60 82 95 32 81 73 49 77 48 44 49 28 26 25 32 82 100 92 100 83 92 99 98 100 92 100 100 100 100 100 100 100
56 93 91 95 98 100 100 100 100 100 88 67 74 79 100 43 87 75 59 80 53 43 66 34 27 24 30 34 82 100 100 93 78 95 87 100 100 100 99 98 96 100 100 100
62 100 100 100 100 100 100 100 100 100 96 76 59 81 100 50 78 88 60 72 65 44 76 41 28 25 31 32 46 81 100 97 100 97 75 100 100 100 100 100 100 100 100 94
85 100 100 79 100 100 99 100 100 100 100 83 48 72 100 73 52 100 65 78 73 45 80 57 32 26 35 34 34 52 100 85 99 100 100 76 73 88 91 99 100 100 100 100
95 100 100 100 100 100 100 90 91 100 100 56 85 90 100 95 45 100 78 90 80 46 70 76 38 27 40 39 34 42 73 100 80 100 100 100 100 100 94 74 71 64 63 68
100 100 100 100 100 100 100 100 100 100 74 80 100 98 100 98 45 100 72 96 85 60 64 85 45 30 30 44 37 44 66 94 100 99 100 100 96 100 100 100 100 100 100 100
100 100 100 100 100 94 85 100 100 100 83 92 100 76 83 99 98 79 87 98 80 81 53 85 54 33 31 36 42 33 58 76 83 99 100 100 100 100 84 92 100 100 100 100
100 100 100 100 100 100 100 94 100 88 61 63 100 75 77 100 100 81 93 100 71 78 51 80 75 37 33 32 39 42 40 41 60 76 87 100 100 100 100 100 86 96 100 100
93 100 100 100 100 100 100 100 100 91 100 89 96 82 63 100 100 77 93 93 73 77 57 54 97 47 43 34 34 42 39 37 30 50 76 94 92 100 100 100 100 100 100 100
79 95 100 100 100 100 100 100 100 100 97 98 99 100 77 100 100 98 87 89 80 94 63 55 76 68 51 40 34 32 36 41 39 40 66 91 92 100 100 100 100 100 100 100
83 86 100 100 100 100 100 93 76 82 80 82 96 95 70 57 100 100 51 82 95 100 69 52 49 80 53 51 43 34 31 32 38 43 59 56 65 69 73 68 63 79 89 84
84 71 100 100 100 100 100 100 99 96 86 91 72 78 59 58 100 100 86 100 100 99 80 65 57 61 73 43 45 42 35 30 32 37 45 52 56 59 60 58 62 66 59 58
70 79 78 100 100 100 100 93 81 64 70 70 67 63 71 70 74 100 100 99 82 83 90 76 57 68 75 74 41 38 40 39 36 38 38 36 37 37 38 39 42 44 46 46
54 80 77 83 98 100 100 100 100 100 92 44 62 52 61 100 94 100 100 100 100 100 87 94 63 83 74 87 70 47 42 33 35 40 40 39 41 41 40 38 35 32 38 39
40 75 91 92 90 94 97 82 100 100 100 100 99 81 75 100 100 100 100 100 94 94 100 98 78 67 82 86 90 89 57 48 38 33 36 40 39 41 41 41 43 49 57 68
24 35 63 76 85 75 75 98 93 98 100 88 62 91 99 100 100 100 100 100 100 99 100 100 97 69 88 79 90 100 98 69 62 49 42 45 60 64 56 45 43 50 56 59
19 27 30 50 55 68 86 97 99 100 100 100 81 100 95 84 89 86 100 100 100 100 84 74 81 84 68 73 77 100 83 100 88 81 65 52 50 51 48 52 49 48 45 53
18 21 26 29 36 50 69 84 100 87 76 72 73 83 100 100 100 100 100 100 100 100 89 68 60 68 88 93 82 84 91 64 100 100 100 100 87 62 60 50 45 45 49 47
18 18 20 24 24 33 52 59 70 79 79 82 84 78 78 88 76 100 95 100 100 100 100 100 97 73 80 87 100 96 89 57 84 100 100 100 100 100 99 77 67 69 68 64
17 20 19 18 22 24 37 48 59 78 78 81 66 74 80 80 73 81 85 88 100 100 100 96 99 84 70 77 90 100 100 97 98 78 97 100 100 100 100 98 87 82 83 74
21 20 19 20 19 20 21 22 31 45 53 63 69 58 59 66 67 76 79 85 98 100 97 84 97 98 77 87 83 98 100 100 100 94 90 97 100 100 100 100 100 66 66 64
20 19 18 20 22 24 22 20 19 22 23 35 50 59 54 52 51 52 58 60 60 71 87 90 87 100 99 97 80 85 97 100 100 100 84 90 100 84 82 100 100 78 71 81
22 21 18 19 20 20 22 26 24 20 15 16 18 15 16 18 19 22 30 42 48 65 82 90 86 92 98 99 83 91 96 100 100 100 100 91 79 92 89 90 83 75 80 78
22 21 18 19 18 19 19 18 20 20 20 24 17 14 12 13 14 17 23 26 33 46 79 100 100 94 100 100 99 99 98 98 100 100 100 100 100 100 100 100 98 100 99 86
18 20 15 15 16 16 17 19 21 20 22 25 21 20 21 23 25 26 25 25 36 56 68 100 100 87 100 100 100 100 95 98 100 100 100 100 100 100 100 100 100 100 100 100

GFSCGP_250_rhum_099.txt.gz
RH
25 21 28 34 35 39 98 100 100 100 77 62 100 100 100 100 78 44 44 68 54 55 38 46 40 37 23 66 100 100 100 85 100 91 95 100 100 100 100 84 92 56 75 85
20 20 31 34 36 45 100 100 100 100 89 66 100 100 100 100 84 46 55 81 63 67 38 51 45 40 25 28 92 95 100 86 95 92 100 99 99 100 100 98 76 89 82 99
20 21 33 34 66 44 100 100 100 100 100 61 98 96 100 100 99 39 56 82 54 78 51 37 51 46 28 22 80 100 100 100 100 100 100 77 100 98 100 98 83 100 98 99
18 23 33 35 45 71 100 100 100 100 100 88 100 100 100 100 100 50 46 70 51 91 63 38 58 56 33 24 43 100 100 100 100 97 100 99 98 96 100 100 100 100 100 100
22 24 31 39 85 92 71 100 100 100 100 90 67 99 100 100 93 61 48 60 55 98 82 38 54 58 40 25 28 66 85 100 100 92 92 100 100 99 100 100 100 100 100 100
22 22 31 49 100 69 100 100 100 100 100 89 99 100 100 100 100 71 61 57 57 70 98 54 43 59 50 26 32 31 66 97 100 100 87 79 89 100 99 100 100 100 100 100
21 24 36 43 91 92 83 90 100 100 100 74 99 100 100 100 100 65 63 62 97 76 96 64 34 66 62 32 30 34 78 82 100 100 98 67 83 100 100 100 100 100 100 100
22 24 32 70 58 93 82 95 85 100 100 100 72 100 100 100 100 90 53 79 94 72 66 73 31 74 64 38 28 35 47 98 100 100 100 100 68 68 73 89 95 100 98 88
20 25 38 61 62 90 100 82 100 100 100 72 100 95 80 96 100 100 75 86 66 53 64 98 52 48 81 45 32 28 35 66 100 100 100 100 100 100 76 88 100 95 91 100
19 23 40 72 78 98 100 92 88 100 92 100 100 99 100 93 100 100 96 86 63 61 38 100 81 39 72 66 34 30 30 35 50 100 100 100 100 100 100 100 100 100 100 100
17 24 32 65 84 100 100 96 79 95 92 98 100 100 100 90 100 100 100 86 65 42 31 82 91 44 39 76 58 34 31 30 37 46 100 100 100 100 100 100 100 100 100 100
15 25 29 66 88 100 100 100 100 90 98 93 89 100 100 94 74 100 100 75 79 37 25 33 98 58 51 46 81 45 33 32 30 36 40 80 99 99 100 100 100 100 100 100
11 25 29 53 86 100 100 100 100 100 100 100 100 99 83 72 100 100 100 100 100 65 30 27 97 87 48 54 55 69 37 37 32 28 31 37 37 53 80 92 99 99 100 100
14 19 28 40 76 88 98 100 100 100 92 100 100 100 100 93 100 100 100 100 100 95 48 31 96 93 70 52 58 51 48 42 36 28 28 32 43 48 48 53 48 45 52 50
13 16 27 35 56 91 100 100 99 88 92 100 100 100 100 100 96 100 100 100 96 68 55 40 30 47 92 60 62 47 66 55 43 34 34 34 35 34 34 34 35 34 34 35
13 16 20 32 48 78 100 100 100 100 78 100 96 81 74 78 86 81 92 100 100 78 72 50 37 55 99 76 76 37 51 71 60 43 34 32 33 34 36 36 35 34 35 36
13 15 17 31 46 60 56 100 100 100 93 100 92 96 70 72 69 89 78 92 100 100 66 54 33 47 45 65 100 56 46 62 87 85 59 46 36 33 33 36 36 35 37 38
15 16 16 22 32 36 91 89 93 100 100 89 71 79 70 63 66 76 70 57 69 99 100 100 75 97 100 98 100 61 48 54 57 99 100 90 68 58 48 41 39 42 40 34
16 15 17 19 26 46 59 87 84 77 100 100 100 86 99 92 97 98 98 96 94 95 100 100 100 100 58 99 100 96 70 64 51 59 89 100 100 100 96 83 79 72 56 53
15 16 16 17 21 32 48 58 78 77 83 81 98 100 100 100 100 100 100 94 55 63 74 68 52 70 100 100 100 84 76 89 66 54 73 98 100 100 100 100 100 100 100 100
18 18 18 17 17 20 22 38 52 64 65 69 75 82 90 89 86 99 93 93 100 100 100 100 100 100 100 100 100 96 88 94 97 68 60 62 74 97 100 100 100 100 100 100
21 22 22 21 19 18 17 19 33 55 60 62 65 72 74 84 91 91 98 97 100 98 99 100 100 100 93 93 82 83 100 90 92 91 89 86 65 52 56 74 98 100 100 100
23 25 24 23 21 20 20 19 22 28 32 41 46 52 70 82 82 81 85 80 88 96 91 92 87 90 91 86 99 100 98 94 86 93 98 95 100 100 79 67 76 76 64 83
24 26 24 24 23 21 24 24 22 22 23 25 28 36 46 52 64 75 80 84 82 86 85 83 80 79 78 79 85 84 89 97 97 100 100 100 99 100 100 100 100 100 93 76
22 24 25 27 24 20 25 28 26 22 20 22 24 27 34 48 51 66 79 85 77 75 74 83 84 90 97 84 79 77 87 94 100 100 100 100 100 100 100 100 100 100 100 100
25 24 25 25 24 21 23 25 24 21 21 21 20 20 19 19 18 22 31 41 51 61 63 63 51 40 41 66 84 95 96 100 100 100 100 100 100 99 96 100 95 100 100 100

GFSCGP_250_rhum_102.txt.gz
RH
54 50 48 46 42 32 26 21 21 30 40 61 78 83 87 93 79 100 100 100 95 43 39 50 43 18 25 22 25 92 100 90 57 96 83 92 80 59 56 55 59 65 86 98
57 45 50 42 34 27 21 20 23 34 40 77 82 76 100 100 92 100 100 100 92 47 39 46 40 24 20 24 20 76 100 100 96 61 88 87 81 86 88 78 78 82 100 99
58 50 50 40 28 23 20 20 30 34 56 47 65 52 100 100 90 100 100 100 91 46 38 47 55 28 22 26 21 29 88 100 100 69 85 75 100 100 89 100 100 97 100 100
50 55 42 33 23 27 20 22 31 36 54 75 86 42 54 100 98 100 90 93 95 54 43 54 69 39 26 27 23 24 72 100 100 77 100 93 100 100 100 100 98 100 100 79
46 43 36 23 25 22 20 22 29 36 43 59 81 47 100 100 100 100 100 100 90 53 46 45 66 50 30 30 27 26 50 86 100 100 87 92 100 100 95 100 100 100 100 100
40 38 30 26 24 20 21 22 33 36 49 60 98 52 100 100 100 100 100 100 85 58 52 50 69 55 34 29 30 25 31 100 100 100 100 98 100 90 81 100 100 100 100 100
38 36 30 22 21 19 20 24 36 36 46 99 99 67 59 100 100 100 100 92 100 68 56 51 78 43 44 32 30 24 30 86 100 100 100 100 100 100 84 88 88 98 100 100
31 32 27 18 17 19 19 24 30 52 62 100 95 75 63 100 100 100 100 99 100 82 72 57 59 36 61 40 31 26 26 34 98 100 100 98 100 100 100 100 94 94 100 100
28 29 18 14 18 19 22 30 45 51 50 100 100 100 100 78 100 100 100 100 100 100 86 68 42 43 58 52 38 32 24 29 59 100 100 100 100 100 100 100 100 100 89 79
22 18 13 12 15 17 21 36 48 66 61 69 100 100 100 100 100 100 100 100 100 100 86 89 46 38 45 53 36 42 29 25 30 77 100 100 100 100 100 100 100 100 100 100
14 11 13 10 16 17 23 35 67 84 83 65 94 100 100 100 100 100 100 100 94 100 100 99 54 47 37 66 48 42 42 28 27 32 84 100 100 100 100 100 100 100 100 100
12 9 12 11 18 16 26 38 85 70 96 98 85 99 100 88 80 100 100 100 91 98 100 100 40 40 31 44 66 49 47 46 28 26 31 53 100 100 100 100 100 100 100 100
10 9 11 11 14 19 29 49 50 86 90 87 88 100 100 100 100 100 96 98 98 100 100 100 67 30 33 29 93 46 57 52 38 29 26 28 32 84 99 100 100 100 100 100
10 9 9 12 13 14 21 38 74 79 100 100 81 100 100 100 100 100 98 100 100 99 94 72 64 38 43 36 98 65 48 69 54 27 24 23 26 27 34 74 100 100 100 100
9 8 9 12 13 15 19 42 67 100 99 94 66 91 100 100 93 78 87 100 100 98 76 70 91 63 39 46 43 52 54 81 46 46 33 29 23 25 26 30 36 56 83 96
8 9 9 11 13 13 16 31 60 100 93 100 65 71 100 100 88 86 81 85 100 100 100 100 85 66 47 47 32 29 80 92 87 55 52 40 36 27 28 29 29 28 30 32
9 10 9 12 14 12 13 27 54 98 100 100 95 100 100 100 100 100 100 100 100 100 100 100 100 97 76 46 39 26 37 85 99 84 50 62 55 44 39 35 32 31 28 28
8 9 9 12 12 9 24 41 58 92 100 99 100 100 100 100 100 100 100 100 100 100 100 100 94 76 82 58 45 32 28 72 100 100 58 53 65 83 87 69 58 51 44 37
8 9 10 11 14 16 19 26 30 53 100 91 100 100 98 92 100 100 100 98 78 76 68 78 84 99 100 86 60 39 34 90 100 72 99 77 53 62 72 100 100 97 96 83
8 8 10 12 14 20 20 22 21 54 96 89 100 86 100 100 100 100 88 77 80 74 79 86 100 93 85 68 98 100 100 100 87 61 100 72 63 58 66 78 95 100 100 100
8 8 11 13 17 20 18 13 23 34 81 98 94 87 97 98 84 75 94 75 66 76 65 72 88 83 100 100 100 100 100 74 48 97 100 94 90 71 63 73 92 100 94 97
10 10 11 14 17 20 16 16 24 26 44 52 77 94 100 100 96 78 88 95 80 72 76 98 100 97 78 84 72 80 65 65 100 100 99 100 100 91 98 72 85 77 94 100
11 12 14 18 20 20 17 21 20 21 28 42 50 70 90 100 100 100 100 100 92 100 100 100 100 100 100 100 98 100 100 100 100 100 100 86 97 100 100 92 83 85 73 74
12 15 19 22 23 23 22 22 22 22 22 26 41 54 70 92 98 100 100 100 100 100 100 100 98 93 89 96 100 100 99 96 98 98 84 90 83 99 98 89 86 86 82 76
13 14 17 20 23 21 24 23 23 23 24 26 26 30 50 67 83 91 97 98 98 100 98 96 89 80 91 89 92 94 86 96 100 99 95 94 98 100 100 100 100 100 99 88
14 16 19 22 20 20 23 25 27 26 25 24 24 24 23 26 32 39 43 54 59 69 76 89 96 100 98 95 95 92 99 99 98 100 100 99 90 100 100 100 99 100 100 100

GFSCGP_250_rhum_105.txt.gz
RH
94 82 96 89 69 65 57 48 36 32 32 28 20 18 20 23 31 27 51 95 99 100 100 100 61 40 32 27 18 20 40 46 88 100 100 100 100 100 100 100 100 100 100 98
100 100 100 97 94 75 61 52 42 32 31 24 19 19 21 32 37 27 64 97 100 92 100 100 43 40 36 32 22 19 21 60 63 96 100 100 100 100 100 100 100 100 99 100
100 99 95 81 74 73 64 51 36 28 26 24 17 18 20 32 55 44 84 99 95 100 100 100 42 41 39 43 24 19 23 27 53 71 97 100 100 100 100 100 100 100 100 100
85 100 92 81 65 59 46 45 35 28 20 21 15 17 21 33 74 53 81 96 98 100 100 100 56 45 37 45 27 19 25 22 70 53 65 87 99 100 100 100 100 100 99 81
75 75 68 62 60 49 40 34 30 26 20 18 20 16 36 44 96 75 80 98 100 100 100 100 72 44 39 42 32 20 26 24 39 84 57 66 74 85 97 99 100 96 78 64
56 58 55 48 49 40 34 37 26 21 20 16 27 18 40 61 100 75 84 92 100 100 100 100 77 45 45 47 34 25 26 25 26 100 79 45 90 62 80 93 93 83 73 64
62 53 45 41 37 39 35 34 22 19 19 21 23 16 48 97 94 82 99 100 100 100 100 100 77 47 52 48 39 36 27 25 27 51 100 75 100 83 58 72 79 61 55 69
50 47 46 40 36 35 32 32 25 22 18 20 18 31 51 100 100 83 100 90 99 100 100 100 86 49 73 51 41 39 29 31 26 35 100 100 100 100 90 73 97 69 85 95
37 35 41 40 32 32 34 28 27 15 15 14 20 41 54 93 100 100 100 67 89 99 100 100 81 68 88 54 34 47 32 30 28 28 100 100 100 100 100 97 99 98 88 94
33 24 38 37 34 32 27 25 18 14 15 18 28 50 80 96 100 100 100 99 73 98 100 100 100 100 85 58 30 49 43 29 31 25 55 100 100 100 100 100 97 75 89 100
26 24 31 31 30 27 22 20 13 13 16 19 32 61 100 100 100 100 100 100 100 79 98 100 100 100 90 58 43 37 53 32 38 31 26 69 100 100 100 100 100 100 99 100
21 25 24 25 19 16 16 15 11 11 20 21 33 83 100 100 100 100 100 100 100 92 90 100 100 100 100 57 44 35 38 54 38 42 28 26 83 100 100 100 100 100 100 100
12 13 15 13 12 10 11 10 9 12 17 18 43 100 100 100 100 100 87 100 100 100 88 95 100 90 78 68 44 34 33 51 42 42 38 28 26 43 87 100 100 100 100 100
9 10 10 10 11 8 11 10 11 11 16 31 62 100 96 100 100 100 78 99 100 100 91 95 96 83 80 95 52 43 34 42 55 40 37 33 32 26 27 62 96 100 100 100
7 9 8 9 10 7 11 10 13 11 14 30 66 100 100 100 100 100 100 92 100 100 100 99 83 70 89 95 70 51 37 67 64 49 44 36 33 29 32 24 30 60 96 100
5 7 6 8 8 8 10 10 12 18 24 36 55 100 100 100 100 100 100 97 62 76 78 96 100 79 71 100 76 50 38 40 41 45 61 51 44 37 35 35 29 25 30 43
6 7 7 10 9 7 8 10 13 22 40 67 64 100 100 100 100 100 100 72 83 88 98 100 100 85 72 100 65 74 54 46 50 37 41 70 86 59 39 42 39 37 34 30
7 7 7 9 7 7 16 13 17 28 71 52 60 92 100 100 100 81 94 82 100 99 100 100 100 88 67 67 70 69 54 43 39 48 30 45 88 81 66 62 58 72 68 57
6 7 8 8 7 8 10 12 15 21 47 48 63 64 84 100 100 100 100 100 100 100 93 99 77 76 91 87 71 100 100 90 80 75 40 30 75 77 59 81 64 49 49 70
6 6 7 8 9 11 10 11 15 19 36 28 61 94 94 81 92 89 92 100 100 100 100 83 100 100 100 100 100 62 73 89 96 69 56 40 94 100 97 83 96 99 76 53
7 7 7 7 10 12 9 12 16 19 31 70 100 76 82 100 100 80 72 60 64 99 100 100 100 100 100 99 72 72 67 67 66 79 77 97 100 100 98 74 82 100 100 89
9 8 9 10 11 10 11 14 16 17 21 38 91 93 93 100 100 100 94 93 99 100 100 100 100 100 100 100 93 80 72 73 83 90 100 100 100 91 75 60 100 100 100 99
11 12 12 12 11 12 13 14 15 17 21 25 54 71 100 100 100 100 100 100 100 100 100 100 100 100 98 81 80 70 90 96 100 100 100 100 100 100 100 100 100 100 99 97
10 10 10 12 13 14 15 14 13 18 21 25 31 70 97 100 100 100 100 100 100 100 100 100 100 100 86 87 89 90 94 100 100 100 100 96 100 100 100 100 100 100 98 98
8 8 8 10 11 12 15 16 18 20 21 23 26 37 86 94 99 95 98 100 100 100 100 100 84 68 70 77 94 98 98 100 100 100 100 100 100 99 98 100 99 92 100 100
11 14 14 13 13 13 16 19 20 22 22 23 26 27 31 56 90 92 99 90 80 75 90 92 96 89 84 94 96 92 100 100 100 100 100 96 99 100 96 100 100 100 99 99

GFSCGP_250_rhum_108.txt.gz
RH
100 92 72 100 100 96 92 71 86 99 100 81 68 38 52 41 33 26 21 18 26 31 44 91 100 74 100 83 43 32 27 21 19 35 100 100 100 100 100 100 100 100 100 100
100 99 100 84 93 72 78 100 100 100 96 63 54 36 40 36 30 22 19 20 30 36 66 78 100 65 100 66 37 30 30 23 18 20 81 100 100 100 100 100 100 100 100 100
100 99 100 96 98 80 68 73 81 71 74 60 42 28 37 38 27 21 19 27 42 39 64 94 100 74 100 52 35 30 30 25 21 18 44 100 100 100 100 99 100 100 100 93
100 100 100 100 93 99 90 97 82 70 60 51 45 26 36 36 23 20 23 41 49 34 72 94 100 87 100 63 42 33 33 28 23 23 20 88 100 100 100 100 100 100 100 97
100 100 100 100 100 100 99 89 82 49 52 38 48 22 30 36 21 21 28 100 62 45 73 100 100 94 100 64 46 36 37 32 24 26 20 32 97 100 100 100 100 100 100 100
100 99 100 100 97 90 78 76 74 65 48 28 46 25 34 31 21 24 30 98 96 64 69 100 100 98 100 74 54 36 35 36 27 25 23 21 51 100 100 100 100 100 100 100
100 100 96 87 76 81 80 62 58 52 47 33 32 24 34 31 20 27 32 100 71 72 72 100 100 100 100 90 57 40 39 40 30 26 23 21 32 67 100 100 98 100 100 100
86 96 100 80 61 69 76 82 61 55 42 34 27 26 35 27 20 29 37 100 50 68 99 100 100 96 100 100 70 35 45 41 34 32 28 24 30 53 62 88 78 100 100 100
55 56 76 56 67 67 71 67 73 44 33 26 29 34 33 24 20 38 55 98 58 69 94 100 100 88 100 100 59 35 54 39 42 29 34 30 28 69 62 52 79 78 100 100
55 62 87 94 86 74 72 84 68 45 29 26 30 31 29 19 25 44 92 87 46 63 100 100 100 79 100 90 64 75 56 38 47 36 37 37 31 94 90 49 40 94 86 92
44 40 68 75 82 75 67 66 56 34 25 27 32 25 22 21 46 79 100 93 55 74 94 100 100 92 78 52 98 81 56 44 40 44 41 37 31 77 100 88 51 46 93 99
38 37 39 55 70 48 49 48 45 27 27 22 20 22 18 22 52 100 100 100 79 54 93 88 100 100 87 63 100 95 54 42 43 40 49 38 29 30 93 100 100 96 96 100
20 19 28 35 40 34 41 41 34 31 19 17 16 15 21 30 87 100 100 100 100 56 73 82 82 100 93 76 100 100 71 39 45 33 37 54 34 26 34 93 100 100 100 100
19 21 24 30 32 30 28 22 18 18 13 12 16 16 28 61 100 100 100 100 100 81 71 57 54 53 82 75 75 65 60 45 50 42 38 52 49 33 26 33 74 100 100 100
10 12 15 15 16 16 11 10 11 9 10 11 18 17 28 99 100 100 100 100 100 100 85 65 60 100 74 94 95 83 67 66 56 49 44 59 49 41 30 24 25 43 75 100
7 10 10 11 10 9 7 9 10 8 9 12 20 17 57 100 100 100 100 100 100 100 100 90 96 91 100 95 100 100 100 100 64 48 54 45 46 49 42 33 27 28 33 36
5 5 5 7 5 4 6 8 10 9 10 16 21 23 47 100 100 100 100 100 84 100 100 69 100 90 92 95 93 98 100 100 94 78 48 38 47 46 50 44 38 36 36 35
5 4 5 5 4 6 7 6 8 8 10 16 18 20 44 94 100 100 100 100 98 71 100 95 99 99 84 73 60 80 85 100 100 100 67 45 47 42 40 48 48 40 44 54
4 4 5 5 6 7 7 8 8 10 11 16 20 27 34 66 100 100 100 100 100 83 92 100 81 100 100 98 92 78 100 100 100 100 100 100 98 100 62 54 54 85 71 60
5 5 6 6 8 8 10 8 9 11 14 19 19 29 35 50 98 100 100 100 100 100 87 69 97 100 85 96 100 94 100 100 100 100 100 100 100 100 86 80 48 44 88 98
7 8 7 8 8 8 9 9 10 12 13 16 17 25 43 46 75 100 100 100 98 89 94 84 73 78 94 100 100 100 93 78 99 100 100 100 96 87 75 78 78 61 71 82
8 10 10 9 8 9 11 12 12 15 15 18 14 16 35 63 68 100 100 100 100 89 83 79 97 82 90 100 92 73 84 72 73 82 100 100 100 100 100 98 85 82 78 72
9 8 9 9 9 11 11 11 12 14 15 17 14 18 25 46 83 89 100 100 100 100 99 96 93 100 100 100 85 90 72 79 89 90 100 100 95 100 100 100 100 77 78 76
10 9 10 9 10 10 11 12 13 13 16 17 20 21 22 51 55 98 100 100 100 100 100 100 94 95 87 98 99 87 96 100 100 100 100 91 75 88 100 100 100 100 100 96
13 11 10 9 9 9 9 10 13 16 18 20 20 26 32 50 72 63 86 96 100 100 100 99 91 69 85 99 100 100 100 100 100 100 100 94 88 83 95 100 100 100 100 100
16 14 10 8 8 8 9 12 14 16 18 20 22 28 42 66 80 86 84 84 78 78 75 65 65 77 87 100 100 100 100 100 100 88 95 99 94 100 100 100 100 100 100 100

GFSCGP_250_rhum_111.txt.gz
RH
100 100 100 100 100 100 84 89 100 100 85 52 52 48 59 59 86 97 63 50 48 32 25 23 24 31 41 58 100 100 81 32 25 26 20 71 100 100 100 87 90 100 100 100
82 98 100 100 100 96 93 100 100 100 99 43 62 48 60 82 100 81 65 50 39 30 23 22 28 42 43 67 100 100 58 31 30 27 22 42 100 100 98 98 99 100 100 100
93 89 96 96 96 100 100 96 67 78 85 76 93 57 80 97 98 61 58 44 36 29 21 22 32 45 45 70 100 100 42 34 31 25 24 23 100 100 100 100 100 100 100 100
100 100 100 100 100 100 100 100 100 100 97 90 76 53 97 100 86 59 47 46 37 25 21 22 35 54 59 71 100 100 42 38 35 27 27 21 62 100 100 100 100 100 100 100
100 100 100 100 100 100 100 100 100 100 74 62 100 63 100 100 67 62 48 41 34 24 17 22 34 56 62 70 95 90 51 39 34 31 29 23 19 100 100 100 100 100 100 100
94 99 99 100 100 100 100 92 99 84 89 67 100 57 51 68 84 46 50 33 28 21 22 25 38 59 83 71 93 96 53 43 32 33 32 28 19 27 100 100 100 98 100 98
79 78 92 97 96 98 90 88 100 100 100 96 98 46 62 73 58 50 60 32 27 21 24 33 72 69 96 59 96 96 66 43 38 36 36 28 22 19 64 100 100 100 100 100
100 100 98 100 100 100 85 80 82 71 60 64 64 53 78 60 46 53 52 34 28 21 26 40 100 100 96 63 97 100 75 48 40 38 35 31 28 21 21 91 100 100 100 100
100 100 100 100 100 100 100 100 100 93 65 60 69 70 82 58 50 51 46 30 25 22 28 52 100 100 96 65 100 100 83 41 42 37 40 38 34 23 28 34 93 100 100 100
84 99 100 100 100 100 100 100 98 85 75 68 64 58 56 56 42 36 35 27 22 22 35 71 100 100 97 62 85 100 80 39 47 43 40 41 36 30 56 74 73 100 100 100
62 67 97 94 99 96 96 94 91 90 70 57 47 50 53 48 40 40 32 26 22 32 50 81 99 100 100 92 68 96 96 49 61 54 47 40 39 39 35 100 90 76 96 100
76 80 79 83 98 100 96 85 70 68 67 60 40 42 46 50 31 31 24 26 33 46 50 76 100 100 99 81 82 73 69 62 66 61 54 43 36 39 37 62 100 96 77 64
64 55 71 96 100 100 86 84 78 64 57 51 29 31 40 33 28 24 24 30 44 52 64 78 100 100 100 91 81 56 59 80 74 57 50 40 36 36 47 37 75 100 100 78
20 22 26 44 72 88 87 65 55 42 36 29 24 29 33 18 22 22 29 55 71 89 98 100 100 100 100 93 99 60 44 100 94 55 72 54 45 37 40 41 32 56 100 100
11 15 19 23 30 37 41 32 28 27 26 18 28 25 25 18 17 24 73 84 82 100 100 100 100 100 96 97 88 60 38 84 99 89 51 66 53 49 40 46 40 32 34 99
8 9 10 13 19 20 21 18 17 14 16 16 21 17 11 14 19 44 100 100 100 100 100 100 99 100 100 100 99 84 71 64 94 71 71 91 88 66 56 52 41 34 28 27
7 9 9 11 12 10 9 13 9 8 12 12 11 14 12 13 24 97 100 100 99 98 100 100 100 100 100 100 89 98 92 61 69 86 100 86 98 93 73 45 45 60 51 38
5 6 6 9 8 7 9 8 6 10 12 11 11 10 14 14 34 100 100 100 100 66 100 100 80 98 100 100 100 100 100 100 94 52 98 100 100 98 78 50 45 48 54 64
4 4 4 5 4 5 5 4 6 7 8 8 11 12 14 20 45 100 100 100 100 99 85 100 73 94 100 100 100 100 79 99 89 92 88 72 82 100 100 100 96 100 100 78
5 6 5 5 5 5 4 6 5 6 6 8 11 11 18 33 48 98 100 100 100 100 92 86 78 87 97 100 100 100 85 100 100 100 100 100 100 66 58 92 91 74 74 94
4 4 4 5 6 4 5 5 6 6 8 11 10 12 18 45 76 93 100 100 89 100 100 99 68 67 70 92 100 100 100 100 100 96 100 100 100 100 100 79 63 75 81 83
6 6 5 5 4 6 7 7 7 7 8 10 10 12 17 42 62 97 100 100 90 100 100 100 100 65 57 70 96 100 100 100 100 100 100 100 100 100 100 98 91 94 75 50
7 6 6 6 8 10 9 8 9 9 11 13 11 13 16 36 70 100 100 100 100 88 92 91 88 82 75 89 75 99 100 100 100 100 100 100 100 100 100 100 100 87 80 65
7 8 7 7 8 8 10 9 9 10 11 12 12 12 15 34 66 100 100 100 100 90 81 74 80 59 70 84 100 100 100 100 100 100 82 98 99 98 100 100 100 97 100 100
11 10 10 10 9 10 10 10 12 14 16 15 14 13 14 18 69 92 100 100 100 100 100 92 91 97 94 76 83 99 100 100 100 96 100 100 99 96 81 99 100 100 100 100
13 12 11 10 10 10 11 12 12 14 15 15 16 14 15 16 28 68 100 100 100 100 100 100 97 95 99 99 100 100 97 100 100 100 100 100 100 97 99 100 100 100 100 100

GFSCGP_250_rhum_114.txt.gz
RH
100 89 69 71 80 66 61 100 96 100 100 96 81 72 99 82 100 100 100 80 55 47 62 80 67 54 39 26 23 31 41 71 47 73 34 22 35 100 100 90 100 100 98 100
94 91 87 98 83 59 58 64 88 100 100 87 80 69 91 100 100 98 98 88 50 53 60 82 52 47 33 23 23 32 75 66 57 73 27 18 27 100 100 100 100 100 80 97
97 71 76 73 56 68 66 60 95 100 100 98 92 97 100 100 100 100 100 79 56 53 68 68 50 44 29 22 24 40 92 69 77 47 27 20 21 91 100 100 100 99 68 95
88 72 73 78 81 83 86 76 84 98 96 100 96 82 100 100 100 100 98 63 68 63 57 59 42 35 26 20 26 51 98 66 73 38 30 24 23 70 100 100 100 100 88 92
70 56 60 76 93 100 100 92 82 75 68 66 80 51 100 100 100 100 89 70 59 48 56 59 46 33 23 20 34 69 100 65 58 39 31 24 25 33 100 100 100 100 100 98
86 77 81 100 100 100 100 100 99 100 100 79 76 53 99 100 100 87 96 100 65 65 52 57 51 31 22 23 40 83 100 66 56 40 34 26 24 24 60 100 100 100 99 100
98 90 90 99 93 95 100 100 100 100 97 95 100 92 92 100 97 91 90 91 54 52 56 50 44 33 23 26 42 92 95 73 53 45 33 30 28 26 23 91 100 100 100 94
100 100 98 100 100 100 100 100 96 98 100 97 100 82 100 100 100 100 72 66 65 70 55 46 38 32 23 28 54 98 90 68 56 43 37 36 30 27 25 23 99 100 100 100
100 100 100 100 98 100 100 99 94 91 90 84 100 100 100 100 92 69 64 62 66 64 55 40 39 32 23 36 58 89 99 61 70 46 35 34 36 33 27 21 22 99 100 83
81 90 100 100 100 100 100 100 100 95 86 81 75 85 85 70 72 67 59 67 75 65 49 37 35 34 26 39 79 91 96 71 73 54 39 37 35 36 33 24 23 23 98 100
64 66 78 96 94 100 100 100 100 100 84 78 79 89 92 98 95 74 71 63 72 56 35 35 33 35 35 40 100 100 83 93 84 50 36 42 34 37 38 34 60 45 59 100
49 58 75 87 72 84 99 93 96 97 88 76 66 90 100 93 93 76 58 66 71 47 28 29 29 33 47 58 100 100 98 100 98 68 48 44 39 36 37 36 77 78 90 100
27 32 45 62 72 76 81 79 71 72 66 59 48 60 88 73 56 57 65 68 61 37 25 24 26 35 55 72 100 100 100 100 100 78 63 63 47 38 36 36 35 100 94 100
17 19 27 31 36 56 76 85 72 60 55 50 45 48 80 58 52 43 51 56 52 32 24 24 26 42 73 98 100 100 100 100 100 78 54 70 62 51 45 35 34 34 80 97
9 13 16 23 29 32 38 36 33 44 51 41 52 25 70 68 34 32 40 45 42 26 24 25 30 76 96 100 100 100 100 100 100 76 82 69 83 89 73 49 36 34 32 84
8 9 10 15 18 23 26 25 28 35 32 21 21 24 44 34 24 31 32 38 32 28 33 45 41 99 100 100 100 100 100 99 100 72 100 88 64 84 98 84 74 52 37 33
6 8 9 10 11 12 14 24 31 29 20 15 14 26 35 23 21 22 27 31 25 41 61 93 74 82 100 100 100 100 100 100 88 62 85 100 93 58 72 83 77 83 77 54
5 5 6 10 9 8 13 15 14 11 11 10 15 23 21 16 14 19 25 24 31 87 87 100 93 82 100 100 100 100 100 86 66 62 70 80 93 91 85 100 96 90 66 52
4 4 5 5 5 7 8 8 7 8 9 9 13 15 11 12 12 18 19 24 52 100 100 94 86 90 100 100 100 98 87 81 80 70 96 91 87 94 95 93 98 98 96 68
5 5 5 5 6 6 5 5 6 7 9 9 10 10 8 10 11 14 17 29 70 100 100 100 88 90 99 100 100 100 100 100 100 93 76 64 74 73 72 75 60 46 70 100
4 5 5 5 5 4 5 7 6 7 6 6 7 7 9 10 11 12 16 42 80 99 100 100 97 100 92 97 100 100 99 100 100 100 100 96 67 93 67 61 53 60 58 42
5 4 5 4 4 6 6 5 6 5 4 4 5 6 8 10 12 13 21 64 99 76 90 100 100 99 100 93 100 100 100 100 100 100 100 100 100 99 100 99 76 96 84 63
5 5 6 6 7 5 6 6 6 6 5 5 6 7 7 9 13 15 26 50 100 100 76 90 100 100 87 69 100 100 100 100 100 100 100 99 100 100 100 100 100 100 98 67
6 7 7 7 6 6 6 6 7 7 6 6 7 6 8 10 13 18 21 73 73 100 100 80 89 99 100 71 99 100 100 100 100 100 100 100 100 100 100 100 100 100 100 100
9 9 9 9 9 9 9 8 8 8 10 10 9 8 9 10 13 14 20 64 86 76 100 100 82 64 90 93 72 97 100 100 100 100 100 100 100 100 100 100 100 96 100 100
12 12 12 12 11 11 11 10 8 10 11 11 11 11 11 11 12 15 24 76 100 87 88 100 100 100 62 67 80 71 75 97 100 100 100 100 100 100 91 100 100 100 100 100

GFSCGP_250_rhum_117.txt.gz
RH
100 92 76 80 100 100 82 83 74 66 79 79 63 58 55 100 100 100 100 100 100 81 68 62 40 38 62 68 92 40 34 25 24 32 39 55 60 25 29 99 100 100 100 87
100 100 76 83 99 98 100 100 100 78 80 93 90 62 51 57 88 98 100 100 100 70 72 56 51 40 57 87 77 44 32 24 24 34 46 59 55 24 46 100 94 84 100 98
98 100 97 79 72 100 92 100 96 100 100 100 92 70 60 76 94 100 100 100 100 76 71 73 50 56 65 71 78 45 30 23 26 39 61 78 42 22 27 100 100 90 100 100
62 91 100 99 70 90 100 100 100 100 100 95 77 61 66 74 100 100 100 100 100 86 80 66 55 68 52 97 74 36 27 24 32 45 84 82 36 25 22 100 100 77 100 100
77 94 98 87 90 75 100 100 100 96 92 83 72 59 62 88 100 100 100 100 100 100 90 46 63 49 100 88 60 32 26 25 35 75 100 66 35 29 22 95 100 70 100 100
40 50 65 84 91 84 100 100 100 98 92 65 65 56 68 90 100 100 100 100 88 56 52 72 63 70 96 70 54 29 25 27 41 95 100 48 34 28 25 52 100 61 100 100
62 78 82 84 89 97 100 98 93 87 84 73 73 61 57 85 100 100 100 100 88 94 82 80 45 67 76 64 50 28 26 36 73 100 92 42 33 27 23 25 100 82 98 100
75 86 85 84 98 100 100 98 97 96 96 100 100 89 80 94 100 100 100 100 100 89 61 61 46 71 58 68 42 29 30 50 100 100 76 42 34 29 26 26 76 100 62 100
66 82 86 88 100 100 88 84 94 92 94 96 100 98 100 100 100 100 100 100 99 92 69 70 62 57 68 73 39 30 36 65 100 100 89 44 34 31 33 26 24 99 100 78
41 74 88 92 83 93 97 98 95 95 96 92 97 96 94 100 100 100 100 98 100 100 99 74 62 63 72 66 37 28 42 73 100 100 92 44 38 30 32 27 20 29 99 93
28 43 71 82 82 87 98 94 87 89 77 67 78 98 94 98 99 100 100 85 76 72 65 80 72 84 81 47 33 27 50 86 100 100 85 47 42 36 38 32 23 20 27 100
17 21 36 56 69 66 82 97 97 86 75 71 73 76 91 86 84 79 82 73 80 90 91 89 87 95 73 35 29 29 55 96 100 100 87 56 44 42 43 42 33 28 23 24
13 19 22 29 39 48 57 63 70 73 67 70 81 87 84 88 87 90 94 90 83 92 99 88 84 88 44 30 27 30 61 100 100 100 98 57 44 54 53 43 36 35 40 77
7 10 15 19 23 28 33 36 44 54 55 52 59 87 89 93 90 85 88 93 96 100 98 77 75 60 32 27 27 36 72 100 100 100 96 64 62 60 56 41 40 34 35 73
7 8 8 12 16 19 20 23 30 38 42 38 46 44 81 80 70 84 77 69 82 93 82 82 66 37 32 26 26 48 99 100 100 100 96 75 64 64 64 46 52 45 36 37
6 8 8 9 10 14 17 16 21 26 27 23 23 28 61 68 61 74 63 57 74 84 76 67 48 33 26 26 31 98 100 100 100 100 100 96 63 68 74 68 69 53 56 39
5 6 8 10 10 10 10 16 18 20 22 22 22 28 35 37 48 51 61 51 92 72 60 56 33 30 24 29 50 100 100 100 100 100 100 96 83 81 93 80 87 67 61 52
5 5 6 8 7 7 13 14 13 14 17 15 16 18 18 22 27 28 32 34 48 44 50 46 31 27 26 50 82 100 100 100 100 98 100 100 100 100 100 100 92 77 86 83
4 5 6 6 6 7 9 9 7 7 12 13 14 15 17 19 23 23 24 27 30 35 39 33 29 24 32 85 100 100 100 100 100 99 95 84 96 91 100 100 88 80 93 89
4 5 5 6 6 6 6 7 10 12 13 12 10 9 9 12 16 16 18 20 23 29 28 28 25 25 49 100 100 100 100 100 100 100 91 67 93 86 83 98 100 87 83 100
4 4 4 5 4 5 5 6 7 7 7 8 8 8 8 8 10 11 13 17 21 22 24 25 22 27 78 100 100 100 100 100 100 99 96 99 100 100 97 99 94 73 66 77
4 5 5 5 5 4 5 5 6 5 6 6 6 6 7 7 7 9 11 14 16 18 19 23 20 36 78 100 100 100 100 100 99 100 97 100 100 100 100 77 69 78 68 59
6 6 6 6 5 5 6 6 5 5 5 6 5 5 7 7 8 9 10 12 14 16 19 22 21 49 69 96 100 100 100 100 100 100 100 100 82 86 89 89 91 97 96 99
8 8 8 8 8 7 7 6 6 5 4 4 4 5 5 6 8 10 10 11 12 16 20 30 41 77 96 98 100 100 100 100 100 100 100 100 100 100 89 65 94 76 88 95
10 10 9 9 8 8 8 8 6 6 7 8 8 8 6 6 8 11 11 12 13 16 19 54 73 81 94 100 100 100 100 100 100 78 100 100 100 100 84 99 92 89 94 99
13 13 13 11 10 10 9 8 7 8 7 7 6 6 6 7 8 11 11 11 14 15 18 50 81 99 100 100 99 100 100 100 100 100 95 100 100 100 100 100 100 100 100 100

GFSCGP_250_rhum_120.txt.gz
RH
76 83 88 100 87 68 69 89 100 100 100 100 100 100 100 71 64 64 59 53 53 57 80 100 91 100 100 84 81 65 47 35 36 40 46 26 24 30 50 65 30 23 62 81
81 100 100 100 100 100 84 68 85 98 94 100 100 100 86 94 82 81 97 96 82 65 53 54 87 77 81 91 79 64 48 39 34 40 40 26 26 33 58 51 22 54 64 67
62 79 92 85 96 99 89 87 96 97 100 100 89 100 99 89 99 73 75 87 100 76 57 61 100 100 100 99 94 69 47 41 34 39 36 25 27 38 72 40 24 92 64 84
52 61 49 51 68 72 77 99 100 100 99 100 81 98 100 100 100 100 90 100 100 92 78 66 89 100 92 74 77 66 62 42 38 40 31 25 31 43 72 30 21 100 80 67
24 28 44 45 48 75 100 100 100 100 100 100 87 75 99 100 100 100 100 100 100 90 75 84 99 92 100 89 81 93 73 43 49 44 28 26 36 55 65 25 19 100 94 70
36 23 23 26 36 56 100 100 100 100 100 100 100 100 74 93 100 100 100 100 100 80 66 76 92 100 89 66 66 73 77 44 48 46 26 28 38 76 48 29 20 90 100 73
38 48 32 29 29 55 74 97 95 96 89 99 100 100 98 86 100 100 100 100 93 77 76 96 100 90 80 89 95 100 67 47 48 43 25 32 55 90 40 30 20 49 100 75
30 36 43 42 35 35 59 88 96 94 93 100 100 99 95 98 100 100 100 100 89 83 74 88 95 100 100 100 100 86 57 52 45 39 27 35 95 86 45 30 21 21 100 82
21 29 32 44 62 47 51 46 62 60 72 100 72 97 99 100 100 100 100 100 98 94 100 100 78 76 79 88 90 74 51 55 48 33 28 43 100 67 42 30 24 18 90 99
15 20 24 34 55 72 65 75 75 90 100 100 100 94 88 94 100 100 100 100 100 100 100 100 65 86 88 96 96 98 56 62 48 31 36 77 100 68 42 33 25 25 38 100
12 16 20 24 39 50 65 83 90 80 92 98 100 100 85 99 100 100 98 100 100 100 100 100 67 84 92 98 100 95 60 70 46 29 74 100 95 68 41 34 26 29 28 66
7 11 18 18 27 35 44 69 88 71 73 73 80 94 84 95 98 94 88 95 100 100 100 100 100 87 75 72 87 65 57 70 40 28 100 100 100 64 44 34 28 33 32 25
6 8 11 18 20 28 28 46 52 54 55 63 76 86 64 65 77 88 89 89 98 100 100 89 84 78 78 79 71 71 59 50 36 28 100 100 100 69 43 38 32 35 39 34
5 7 9 13 16 19 22 22 30 26 42 42 64 73 61 75 63 58 68 80 88 91 90 84 81 77 69 63 71 63 64 39 35 30 100 100 100 61 46 45 40 39 38 36
5 5 7 10 12 16 23 24 19 22 27 30 75 52 63 75 55 71 68 77 80 79 71 73 78 79 77 74 75 63 50 41 32 32 100 100 100 78 55 54 44 35 37 36
4 5 6 8 10 11 13 18 19 21 23 25 37 38 83 48 62 77 70 72 84 87 88 90 92 87 76 73 64 51 41 34 29 39 100 100 100 100 68 58 42 37 41 44
4 5 5 6 7 9 10 15 15 18 20 19 24 37 45 43 55 73 78 80 82 73 85 84 93 79 72 64 56 35 34 33 29 62 100 100 100 100 77 73 50 41 46 48
4 4 4 5 6 7 10 9 9 9 11 13 16 25 33 35 38 46 53 62 63 73 80 82 79 72 84 75 50 36 35 29 45 98 100 100 100 100 98 90 60 47 45 52
4 4 4 4 5 6 7 8 8 9 13 12 15 16 20 27 29 23 23 32 40 52 65 80 80 77 79 59 40 35 33 35 76 100 100 100 100 100 100 99 85 69 63 71
4 4 4 4 4 5 6 6 7 8 10 12 14 14 16 17 18 17 20 25 32 36 47 58 60 66 62 40 34 32 31 41 83 100 100 100 100 100 100 100 100 100 100 97
5 4 4 5 5 4 5 6 8 8 9 9 10 9 9 9 12 15 17 18 21 26 31 37 44 46 44 30 30 28 34 94 100 100 100 100 100 100 100 97 100 100 100 100
5 6 5 5 5 5 5 5 5 6 7 8 8 8 8 7 8 8 11 14 17 18 21 23 30 30 28 27 27 28 63 100 100 100 100 100 95 95 91 90 100 99 100 94
6 6 6 6 6 6 6 6 5 5 6 5 5 6 7 8 9 9 10 11 13 15 16 18 22 24 24 27 25 33 100 100 100 100 100 100 100 84 86 95 100 100 100 100
8 8 6 7 7 7 7 7 6 6 6 7 7 7 8 8 7 7 9 9 10 12 14 16 19 21 23 27 27 53 100 100 100 100 100 100 100 100 100 100 100 100 100 100
9 9 9 8 7 6 7 7 8 8 10 10 8 7 7 6 6 7 8 9 10 10 11 13 16 19 23 27 35 80 100 100 100 100 100 100 100 100 94 100 100 100 100 100
10 11 11 14 15 10 8 8 8 9 8 7 8 8 6 6 5 6 7 9 10 10 11 14 17 19 25 30 48 99 100 100 100 100 100 100 100 100 100 100 95 97 85 71

GFSCGP_250_rhum_123.txt.gz
RH
50 54 59 56 56 58 74 64 78 92 78 95 79 100 100 100 100 96 77 85 79 86 75 56 50 43 45 56 61 72 78 100 100 100 96 51 51 35 31 23 28 40 46 32
47 46 52 55 57 63 69 62 83 100 100 96 95 88 100 100 100 100 100 91 90 90 74 67 55 58 55 58 48 53 59 69 100 100 87 62 48 32 30 23 28 54 61 31
32 37 40 47 52 51 55 66 81 99 100 100 100 100 99 100 100 100 100 100 100 100 98 77 92 68 57 66 59 100 100 100 98 95 85 53 45 33 30 23 29 54 49 26
24 26 29 30 38 41 55 75 95 97 100 100 100 100 100 100 100 100 100 98 96 97 100 100 97 62 80 98 77 76 77 97 100 92 83 52 43 30 30 23 32 52 46 24
19 21 27 27 24 30 37 50 60 99 100 100 100 100 100 99 93 100 100 100 100 100 100 100 98 85 100 100 76 76 100 100 99 100 79 39 37 32 28 24 35 56 44 28
25 28 21 30 33 28 31 30 38 51 95 96 100 100 100 100 96 78 99 100 100 96 97 100 100 100 100 100 81 90 100 83 99 96 59 42 40 34 31 28 43 62 35 24
25 24 27 27 30 34 36 29 28 40 54 72 96 80 92 96 100 100 97 100 100 90 86 100 100 100 100 100 78 74 86 100 83 80 57 51 37 48 32 31 56 61 28 22
18 23 18 19 26 30 38 41 31 30 33 55 75 72 99 99 100 100 100 100 100 100 91 74 91 100 100 99 88 83 85 95 91 100 80 45 42 57 46 35 68 65 32 24
12 14 15 17 20 25 34 35 74 46 26 27 52 77 83 91 100 100 100 100 100 100 100 86 88 100 100 100 91 71 96 100 99 91 72 55 43 36 27 39 82 44 30 24
8 8 10 12 14 19 25 36 44 48 34 38 50 74 86 100 98 100 100 100 100 100 96 93 90 100 100 100 82 73 84 96 89 86 76 52 41 72 40 56 98 46 32 27
6 7 10 11 10 14 21 27 32 40 33 50 70 71 95 100 100 96 100 100 100 100 100 100 98 94 100 99 91 84 78 99 92 100 77 47 40 55 60 95 100 52 34 30
5 5 7 10 9 12 18 21 25 31 45 61 84 90 74 73 93 97 88 73 74 100 100 100 100 100 94 100 95 99 100 99 99 100 60 54 42 53 96 100 97 48 35 29
4 5 6 8 10 11 16 18 25 28 31 48 69 94 95 100 91 79 98 93 94 100 100 100 100 100 91 86 87 79 99 100 100 68 54 54 45 41 100 100 93 55 38 30
4 4 5 6 8 9 11 12 17 22 26 47 75 79 97 96 65 46 69 98 100 100 89 90 92 98 100 99 86 100 100 100 83 64 60 52 44 41 100 100 85 53 41 32
4 5 5 6 7 8 10 14 12 19 24 34 51 59 62 43 21 43 81 74 92 96 99 94 92 95 100 100 100 100 99 93 84 71 71 55 43 56 100 100 81 51 44 37
4 4 5 5 6 6 8 11 11 12 22 26 26 30 41 55 23 29 57 73 88 92 81 82 87 94 99 100 97 97 96 93 83 78 66 47 42 67 100 98 76 49 45 42
3 3 5 5 6 6 8 12 13 13 13 17 22 29 32 21 21 38 47 62 64 66 73 73 69 77 83 87 87 88 94 81 73 76 69 44 38 73 100 100 72 49 47 47
3 3 4 5 6 6 7 7 8 9 11 12 15 19 25 22 21 41 53 51 59 62 71 65 66 74 78 89 91 87 81 79 94 73 56 44 35 85 100 100 66 58 51 45
4 3 4 4 6 6 6 7 8 10 12 10 12 17 19 25 32 39 30 36 41 37 47 60 62 68 76 81 75 76 91 96 74 59 43 42 31 98 100 100 71 67 55 48
4 4 4 4 5 5 5 6 7 8 10 11 14 17 17 15 20 23 28 26 30 27 31 45 53 61 72 78 76 76 79 66 62 47 39 34 30 100 100 100 91 93 70 58
5 4 4 5 5 6 6 6 7 8 9 10 12 13 14 14 12 15 19 20 20 22 27 30 42 52 64 69 68 64 57 50 44 45 44 34 35 100 100 100 100 100 95 73
5 5 5 5 5 6 6 6 7 7 8 8 9 10 10 9 8 9 11 14 14 15 19 24 26 26 34 44 46 44 40 39 44 40 36 37 57 100 100 100 100 100 100 100
6 5 5 5 6 6 6 6 6 7 7 7 8 9 10 8 8 9 10 10 12 14 16 18 21 22 22 25 28 32 36 42 37 37 35 84 100 100 100 100 100 100 92 100
7 7 7 7 6 6 6 6 7 7 7 7 8 9 9 10 10 11 11 11 10 10 11 14 16 18 19 21 28 33 36 38 34 77 90 100 100 100 100 100 100 98 79 84
8 8 9 9 10 9 8 8 9 9 10 9 9 8 8 7 6 6 7 8 9 9 9 10 12 15 16 18 21 30 39 32 38 100 100 100 100 100 100 100 100 100 88 90
10 10 10 11 12 13 11 10 9 11 11 10 8 8 8 7 6 6 6 7 8 8 8 8 9 12 15 18 21 30 32 29 51 100 100 100 100 100 100 100 89 78 75 95